GFSSGP_con_mucape_000.txt.gz
CAPE
1600 915 1061 1084 352 32 3 14 64 96 50 124 133 102 83 71 18 1 4 95 210 179 377 588 1832 1142 993 1143 1263 1053 1155 1859 2293 2573 2824 2626 2465 2624 2387 2359 2442 2447 2238 2191 2317 2333 2319 2233 1979
958 968 1165 989 22 0 0 0 53 76 138 226 211 187 197 101 154 133 118 412 380 315 357 879 1638 1681 1295 1440 1621 1422 1420 1971 2671 2729 3058 2916 2760 2657 2499 2428 2303 2197 2232 2191 2154 2055 1913 1975 1978
928 971 1086 840 37 19 0 0 66 243 334 302 236 278 211 167 220 186 279 636 801 687 776 1062 1714 1741 1773 1965 2001 2414 2501 2642 2563 3007 2839 2871 3023 2647 2325 2212 2211 2251 2118 1933 1844 1834 1878 1815 1920
835 742 752 115 17 34 32 0 224 439 392 321 280 407 447 294 314 363 701 879 917 1081 1131 1827 1905 1847 1977 2085 2180 2246 2678 2862 3057 3197 2845 2883 2397 2044 2019 1920 2039 2063 1931 1826 1725 1714 1762 1880 1845
676 203 12 0 37 106 60 44 247 280 487 424 440 470 409 471 406 560 807 868 1203 1337 1654 1742 2363 2529 2092 2078 2162 2718 2923 2660 3123 3196 2707 2585 2333 2158 2141 2210 2211 2059 1923 1876 1835 1841 1805 1838 1925
72 21 3 0 149 193 106 74 237 624 588 438 380 370 594 456 355 665 731 888 1598 1861 1916 2016 2380 2168 2430 2673 2851 3096 3097 3083 3160 2666 2470 2407 2352 2239 2196 2116 1914 1759 1669 1742 1698 1809 1928 2082 2280
137 1 5 0 197 226 149 433 584 637 507 460 396 337 719 472 546 669 775 1277 1809 1914 2142 2317 2388 2397 2659 3167 3069 3083 2738 2587 2522 2413 2562 2295 2207 2388 2257 2081 1951 1840 1788 1823 1946 1941 2241 2249 2396
30 0 0 0 213 262 260 596 655 429 592 503 318 333 468 582 748 705 834 1364 1878 2016 2188 2286 2387 2254 2484 2896 2451 2281 2431 2250 2325 2429 2391 2351 2254 2105 1863 2087 2372 2143 2135 2322 2148 2002 2111 2106 2197
28 15 12 14 113 145 319 639 554 778 582 490 482 335 504 891 860 831 1000 1436 1692 1677 1911 2179 2185 2299 2520 2694 2221 2216 2101 2224 2025 1960 2349 2604 1866 1698 1926 1778 1845 1710 1774 1906 2263 1907 1827 2004 1755
33 26 24 23 7 114 273 537 697 548 460 568 551 692 973 1060 950 900 836 915 1222 1332 1694 1948 2074 2272 2462 2723 2513 2149 1922 1892 1959 1933 2032 1985 1613 1446 1103 1442 1637 1421 1098 2042 2053 1804 2020 1497 1044
5 2 0 3 0 115 193 503 614 270 440 564 489 830 1065 1089 995 993 860 813 995 1379 1764 1934 2061 2233 2344 2670 2466 2126 1982 1723 1912 1902 1876 1874 1062 744 1120 666 618 677 1459 1273 1316 1099 923 866 790
3 8 10 0 0 101 138 251 440 219 277 492 477 781 1071 1115 1100 1040 941 1088 1191 1461 1712 1928 1999 2061 2139 2083 2205 1985 1867 1851 1664 1652 1619 1604 933 807 733 585 758 982 982 898 637 667 708 656 557
0 3 6 10 0 43 35 202 382 180 414 564 586 872 954 1012 1143 1110 1102 1339 1246 1383 1581 1694 1866 2097 2067 1946 1947 1916 1804 1853 1695 1502 1401 1271 955 853 743 728 864 871 746 747 688 677 616 382 412
0 2 18 32 0 5 89 252 332 309 642 845 714 813 890 909 1148 1164 1353 1422 1362 1424 1486 1613 1726 1911 2075 2040 1903 1797 1534 1643 1461 1345 1252 1202 1038 1005 902 811 759 643 618 557 684 622 426 178 194
0 1 13 25 23 226 190 259 244 374 655 954 1005 998 982 1055 1277 1220 1389 1465 1412 1492 1519 1633 1733 2055 1890 1939 1535 1378 1427 1260 1279 1260 1019 1241 1245 1211 1175 927 785 620 510 394 341 410 382 308 147
7 1 20 23 35 209 161 128 403 419 490 810 1067 1082 1106 1159 1298 1317 1359 1405 1367 1429 1500 1552 1908 1978 1707 1769 1672 1487 1366 1392 1431 1373 1338 1365 1247 1271 1258 1007 612 572 473 448 440 400 294 224 134
0 0 21 19 18 146 83 74 384 396 368 648 965 970 993 1087 1165 1262 1344 1343 1257 1393 1402 1442 1806 2032 1859 1638 1693 1746 1606 1547 1465 1355 1216 1209 1142 978 844 747 690 610 586 570 473 339 370 289 206
0 0 23 32 38 74 75 126 364 319 299 374 562 676 825 899 968 1034 1110 1202 1127 1229 1291 1411 1657 1897 1802 1577 1703 1785 1619 1377 1311 1169 1056 982 1017 961 679 710 662 760 546 470 336 338 303 278 268
0 39 36 32 42 63 102 108 338 236 232 220 253 317 422 607 636 750 839 1043 978 1057 1166 1452 1585 1771 1834 1631 1713 1816 1465 1415 1463 1365 1127 1063 919 933 913 718 649 385 358 245 329 310 294 203 218
0 10 18 27 17 69 65 91 243 232 183 158 155 189 233 362 472 533 580 757 608 710 1031 1308 1669 1877 1870 1783 1696 1595 1577 1556 1489 1457 1426 1226 941 998 865 493 279 341 307 136 99 126 141 210 250
0 0 0 1 2 14 48 70 95 232 232 184 116 93 100 133 216 256 287 315 595 582 867 1131 1558 1816 1806 1730 1612 1687 1603 1672 1587 1605 1228 1440 1174 811 536 373 300 213 13 17 13 19 80 178 233
0 0 6 0 3 1 52 0 71 113 195 195 159 114 93 116 128 145 188 257 401 498 681 754 1149 1522 1641 1689 1772 1764 1541 1531 1624 1530 1528 1725 1108 749 465 6 7 3 1 19 2 112 183 190 63
0 0 0 0 0 3 32 3 0 67 77 131 145 140 118 111 152 204 225 264 313 579 517 549 842 1130 1335 1432 1650 1910 1663 1514 1340 953 800 1498 1082 984 0 0 0 15 79 11 0 26 44 76 69
0 0 1 1 0 0 0 0 0 17 98 130 142 150 151 156 273 286 345 413 328 686 658 488 633 747 1004 1265 1522 1750 1669 1561 1514 796 375 1258 1378 74 0 0 0 42 26 0 0 0 0 0 28
0 0 0 0 0 0 0 0 0 0 69 106 128 157 194 235 356 495 457 641 565 658 783 664 690 813 1109 1334 1535 1694 1727 1665 1680 648 550 1172 684 0 0 0 0 5 0 0 0 0 0 0 9
0 0 0 0 0 0 0 0 0 5 5 66 76 125 151 249 416 539 642 616 804 689 840 745 885 941 1244 1525 1644 1747 1963 2019 2412 1542 281 566 14 0 0 0 0 0 0 0 0 0 0 0 10
0 0 0 0 0 0 0 0 0 0 0 6 32 101 141 159 369 541 641 738 928 841 886 805 1049 1132 1289 1557 1765 1949 2317 2329 2905 500 163 83 0 0 0 0 0 0 0 0 0 0 0 0 0
0 0 0 0 0 0 0 0 0 0 0 0 1 32 96 125 339 440 576 718 962 949 914 887 1086 1252 1328 1499 1659 1930 2324 2725 1925 16 51 12 0 0 0 0 0 0 0 0 0 0 0 0 0
0 0 0 0 0 0 0 0 0 0 0 0 0 8 30 76 188 407 631 781 953 974 914 998 1173 1370 1453 1437 1530 1626 2105 2384 278 0 0 0 0 0 0 0 0 0 0 0 0 0 0 0 0
0 0 0 0 0 0 0 0 0 0 0 0 0 2 11 41 119 260 579 808 910 912 909 1010 1223 1394 1507 1478 1546 1455 1694 1955 714 1 1 8 25 9 0 0 0 0 0 0 0 0 0 0 11

GFSSGP_con_mucape_003.txt.gz
CAPE
1679 1610 1133 1173 131 45 62 74 76 129 118 232 113 80 99 96 25 38 39 132 165 277 424 687 1410 1079 1105 1007 871 1310 1493 2010 2571 2568 2480 2051 1683 2094 2215 2467 2614 2525 2337 2369 2361 2258 2248 2124 2107
852 1088 1474 748 0 20 30 44 125 117 275 297 311 277 132 98 83 83 138 217 208 243 491 512 1210 1325 1138 1221 1149 1406 1934 1897 2293 2728 2478 2110 2145 2179 2239 2468 2399 2400 2388 2349 2187 2020 1937 1975 1982
1171 792 1356 259 0 0 13 32 285 330 335 204 301 272 150 130 113 134 177 251 285 462 659 953 1275 1244 1360 1203 1512 1666 2416 2092 2145 2413 2331 2183 2243 2426 2543 2423 2354 2403 2284 2099 1984 1876 1844 1867 1948
805 711 508 0 0 0 0 105 416 539 408 338 181 161 245 242 151 209 270 401 453 642 757 1227 1471 1645 1586 1670 1574 1906 2506 2250 2564 2678 2520 2411 2599 2227 2183 2129 2236 2290 2172 2058 1940 1927 1956 2008 2031
628 107 0 0 28 94 15 298 632 507 532 328 296 174 219 539 384 301 548 644 709 823 957 1475 2026 1672 1783 1900 2000 2590 2763 2267 2716 2671 2410 2388 2180 2134 2194 2373 2458 2323 2126 1979 1930 1887 1951 2023 2178
64 7 4 12 155 137 69 280 493 716 605 448 260 199 403 687 255 459 690 821 678 833 1296 1455 1882 1888 1977 2055 2120 2352 2876 2678 2872 2623 2466 2396 2299 2346 2383 2359 2194 2042 1895 1881 1928 2098 2271 2362 2388
96 17 20 57 304 212 120 246 548 595 516 398 306 417 608 414 237 528 743 969 1074 1261 1346 1881 1912 2241 2267 2725 2635 2790 3036 2866 2588 2553 2496 2466 2475 2444 2501 2380 2224 2069 2048 2182 2220 2188 2182 2237 2234
34 3 20 50 287 196 292 405 673 468 487 455 442 412 400 385 315 585 750 1086 1228 1369 1550 1907 2047 2040 2270 2052 2828 2218 2684 2455 2298 2312 2469 2533 2339 2397 2241 1977 2272 2275 2297 2060 2382 2197 1956 1952 2135
10 23 21 22 251 251 497 367 696 633 672 516 505 507 288 483 383 540 842 1177 1374 1613 1789 1913 2000 2303 2417 2135 2134 2410 2237 2210 2254 2269 2188 2026 1888 1920 2013 1883 1967 1956 1794 1812 2325 2041 2107 2038 1680
2 41 11 13 99 263 466 498 772 843 595 489 665 684 641 756 471 478 676 921 1127 1243 1642 2026 2145 2101 1997 1952 1887 2140 1763 1438 1600 1919 1941 1913 2096 2130 1899 1503 1804 1831 1518 1953 2020 2016 1738 1435 1486
14 45 17 4 3 277 534 525 696 619 490 493 776 1002 875 887 636 604 558 687 818 1173 1338 1732 2066 2142 2031 2517 2435 2519 2229 2136 1965 2182 2111 2283 1893 1626 1531 1620 1300 798 1660 1651 1467 1515 1478 1604 1375
0 1 10 7 86 260 477 624 499 470 160 359 811 1019 998 914 851 712 638 751 856 1066 1396 1538 1911 2298 2329 3023 2084 2825 2059 2198 1672 1852 2380 2346 1818 1580 1749 1517 1707 2233 1710 1729 1621 1419 1530 1200 924
0 0 0 8 91 177 424 573 501 526 255 610 930 1060 1028 958 940 901 858 848 1091 1128 1581 1859 2118 2336 2409 2297 1875 1800 2467 1598 1546 1988 1950 1812 1697 1965 1918 1646 1882 1929 1692 1506 1450 1427 1339 1086 761
0 0 0 26 71 121 318 429 352 351 749 886 1019 1095 1084 1065 1098 1238 1250 1182 1289 1280 1503 1916 2312 2509 2579 2383 2553 2439 2499 2385 2015 2019 1730 1997 1918 2038 2650 1824 2084 1530 1527 1217 1305 1271 1044 827 805
0 18 31 41 26 171 345 506 469 409 901 903 913 1042 1115 1181 1269 1370 1257 1269 1538 1680 1429 1549 1913 2295 2589 2611 2799 2429 2267 2116 1595 1626 1921 2185 2267 2306 2268 2307 2182 1578 1258 1207 1117 1099 788 633 479
0 26 27 35 162 284 152 71 452 661 907 824 741 904 1057 1098 1193 1360 1432 1437 1843 1869 1762 1530 1370 1695 2129 2227 2732 2117 2169 2069 1898 1950 2207 1887 2095 2277 2465 2546 2185 1350 1241 961 1062 969 806 773 580
0 2 31 48 127 337 210 124 394 675 825 847 824 883 1023 1116 1240 1504 1613 1786 1878 2136 2148 2037 2183 2208 2574 2675 2715 2445 2505 2558 2372 2337 2270 2232 2050 1917 2262 2435 1958 1378 1256 1419 1043 820 955 780 628
0 9 38 90 61 302 204 211 560 575 683 786 970 1020 1123 1257 1516 1695 1804 1801 1984 2071 2268 2357 2251 2561 2866 2870 2892 2888 2835 2984 2294 2254 2167 2121 2023 1611 1814 1767 1527 1362 1397 1105 959 1049 947 878 794
0 24 72 65 45 89 188 160 462 539 512 632 976 1136 1174 1172 1223 1438 1699 1766 1961 2086 2192 2318 2384 2643 2727 2309 2186 2312 1772 2416 2254 2277 2219 1898 2070 1758 2016 1917 1659 1484 1184 1062 1063 952 903 463 590
0 11 52 25 38 67 78 94 238 576 512 507 636 849 938 1042 1235 1398 1509 1479 1663 1967 2097 2320 2541 2778 2780 2595 2735 2371 2376 2317 2153 2269 2329 2092 1919 1998 1974 1722 1373 1139 757 998 860 902 535 496 594
0 0 27 30 17 54 101 75 168 494 516 420 408 491 574 674 874 994 1124 1284 1417 1665 1967 2187 2764 3112 2881 2840 2705 2587 2474 2514 2400 2363 2335 2193 2135 2026 1756 1453 1098 1033 600 164 538 425 637 287 542
0 0 5 65 49 39 60 27 79 269 570 514 486 426 432 484 605 706 818 1009 1247 1404 1617 2174 2568 3050 2935 3027 2580 2694 2304 2131 2225 2594 2452 2374 2272 1661 1473 1351 720 762 311 468 319 291 599 700 223
0 0 0 20 50 5 47 3 4 160 344 619 599 532 455 410 461 573 690 776 958 1215 1344 1687 2519 2873 3357 3116 3161 2726 2627 2427 2558 2342 2041 2478 2104 1525 1004 643 547 576 435 464 187 612 471 398 172
0 0 0 0 18 0 0 4 0 128 210 296 421 473 494 453 454 511 585 613 760 988 1161 1459 2433 2975 2739 2782 2959 2931 2971 2858 2605 2186 1360 1378 1604 888 891 302 498 754 619 322 128 325 289 294 328
0 0 0 0 0 0 0 0 5 17 110 151 191 304 361 410 409 458 603 631 770 1043 1213 1417 2221 2609 2340 2426 2836 2827 2866 3143 3065 2753 1770 1247 1167 976 1037 301 444 543 567 166 115 205 207 215 189
0 0 0 0 0 0 0 0 0 40 32 59 137 217 233 272 329 422 661 944 941 1030 1218 1490 1988 2374 2168 2124 2798 3024 3084 2798 2837 2621 1760 1221 1134 833 310 308 373 550 177 17 60 28 9 135 157
0 0 0 0 0 0 0 0 0 0 3 4 58 138 317 366 542 618 659 809 1143 1274 1599 1795 2104 2331 2262 1997 2778 2810 3157 3051 2840 2452 2059 2234 1078 476 296 297 378 244 0 14 95 0 16 117 251
0 0 0 0 0 0 0 0 0 0 13 67 42 134 326 561 674 707 1003 1009 1211 1221 1511 1644 2005 2254 2350 1980 2324 2516 2801 2956 2901 2564 2534 2450 670 327 323 311 200 132 32 25 165 15 3 49 11
0 0 0 0 0 0 0 0 0 13 257 77 83 115 294 614 828 1030 1202 1069 1197 1270 1336 1721 1709 2110 2042 2124 2679 2869 2800 2720 2769 2329 2928 1763 385 438 338 337 189 169 147 139 204 251 37 5 100
0 0 0 0 0 0 0 0 0 0 0 2 24 43 105 650 997 953 1053 1079 1108 1348 1254 1446 1603 1646 2154 2500 2656 2452 2523 1649 1650 1978 2224 304 225 297 354 347 302 295 256 281 286 197 0 80 142

GFSSGP_con_mucape_006.txt.gz
CAPE
1685 1726 2061 2279 1232 128 160 118 155 259 330 197 36 70 142 127 127 225 273 482 425 544 656 673 930 860 745 760 1233 1586 2083 1793 2445 2142 1636 1596 2035 2271 2479 2552 2390 2318 2316 2310 2046 1863 1895 1892 1875
1863 1766 1911 1518 82 72 232 210 256 342 283 326 266 241 204 162 120 167 415 459 411 353 456 409 1227 1089 832 756 1260 1392 1448 1453 1965 1757 1580 1762 2026 2156 2448 2335 2267 2318 2197 2039 1965 1909 1873 1810 1911
1161 1532 1581 59 4 103 195 300 446 372 220 219 388 337 251 218 220 293 443 419 457 484 362 790 1128 1027 935 972 1403 1868 1922 1974 2112 1774 1782 1848 2027 2461 2499 2266 2246 2205 2073 1923 1780 1682 1787 1906 2031
1435 1250 894 29 0 0 134 420 564 526 368 271 260 325 323 269 353 442 501 505 534 700 689 590 749 1005 1022 1331 1593 1780 1963 2026 2094 1904 1880 2084 2421 2283 2129 2097 2214 2081 1955 1907 1869 1859 1853 1857 2055
987 323 25 3 0 0 53 447 552 528 438 266 228 291 358 571 452 557 711 721 796 809 971 683 1542 1440 1264 1469 1749 2097 1772 2062 2220 2295 2154 2357 2119 2114 2111 2319 2305 1988 1826 1882 1811 1919 2025 2121 2219
454 95 76 29 0 15 75 414 545 614 607 450 328 547 652 550 602 846 971 907 960 1011 972 1342 1697 1869 1875 1958 2179 2421 2129 2248 2406 2313 2285 2272 2188 2259 2270 2259 1991 1911 1816 1839 1972 2078 2018 1975 2060
240 106 89 91 12 7 54 197 349 619 674 380 360 671 838 520 856 1142 1247 1077 1079 1089 1269 1458 1492 1981 2221 2222 2325 2349 2218 2085 1971 2187 2286 2204 2222 2196 2169 1911 1736 1931 2095 2186 2026 1995 1763 1844 1843
246 104 62 82 100 32 26 157 308 217 549 404 398 571 774 543 864 1114 1167 1114 1125 1308 1499 1720 1877 1962 1898 2011 2330 2302 2031 1581 1781 2148 2166 2288 2278 2159 2013 1891 1959 2004 1782 1850 2107 1857 1850 1938 1878
150 177 83 74 138 127 141 183 405 370 570 529 543 378 483 394 720 1006 1207 1047 1358 1316 1453 1629 1767 2007 2082 1417 1572 1797 1780 1890 1943 2146 2106 1764 1402 1648 1567 1610 1690 1948 1753 1757 1894 1842 2007 1756 1727
31 205 92 31 70 277 194 199 561 603 538 476 679 462 404 421 795 967 1197 1430 1407 1404 1476 1297 1678 1779 1774 1391 1803 1872 1378 1137 1102 1137 1372 1258 1467 1698 1243 1567 1596 1730 1601 1746 1800 1677 1733 1878 1207
0 81 72 46 23 226 261 291 467 263 440 370 687 676 523 545 803 944 1088 1244 1283 1442 1489 1661 1496 1862 1856 1735 1666 1628 1471 1338 1428 1830 1740 1352 1456 1373 1659 1636 1547 1306 1354 1740 1661 1638 1421 1536 1322
0 0 0 27 43 162 336 345 390 248 175 274 490 709 705 727 716 807 981 1095 1159 1283 1302 1436 1615 1785 1780 3127 1740 1547 1325 1334 1220 1305 1824 1898 1678 1615 1914 1666 1762 1845 1477 1611 1586 1348 1574 1473 1192
0 0 0 0 1 22 344 410 360 358 346 408 659 857 767 775 694 752 774 898 1016 1233 1333 1377 1638 2130 2133 2314 1545 1469 1358 1273 1084 1186 1591 1469 1248 1939 1852 1756 1796 1657 1591 1399 1398 1457 1507 1446 1116
0 0 0 0 0 69 416 527 564 429 283 797 873 985 857 844 845 914 823 874 979 1098 1224 1401 1584 1981 2117 2108 1964 1649 1512 1308 1284 1139 1145 1653 1395 1886 1478 1535 1368 1476 1667 1320 1365 1585 1601 1391 999
0 0 0 1 49 289 379 665 610 538 605 1102 1050 1027 935 922 977 1080 1014 1033 1110 1193 1196 1469 1735 1907 2388 2422 2296 2068 1581 1457 1340 1256 1677 1876 2092 2071 1819 1537 1430 1414 1596 1938 1687 1573 1427 993 582
0 0 19 72 202 399 452 245 541 728 799 1203 1051 1047 948 992 992 1118 1168 1187 1201 1331 1466 1542 1446 1683 2210 2208 2113 1880 1570 1536 1510 1332 1647 2133 2059 1912 1900 1588 1399 1255 1374 1484 1460 1413 1025 547 303
0 1 9 220 264 515 520 203 550 790 831 991 986 825 897 1046 1148 1313 1275 1228 1245 1593 1788 1806 1656 1538 1887 2225 2103 2033 1931 3076 2415 1985 1983 1722 2001 1715 1910 1590 1460 1618 1355 1630 1422 1042 672 260 64
1 0 29 39 287 433 447 270 627 822 766 691 1066 846 811 870 1034 1233 1284 1352 1471 1692 2008 2096 1845 1967 2379 3197 3071 2424 2216 1881 1697 1751 2600 2352 2344 1843 1857 1620 1530 1586 1596 1259 1030 941 402 349 60
3 25 43 46 238 354 258 229 356 849 793 724 930 1018 912 726 839 1084 1409 1533 1522 1819 2213 2472 2415 2587 3167 2479 1687 1728 1514 1662 1721 1740 2283 2176 2038 1945 2011 1554 1673 1680 1515 976 609 298 143 10 67
0 3 36 85 145 204 162 226 256 420 861 648 664 962 1170 966 831 1206 1479 1471 1475 1873 2291 2614 2740 2788 3076 2124 2281 1830 1827 1556 1887 1924 2160 2193 2205 2306 1934 1929 1728 1531 371 577 216 158 22 16 44
0 0 17 88 133 170 119 212 159 144 578 674 564 580 978 1068 957 1074 1240 1398 1451 1741 2340 2648 2950 3077 3192 2743 2298 2442 2310 2605 2056 2194 2421 2609 2533 2436 2352 2136 1196 988 160 2 159 162 33 15 229
0 0 3 41 91 111 145 133 65 136 507 639 807 625 526 984 1041 1077 1095 1279 1384 1606 2034 2674 3053 3327 3241 3333 2960 3234 2219 1651 1266 1698 1361 2005 2482 2299 2176 1775 1094 183 0 59 157 32 85 203 23
0 0 0 3 68 100 136 136 63 89 135 479 796 799 503 353 770 987 1072 1050 1322 1481 1797 2317 3078 3616 3597 3319 3846 3013 2858 1663 1334 1427 1970 2351 2144 2242 1445 1695 531 176 88 308 170 87 164 44 23
0 0 4 16 31 80 91 70 10 21 88 82 267 627 700 307 309 653 832 927 1149 1342 1604 1929 2864 3797 3653 3536 3502 3459 2957 2582 1473 1968 1608 1077 1068 1574 1646 1629 687 192 90 301 214 60 71 60 66
0 0 14 35 40 41 60 58 1 1 12 30 16 147 679 487 324 442 695 892 1130 1324 1514 1841 2619 3447 3429 3471 3343 3419 3368 3086 2771 2497 1696 1242 652 741 1316 1793 869 296 432 260 108 57 6 54 42
0 0 8 27 26 29 13 6 0 16 17 0 3 52 407 639 341 408 602 819 1158 1281 1548 1815 2489 3296 3270 3245 3590 4055 3890 3180 2890 2737 1625 965 608 365 565 1715 732 359 284 263 32 0 8 26 33
0 0 0 27 48 28 2 1 0 1 16 3 29 82 199 623 594 354 598 795 1066 1328 1816 2425 3132 3002 3029 2976 3411 3706 4051 3564 2995 2780 2548 1487 1270 361 1054 1165 699 196 326 82 33 0 10 8 12
0 0 0 7 77 19 8 16 0 16 0 0 13 98 239 555 670 496 571 770 1013 1280 1567 1957 2311 2967 2788 2771 2934 3055 3240 3448 3241 3103 3211 2468 1799 1473 945 848 365 254 190 61 96 9 7 6 0
0 0 0 1 10 17 34 3 0 0 0 0 0 110 150 453 806 787 658 709 1060 1152 1365 1789 2156 2444 2701 2706 3320 3116 2923 3007 3396 3342 3438 3033 2585 1627 1121 881 401 302 225 148 188 129 0 1 2
0 0 0 6 4 12 17 1 2 0 0 0 0 5 9 240 745 962 931 971 1035 1302 1255 1444 1769 2170 2532 3125 3354 2907 2894 2988 3197 3882 3274 2691 2794 1400 1129 751 443 672 218 209 303 189 7 11 0

GFSSGP_con_mucape_009.txt.gz
CAPE
1297 1342 1577 1559 927 105 142 268 148 226 281 76 73 165 136 118 337 590 323 549 379 209 157 445 751 921 1161 1191 1931 2135 1848 1954 2106 2271 2333 2010 2249 2533 2418 2291 2296 2250 2208 1957 1873 1835 1812 1867 1782
1531 1730 2315 2149 652 97 130 185 174 255 92 98 236 210 180 242 285 404 383 281 272 184 180 383 1201 951 1082 1270 1321 1808 1408 1411 1660 1928 1757 1882 2034 2343 2179 2081 2137 2042 2015 1893 1745 1700 1821 1930 2050
2213 1743 1456 1250 20 82 209 252 343 304 324 246 299 304 256 265 346 481 555 407 306 250 306 667 1150 1028 998 1463 1548 1966 1628 1601 1646 1684 1739 1791 2072 2324 2032 2026 2082 2021 1936 1766 1698 1819 1845 1900 2115
1686 1499 1252 38 37 205 258 268 238 257 252 332 387 366 325 338 372 343 383 252 349 321 596 914 973 970 1116 1543 1969 1886 1969 2145 1943 1682 1763 2077 2298 2041 1838 2094 1986 1866 1807 1777 1799 1798 1899 2026 2113
1520 1003 533 1 4 77 360 290 268 313 321 384 469 512 458 533 485 446 496 267 474 780 535 479 1340 1088 1304 1660 1953 2051 1936 2003 1923 1826 2015 2319 2001 1931 1997 2094 1777 1656 1702 1872 1873 1972 1977 1889 2048
931 142 69 28 0 10 165 297 259 341 427 375 565 517 801 672 616 601 628 474 508 712 626 664 1370 1212 1417 1734 2037 1707 1974 2006 2287 2152 2208 2108 2069 2025 2088 1661 1646 1704 1784 1937 2058 1635 1641 1766 1771
725 437 70 38 6 4 23 80 172 246 354 474 666 869 784 759 784 665 775 583 576 917 994 1170 1230 1697 1965 2080 1915 1984 2014 2164 2209 2200 2155 2003 2041 1994 1785 1383 1359 1818 2008 1988 1964 1727 1667 1770 1749
329 50 79 181 26 0 0 52 23 132 344 421 729 891 855 999 909 893 876 864 702 1189 1199 1230 1421 1474 1806 1969 2145 1886 1943 1754 1632 1962 1883 1871 2028 1914 1428 1248 1838 1773 1635 1763 1893 1677 1764 1759 1803
0 56 178 85 66 12 0 8 8 138 179 241 409 714 797 915 1005 1090 1047 893 886 1158 1262 1206 1263 1937 2035 2050 2174 2179 1880 1363 1612 1824 1893 1714 1572 1590 1857 1849 1498 1827 1732 1746 1743 1726 1781 1715 1862
17 33 56 41 114 86 24 28 15 74 120 244 295 752 824 966 1010 1145 1034 1346 1112 1098 1222 1238 1622 1383 1394 1023 1727 1391 921 850 984 1084 1255 1348 1695 1994 1107 1700 1732 1736 1736 1679 1754 1791 1962 2086 1930
3 156 67 66 48 92 36 53 30 76 76 200 328 634 741 988 1036 1130 1018 1089 906 862 1160 1392 1857 2384 1470 1923 1166 1375 1298 1200 1155 1432 1634 1290 1453 1890 1395 1625 1880 2129 1889 1754 1947 1853 1842 1274 1192
0 6 20 72 10 99 67 89 41 6 57 99 331 483 628 951 1030 1007 1061 1063 1124 1071 1130 1157 1910 2163 2051 1889 1152 1236 1093 985 1020 1280 1809 1938 1733 1746 1414 2087 1943 2143 2146 1741 2343 1973 1298 1289 1295
0 5 5 4 10 23 189 145 35 11 7 97 366 409 542 856 1005 966 918 953 1079 1152 1251 1220 1346 1763 2265 2330 1227 1278 1247 864 879 1093 1574 1613 1341 2690 2086 2459 1524 1979 2025 1933 1765 1796 1509 1349 1610
1 2 0 3 10 5 141 76 135 25 10 202 517 468 526 658 841 967 917 897 947 986 1044 1130 1514 1907 2029 2320 2208 1779 1543 1723 871 962 1233 1856 1681 2447 1685 2884 2086 1908 1718 2675 1997 2328 1555 1944 1382
0 0 1 0 4 3 22 57 5 90 210 268 514 565 486 585 646 843 873 929 925 1027 1079 1162 1309 1759 2066 2072 2543 1725 1268 988 1143 878 1345 1512 1833 1825 2220 2126 2011 1294 2251 2028 2087 1960 2073 1538 329
0 0 16 65 6 6 5 107 136 169 176 233 400 614 536 552 553 772 820 858 955 1041 1216 1251 1099 1301 1780 2110 2403 1819 1449 1966 1536 1406 1730 1880 2085 2304 2352 1788 1734 2009 1698 2096 1918 1795 841 183 46
0 0 7 18 19 103 59 43 215 344 116 280 285 489 564 605 671 837 838 869 932 1196 1375 1426 1448 1350 2056 3380 2325 2051 2533 1605 2131 2261 1487 2384 3182 2649 2130 1873 1955 1908 2117 1318 1563 1312 1462 45 10
4 11 78 194 13 191 79 169 353 471 325 85 167 230 448 519 656 848 951 985 1038 1254 1497 1780 1603 2540 2896 2804 3966 1899 1596 1910 1838 1787 1406 1994 2084 2371 2155 1799 1788 2122 1698 1437 1353 994 202 78 57
12 64 38 60 23 85 163 173 312 529 494 229 176 110 267 398 631 767 1022 1068 1050 1283 1644 2497 2688 3818 2727 1884 2624 2011 1556 1838 1463 1251 3169 2586 2278 2681 1964 2073 2139 1799 2145 1729 441 167 115 16 82
0 27 69 42 30 46 139 195 342 734 491 506 340 186 145 237 370 762 1076 1078 1089 1415 1985 3197 3447 4157 3580 2491 2811 2493 1768 1408 1069 1412 2504 2144 2821 2493 2448 2670 1567 1599 831 495 191 94 15 16 114
0 7 45 79 144 129 160 128 176 246 685 554 405 395 254 180 142 634 915 1113 1208 1505 2277 3219 4163 4317 4152 3641 3483 3089 3014 2196 2296 1781 2301 2194 2408 2183 2470 2213 2187 1462 503 0 266 134 29 7 61
0 0 14 62 44 136 42 170 169 146 208 627 608 510 355 247 235 400 923 1230 1180 1585 1900 3328 4159 4419 4279 4192 3078 3543 2153 1554 847 1099 1027 1884 2719 2164 2247 2300 1169 924 55 542 129 27 88 96 20
0 0 14 35 141 174 63 111 75 74 158 266 571 676 470 286 351 360 750 1082 1162 1354 1641 2768 4273 4552 4515 4302 3799 2562 2637 1340 1206 774 2379 2257 3333 1595 1393 1269 963 348 0 189 320 39 168 205 6
0 0 23 30 70 102 155 112 149 36 142 206 243 572 761 517 370 623 572 907 1067 1215 1526 2534 4302 4700 4650 4583 3883 4090 4059 2792 1404 1442 1486 1620 1409 1611 1425 955 1003 358 34 235 247 168 101 68 159
0 0 16 59 66 40 84 149 145 166 117 88 95 139 459 785 391 491 810 890 1402 1872 2173 2671 4189 4734 4653 4350 4329 4389 4408 4387 3721 2736 1844 2082 678 949 2587 1791 1420 653 475 356 254 218 196 75 39
0 0 0 24 46 47 43 64 79 118 45 86 69 44 94 560 662 289 577 1160 1884 1773 2556 2801 3707 4612 4710 4404 4611 4629 4634 2667 2278 2864 2057 1178 831 919 2825 1735 1309 810 342 410 335 51 13 191 46
0 0 0 29 77 69 62 58 34 41 90 75 45 25 42 175 588 514 373 630 1365 1633 2466 2883 3740 4310 4436 3615 4760 4763 4635 4468 2722 3297 3714 1995 2157 904 880 1505 1203 898 231 401 205 34 337 63 73
0 0 0 13 104 88 78 79 61 71 37 8 40 14 22 52 473 628 459 528 1037 1137 1800 2693 3396 4113 3847 4038 4279 4181 4383 4664 4472 4732 4276 3271 2594 2445 2066 1888 1389 817 759 878 538 444 377 215 41
0 0 0 4 44 69 85 85 69 130 44 14 8 12 38 58 326 684 604 553 733 872 1417 2009 2645 3579 3838 3938 3937 4138 3896 4054 4551 4433 4247 4223 3343 3271 2343 2432 1923 1007 813 759 941 500 174 413 621
0 0 0 23 45 28 120 81 28 22 21 28 12 5 6 49 197 582 724 636 740 1110 1054 1299 1635 1915 2942 3573 4228 4282 4308 4219 4103 4569 4569 4281 3780 3527 2689 2351 1862 1081 588 202 871 548 365 128 175

GFSSGP_con_mucape_015.txt.gz
CAPE
754 686 498 428 354 58 109 110 152 28 28 14 70 252 153 197 16 0 34 41 57 110 213 552 1374 1732 1725 2190 2447 2611 2713 3004 3025 3093 3098 3144 2627 2624 2880 2471 2376 2581 2447 1815 1811 1863 1948 1742 1478
566 547 70 32 201 60 64 131 197 61 35 12 225 287 139 66 2 37 47 41 46 73 174 601 1618 1917 2166 2434 2609 2569 2345 2257 2782 2893 3121 3019 2650 2769 2467 2019 1987 1961 2223 1722 1786 1761 1823 1918 1693
768 869 583 166 164 210 135 123 29 222 166 126 165 263 170 69 54 60 16 14 10 49 207 747 1913 2082 2248 2191 2489 2483 2435 2221 2587 2700 3067 2965 2818 2375 1987 1936 1823 1739 2106 1830 1767 1801 1790 1841 1735
907 388 878 443 135 286 179 196 202 213 198 191 181 99 238 326 230 75 37 3 8 149 555 1628 1994 1814 2115 2366 2415 2234 2301 2260 2501 2588 2920 2817 2608 1992 1910 1685 1594 1543 1656 1834 1969 1770 1668 1709 1847
720 568 678 279 190 142 211 338 399 260 222 233 249 253 221 57 85 160 40 214 142 289 715 1273 2225 2506 2476 2366 2365 2509 2101 1984 2481 2671 2772 2712 2529 2028 1786 1539 1402 1477 1628 1820 1752 1451 1661 1507 1626
680 831 435 127 166 182 141 315 268 217 459 294 197 166 72 205 190 92 69 288 305 327 634 961 1970 2405 2729 2259 2129 2726 2360 2079 2558 2697 2586 2507 2513 2528 2058 1614 1379 1521 1707 1764 1667 1527 1581 1620 1550
235 89 58 45 27 255 235 315 285 238 379 383 181 260 205 149 110 158 155 356 379 206 429 916 1133 1591 2164 2814 2324 2367 2507 2477 2505 2718 2563 2305 2023 1922 1630 1423 1417 1550 1527 1657 1695 1454 1595 1713 1996
337 192 15 62 74 83 141 240 464 234 468 335 191 313 270 266 171 239 303 388 155 290 558 733 1088 1360 1902 1779 2141 1957 2162 2146 2101 2375 2084 2012 1649 1626 1627 1692 1712 1441 1372 1527 1648 2040 1845 1831 2386
493 126 85 44 55 8 53 381 415 523 482 367 368 250 361 323 266 331 391 367 461 567 615 742 1017 1295 1587 1461 1620 2025 1894 1949 2085 1966 2235 2009 1374 1239 1412 806 1686 1601 1633 1633 1193 2591 2378 2471 2910
30 10 26 34 47 6 94 345 348 618 522 382 406 452 441 458 376 328 371 488 658 711 825 880 976 1149 1209 1344 1561 1517 1414 1088 1156 1289 1194 1308 733 878 1628 1103 1409 1530 1554 859 463 1662 2897 2085 1437
8 1 13 7 14 25 8 0 11 427 530 338 342 643 617 616 366 386 467 526 751 657 787 1005 1253 1371 1056 996 1192 1372 1258 751 560 803 1043 883 1153 1027 862 347 796 681 68 187 779 1012 1622 1229 767
3 19 7 21 62 30 31 2 0 0 250 445 392 596 625 525 500 368 343 512 648 659 917 906 1198 1250 1152 1181 1065 1259 1059 550 587 976 1302 1577 1052 743 472 542 863 648 420 710 868 581 1096 1320 729
0 7 46 46 63 57 39 30 3 12 510 579 476 444 708 664 539 396 397 315 512 855 883 1003 1249 1182 1438 1129 697 958 884 740 777 1021 1492 1051 1184 922 748 799 887 646 512 730 881 1020 1160 1166 1065
0 0 27 21 129 78 60 63 37 97 670 646 575 431 730 708 635 603 555 438 452 939 971 957 1208 1479 1685 1527 1463 1111 1171 948 1008 1399 1382 1065 1419 1506 1396 1421 1236 1249 1102 1353 1550 964 871 1210 799
0 0 0 0 0 125 65 31 7 54 324 661 643 577 503 617 652 505 544 536 673 976 1023 1159 1266 1747 1550 1836 1435 1665 814 568 370 1013 1631 1439 1527 1582 1566 1251 1564 969 1525 1601 945 1024 991 413 342
0 0 0 0 0 5 94 47 42 10 185 486 558 618 630 573 430 530 380 530 695 939 1124 1371 1300 1565 1465 1642 1868 1526 955 870 865 1477 1515 1586 1610 1607 1753 1603 1186 951 1022 1172 1099 1165 944 518 121
0 0 0 0 0 1 29 17 0 7 65 130 267 370 508 551 492 449 491 623 533 813 1326 1348 1179 1158 1372 1399 1882 1358 1098 1687 1058 1391 1349 1971 1711 1718 1237 1692 1378 1126 1221 980 1033 658 455 30 0
0 0 0 0 0 0 1 18 0 2 15 49 117 118 186 353 456 469 301 447 552 1019 1191 1180 1273 1114 1040 1779 1392 1275 1342 1528 1403 1228 838 1428 1490 1932 1479 1135 1414 1322 1302 753 489 353 100 0 0
0 0 0 0 6 62 29 11 43 31 2 14 87 37 77 85 175 424 410 458 685 1209 1073 1052 1461 1340 1171 1709 1367 1373 1556 1673 1112 1045 1066 1522 1386 1507 1496 1607 1351 1697 1183 641 483 139 0 0 0
0 0 0 0 3 78 45 31 15 18 35 33 87 69 47 103 92 311 382 384 674 1128 986 894 953 2284 1592 1518 1362 1390 1638 1608 1104 897 1640 1597 1481 1786 1528 1278 1311 1428 1192 595 140 4 0 0 30
0 0 0 0 0 24 58 38 19 4 40 63 40 42 44 73 102 222 264 370 404 832 1166 1129 913 2304 2032 1943 1395 1378 1623 1834 1870 1451 2207 1932 1944 1826 1189 1508 1370 1119 869 486 192 0 0 0 64
0 0 0 0 0 65 54 56 15 170 278 118 76 2 24 58 100 174 289 373 358 870 1322 1250 1403 2124 1976 1942 1576 1322 1109 1108 1331 1533 1518 2100 2178 1844 1306 1500 1444 1065 886 522 23 45 0 104 0
0 0 0 0 0 6 0 3 29 127 19 0 116 18 9 7 52 128 415 353 476 776 1040 1722 1577 1728 1961 2013 1498 1413 1308 1039 1284 1691 1613 2080 2204 1782 1717 1636 1545 939 372 266 118 29 13 91 115
0 0 0 0 0 0 0 1 30 22 26 22 100 23 51 43 50 125 308 449 437 890 1388 1825 1965 1914 2306 1720 1977 1689 1680 1601 1359 1070 1829 1951 1833 1570 1964 1613 1297 764 42 138 77 82 79 84 38
0 0 0 0 0 0 0 0 0 88 30 79 140 79 130 62 99 110 253 560 547 950 1354 1885 2040 2083 2381 2009 1652 2193 1990 1608 1303 1360 1899 1867 1679 1716 1954 1519 1105 943 28 190 117 113 82 84 23
0 0 0 0 0 0 0 0 0 27 32 77 287 159 63 26 124 151 239 442 714 809 1348 1959 2196 2053 2374 2499 2184 1591 2340 1719 1260 1416 2061 1680 1606 1506 1383 1073 853 667 43 601 276 213 94 99 22
0 0 0 0 0 0 0 0 0 13 58 97 90 117 70 34 63 243 149 377 700 781 1532 1648 2585 2421 2575 2602 2658 2236 1898 2269 2046 1963 2044 1814 1555 1669 1432 907 675 511 341 74 401 280 68 226 98
0 0 0 0 0 0 0 0 0 7 53 98 86 57 26 13 172 224 182 383 696 830 1344 1578 2519 2616 2718 2314 2911 2728 2354 2033 2053 2477 2092 2099 1443 1561 1240 1124 773 742 509 196 469 201 176 28 157
0 0 0 0 0 0 0 0 0 0 142 80 62 41 51 55 92 189 198 432 825 955 1300 1637 2171 2697 2828 2861 2612 2985 2767 2549 2101 2476 2538 1709 1853 1233 1167 1095 1062 710 530 371 445 249 107 153 19
0 0 0 0 0 0 0 0 0 0 138 154 85 54 53 21 62 225 327 392 980 1108 1130 1583 2578 2696 2917 3075 2941 2975 3015 2990 2618 2267 2293 2204 1700 1719 1448 1081 1271 1100 685 369 419 317 161 31 195

GFSSGP_con_mucape_018.txt.gz
CAPE
488 348 278 251 353 64 47 135 109 68 28 52 71 180 2 26 0 0 0 0 9 53 125 566 1396 2024 2189 2415 2771 2849 2915 2666 3086 3176 2706 2218 2252 2323 2289 2085 2040 1981 1847 1824 1870 2115 1920 1682 1535
677 357 180 67 226 72 77 115 110 61 74 84 122 49 36 23 0 10 7 2 66 142 312 797 1829 2090 2030 2451 2713 2788 2445 2339 3099 2999 2689 2318 2270 2252 2027 1957 1862 1795 1810 1871 1840 1809 1947 1921 1732
507 97 18 89 148 87 60 117 83 53 244 191 213 32 6 11 3 0 0 48 61 144 533 933 2059 2236 2159 2323 2539 2659 2553 2062 2605 2667 2159 2059 2083 1961 1856 1785 1722 1749 1808 1830 1830 1805 1824 1895 1731
925 297 204 865 131 123 113 131 146 158 177 131 92 110 45 46 52 26 25 0 39 208 630 1469 2073 1558 1947 2191 2285 2064 2031 2043 2351 2789 2171 2024 2069 1877 1681 1593 1546 1688 1868 1896 1662 1684 1610 1764 1958
791 612 333 248 283 165 120 178 286 184 246 180 134 242 123 93 25 34 0 14 96 405 800 1070 1973 2211 2287 2120 2005 2067 1871 1768 2315 2725 2065 1915 1988 1786 1622 1447 1496 1680 1791 1867 1611 1451 1653 1551 1735
524 626 233 150 98 182 222 294 276 259 302 181 90 40 39 33 32 0 0 66 258 617 972 1235 1938 2316 2259 2009 1807 2062 1734 1730 2150 2387 2217 2104 2052 1902 1492 1421 1500 1681 1859 1834 1628 1520 1666 1767 1523
62 46 29 22 192 261 351 331 337 296 310 155 82 50 68 103 102 67 91 182 235 701 1023 1335 1461 1341 1686 2475 2008 1987 1843 1758 1968 2164 2097 2235 1940 1782 1340 1250 1447 1584 1636 1682 1732 1594 1770 1702 1553
279 61 9 0 47 201 324 356 339 291 317 261 214 197 193 203 91 212 214 307 236 536 823 1207 1428 1464 1930 1933 2184 2176 2073 1886 1954 2109 1950 1833 1748 1617 1575 1425 1530 1579 1342 1676 1833 1874 2262 1732 1814
685 34 0 0 6 238 265 338 429 374 291 333 348 206 193 147 141 220 335 352 248 366 742 1018 1308 1554 1806 1704 1641 2113 2148 2045 2038 1982 1999 2113 1323 1192 1467 1119 1506 1544 1697 1097 494 1606 2539 2357 2217
654 45 3 9 25 129 286 347 507 298 269 349 341 251 186 198 224 264 399 425 230 398 483 882 1232 1460 1482 1484 1375 1552 1544 1651 1704 1686 1487 1532 850 906 1578 1366 1220 1517 1443 715 1401 1900 2323 1652 844
41 2 3 2 50 156 410 468 455 328 283 382 331 307 234 254 276 403 449 300 388 450 579 656 930 1190 1209 1124 1361 1266 1188 993 990 956 740 838 796 1080 1145 681 821 573 37 192 520 859 837 1092 935
0 0 5 63 56 19 375 551 540 459 460 365 441 371 274 275 369 373 397 431 542 582 725 710 794 893 883 798 1350 1081 915 668 322 426 698 717 737 809 727 388 643 658 248 597 499 573 981 1154 634
0 0 5 67 59 55 177 466 666 525 459 481 436 438 354 317 188 213 361 505 634 650 788 814 919 921 792 782 678 714 936 591 280 354 699 1007 861 708 496 658 704 729 487 532 743 845 1091 1093 986
0 0 0 5 27 42 29 31 254 373 454 763 620 550 475 534 223 188 255 526 692 676 727 892 972 954 783 911 725 593 781 651 398 483 863 1078 882 804 644 759 1037 925 938 802 1121 947 666 624 271
0 0 0 0 0 8 35 31 489 554 507 844 751 630 611 531 372 237 217 374 683 651 785 778 977 982 881 1078 914 571 667 723 717 662 1103 1129 1217 1107 1117 1235 1181 985 1192 1263 763 890 823 181 25
0 0 0 0 0 30 36 29 541 696 618 594 798 694 645 534 648 480 282 312 406 654 780 792 1030 964 1074 1069 525 1236 1178 663 804 877 1095 1031 1104 1290 1226 1284 769 878 919 911 889 870 863 125 15
0 0 0 0 0 54 66 76 115 732 649 609 544 734 732 726 741 622 454 497 429 765 767 732 925 948 890 1104 1260 1161 1032 827 1006 1062 1028 1019 1073 1432 1249 1098 1000 919 978 810 925 702 378 18 3
0 0 0 0 0 50 69 66 27 766 716 635 581 522 609 673 764 685 534 514 480 771 793 833 741 855 890 1049 1603 1030 951 906 950 974 1104 1289 1412 1298 732 1077 1133 904 1104 884 733 239 98 0 0
0 0 0 0 0 3 11 46 40 348 635 661 631 559 482 522 609 546 488 341 505 674 822 994 863 819 861 1004 1426 999 668 792 992 1075 884 1485 1479 1458 941 888 1290 1193 1045 620 401 86 0 0 0
0 0 0 0 0 0 6 27 37 48 265 406 469 482 500 424 382 471 451 451 485 645 949 1001 868 727 753 1006 1037 949 726 852 970 1092 906 884 1020 1233 1007 1051 1153 1184 1099 641 442 9 0 0 0
0 0 0 0 0 0 9 46 4 0 30 75 176 230 311 336 315 338 381 428 457 742 849 920 938 833 925 1016 944 947 892 1309 1416 1355 957 1067 1034 1145 1248 1357 931 942 1124 889 280 17 0 0 30
0 0 0 4 0 0 8 9 44 5 0 20 47 77 142 165 129 187 354 300 445 608 776 744 1124 1088 1065 1123 1006 1004 777 1205 1402 1468 1227 1529 1304 1219 1402 903 1012 803 804 629 448 0 1 3 4
0 0 0 0 0 0 0 4 4 24 7 0 1 84 108 96 69 40 212 305 284 545 621 683 866 1450 1357 1244 1116 1008 873 1043 1064 1115 1282 1577 1594 1407 1323 1019 1001 857 741 600 207 29 3 33 0
0 0 0 0 2 0 0 0 0 0 15 20 5 83 80 64 69 6 105 194 256 369 692 637 562 1582 1642 1473 1281 1122 1016 898 722 759 1210 1428 1712 1671 1311 1172 1218 886 662 257 23 1 0 57 69
0 0 0 0 0 0 0 0 0 0 0 0 25 16 81 104 72 10 30 128 164 254 645 846 768 796 1598 1606 1496 1398 1203 1091 837 607 876 1317 1745 1690 1424 1283 1324 958 704 366 47 24 17 1 27
0 0 0 0 0 0 0 0 0 0 1 0 36 31 29 156 101 43 29 142 139 270 689 1148 1007 897 1385 1572 1495 1403 1306 1113 959 801 851 1354 1427 1514 1320 1349 1146 990 730 517 56 43 25 26 2
0 0 0 0 0 0 0 0 0 0 0 5 25 31 51 167 117 12 11 97 207 274 789 1097 1315 1163 1468 1461 1465 1520 1414 1199 1144 1253 1414 1582 1471 1342 1287 1326 1381 1184 854 364 132 130 59 74 28
0 0 0 0 0 0 0 0 0 0 0 10 26 20 87 179 103 14 15 135 298 270 785 1148 1492 1411 1610 1758 1510 1421 1571 1654 1472 1512 1291 1513 1611 1477 1208 1431 1561 1041 729 428 284 165 164 78 80
0 0 0 0 0 0 0 0 0 0 0 0 0 27 86 300 187 94 103 143 242 395 798 1326 1531 1486 1712 1944 1875 1728 1443 1364 1826 1798 1599 1530 1632 1538 1349 1281 1196 912 679 575 507 282 182 129 9
0 0 0 0 0 0 0 0 0 0 0 0 11 87 142 311 259 156 153 212 183 563 829 1270 1794 1682 1745 2007 2061 2047 1984 1741 1552 1643 1893 1976 1899 1554 1410 1454 1339 951 797 700 597 391 200 141 18

GFSSGP_con_mucape_021.txt.gz
CAPE
324 310 152 158 208 11 53 115 51 1 13 86 36 6 17 0 1 0 1 0 13 0 140 558 1254 1877 1990 2336 2600 2435 2482 2285 2406 2246 2100 2004 2111 2132 2062 2013 1937 1856 1806 1797 2161 2008 1833 1669 1560
365 233 94 70 76 21 53 108 92 74 74 99 86 47 85 11 9 0 5 0 0 79 224 654 1361 2203 1866 2233 2412 2579 2247 2268 2231 2137 2200 2156 2159 1985 1895 1830 1744 1786 1845 1820 1830 1905 2054 1753 1596
463 8 37 64 31 35 46 91 71 173 261 259 47 67 27 36 10 0 0 33 8 170 413 730 1577 2218 1800 1986 2240 2448 2644 2117 2024 2031 2077 2117 1979 1822 1733 1675 1708 1774 1797 1864 1887 1841 1831 1735 1627
116 225 151 180 98 109 136 131 113 305 152 210 122 56 52 0 1 1 42 57 83 379 674 1123 1875 1652 1669 1791 1842 1918 2059 2197 2076 1995 2020 2065 1895 1748 1615 1576 1598 1778 1846 1885 1663 1753 1677 1802 1542
509 437 220 162 92 167 91 189 216 198 171 53 101 33 24 41 21 35 89 41 118 583 846 1108 2093 2109 1904 1690 1665 1613 1717 2121 2275 2007 1952 2060 1811 1681 1519 1397 1547 1668 1933 1927 1614 1616 1673 1527 1438
435 311 304 52 108 105 102 308 239 226 177 87 48 32 86 61 35 53 52 32 234 546 907 1221 1655 1777 1787 1684 1740 1646 1620 1920 2181 2054 1930 2017 1943 1629 1524 1462 1541 1760 1776 1827 1682 1626 1660 1404 1423
183 131 76 42 263 242 276 279 284 159 87 45 31 44 87 77 74 42 72 119 290 741 918 1112 1033 1163 1597 1845 1685 1695 1596 1770 2089 1981 1975 1921 1997 1673 1452 1258 1489 1405 1598 1663 1755 1678 1549 1483 1514
160 52 9 159 281 183 339 353 316 146 184 68 73 61 67 118 97 85 129 173 423 895 1084 1157 1033 991 1292 1411 1678 1692 1643 1691 1912 1917 1916 1863 1749 1607 1616 1289 1490 1622 1417 1751 1845 1725 1692 1553 1462
412 112 1 5 4 278 353 406 289 273 170 104 241 108 74 145 126 139 186 178 480 726 1113 1283 1222 1075 1595 1620 1635 1916 1873 1735 1836 1851 1862 2080 1487 1283 1433 1336 1370 1553 1697 1205 1018 1181 2090 1846 1564
936 159 27 2 0 378 414 435 334 294 256 266 230 170 194 190 203 168 224 209 325 479 866 1166 1317 1371 1578 1620 1650 1702 1643 1551 1660 1647 1618 1709 989 859 1375 1364 1603 1526 1807 438 1446 1986 1921 1389 641
390 252 1 6 10 406 464 463 437 345 311 252 155 220 223 170 224 222 297 278 199 384 586 900 1277 1450 1432 1378 1376 1501 1538 1575 1617 1461 1227 1117 766 624 1611 773 611 781 30 132 429 653 731 990 640
2 13 12 3 61 426 479 528 543 345 280 279 193 183 169 174 200 295 344 319 160 307 414 691 1025 1238 1242 1103 1226 1319 1315 1190 965 826 697 419 640 751 1174 446 366 488 319 359 443 506 850 867 601
0 0 0 0 1 320 460 601 602 472 532 348 272 198 189 216 206 265 301 399 295 331 400 512 811 945 1047 761 1089 1002 960 810 486 180 334 595 629 619 789 401 437 561 298 435 446 629 970 1003 851
0 0 0 0 0 45 524 649 631 506 598 488 369 249 265 251 254 283 347 396 362 443 545 543 594 672 773 512 558 836 693 581 308 142 483 661 858 671 486 395 689 753 775 693 792 929 694 546 198
0 0 0 0 0 14 421 589 663 579 613 592 473 345 326 276 279 317 388 343 396 515 631 647 628 586 557 418 390 307 333 493 403 269 790 607 844 983 706 645 946 912 922 847 737 688 698 181 40
0 0 0 0 0 0 12 104 578 629 641 603 508 460 370 287 300 262 361 388 474 540 617 679 843 737 572 537 562 404 244 384 493 518 490 821 831 976 915 961 1083 673 1075 909 786 810 729 195 7
0 0 0 0 0 0 0 0 409 479 708 636 597 579 469 372 446 309 257 369 472 552 601 658 811 777 677 636 744 846 982 1025 709 706 766 842 935 1055 1045 991 709 822 800 752 822 735 477 163 3
0 0 0 0 0 0 0 0 454 465 756 758 701 676 610 500 541 510 397 237 396 551 568 657 749 791 762 654 806 1036 1060 776 448 646 782 869 1008 1076 1199 957 884 815 886 809 776 732 151 4 0
0 0 0 0 0 0 0 3 430 489 521 790 749 726 667 554 567 638 571 341 358 424 574 592 702 796 740 757 874 672 748 938 802 899 882 954 934 1042 1142 702 980 815 925 859 655 330 21 0 0
0 0 0 0 0 0 0 0 11 440 464 539 680 744 693 670 555 567 652 484 358 394 568 579 653 653 781 615 839 941 914 850 715 856 826 947 1084 1163 1122 769 987 1009 1086 753 441 187 7 0 0
0 0 0 0 0 0 0 0 0 395 429 496 521 527 558 589 568 614 657 535 442 339 539 597 618 605 541 506 711 1067 905 693 602 630 1012 757 1166 1330 1206 912 916 1065 1063 838 520 231 8 0 12
0 0 0 0 0 0 0 0 0 18 476 515 532 497 464 404 368 467 601 554 469 365 463 590 657 616 542 482 580 691 691 634 710 722 831 948 815 806 1022 946 1107 985 820 762 764 264 0 0 10
0 0 0 0 0 2 0 0 0 0 21 310 378 448 458 398 247 317 471 528 468 342 508 659 679 646 637 456 580 591 535 491 610 1091 1206 1223 973 935 967 957 1127 722 738 1015 698 299 0 0 0
0 0 0 0 0 0 0 0 0 0 0 0 57 149 212 248 231 231 248 358 395 357 494 657 681 687 685 552 666 737 738 601 587 961 1247 1281 1266 1349 1235 1070 1091 826 625 525 418 94 5 6 0
0 0 0 0 0 0 0 0 0 0 0 0 0 9 45 63 117 150 179 212 311 370 580 588 563 771 745 689 712 823 890 720 665 786 1107 1062 1171 1490 1423 1244 1147 1028 875 537 287 2 0 0 15
0 0 0 0 0 0 0 0 0 0 0 0 0 2 0 0 36 63 89 113 203 279 482 579 574 854 969 953 890 859 956 875 791 762 740 602 1148 1390 1405 1475 1236 1141 960 569 459 28 4 3 1
0 0 0 0 0 0 0 0 0 0 0 0 0 0 1 6 27 31 87 58 78 146 268 539 532 615 1195 1192 1088 970 915 926 881 884 911 860 916 1296 1470 1461 1356 1250 1135 775 651 146 30 31 0
0 0 0 0 0 0 0 0 0 0 0 0 0 0 0 3 14 43 60 88 59 113 146 492 577 525 772 1256 1155 1039 968 948 969 987 990 812 902 1159 1232 1418 1443 1252 1160 1000 802 261 36 23 12
0 0 0 0 0 0 0 0 0 0 0 0 0 0 0 0 0 31 81 126 129 73 91 375 672 630 602 993 1135 1101 1068 1082 1097 1077 1029 950 1184 1331 1346 1304 1406 1134 1073 1224 904 368 198 52 56
0 0 0 0 0 0 0 0 0 0 0 0 0 0 0 0 14 33 93 128 129 91 114 435 678 798 745 958 1069 1095 1170 1235 1197 1119 1131 979 1153 1345 1517 1506 1429 1237 1229 1410 901 591 524 375 110

GFSSGP_con_mucape_024.txt.gz
CAPE
274 375 169 206 135 26 41 99 46 6 9 37 6 8 19 20 24 14 18 6 2 14 206 440 1229 1917 2240 2452 2674 2422 2214 2057 2362 2371 2100 1947 1910 1919 1931 1865 1779 1711 1720 1895 1871 1735 1603 1527 1479
237 228 44 30 52 27 50 76 64 32 64 33 31 18 41 40 19 14 8 0 0 41 255 350 1027 2231 2152 2265 2548 2529 1878 1907 2063 2179 2197 2093 1949 1825 1763 1712 1725 1887 1879 1804 1753 1611 1651 1538 1410
375 38 37 53 18 22 18 77 113 85 151 153 37 43 12 37 1 0 0 5 12 73 316 466 1669 2311 2051 2062 2436 2712 2330 1910 1984 2029 2088 1934 1823 1694 1631 1669 1773 1792 1876 1844 1739 1692 1358 1500 1222
182 217 192 123 39 48 69 79 140 178 177 156 38 45 23 4 0 3 13 26 54 196 463 1167 1809 1742 1919 2072 2246 2227 1877 1793 1856 1973 1982 1875 1755 1623 1592 1636 1736 1865 1958 1682 1641 1574 1607 1346 1271
556 279 198 239 106 134 76 97 252 124 62 106 40 1 0 42 19 20 29 63 154 444 594 965 2098 2089 1883 1845 2037 2012 2004 1910 1930 1979 2044 1859 1711 1580 1456 1511 1689 1890 1926 1710 1590 1621 1484 1404 1451
250 234 126 95 88 101 210 175 174 160 107 50 10 2 53 44 34 53 32 94 371 522 776 1212 1845 1755 1724 1664 1618 1696 1945 2115 1956 1899 2018 1907 1728 1586 1509 1540 1698 1836 1861 1754 1578 1641 1521 1354 1705
171 134 90 86 221 186 174 221 208 179 112 43 29 66 81 41 67 57 22 180 412 729 920 1166 1167 1452 1653 1615 1559 1531 1690 2001 2019 1976 1887 2005 1872 1548 1389 1379 1602 1525 1720 1731 1613 1596 1506 1476 1533
401 143 75 124 277 219 271 272 254 123 99 40 56 41 105 39 89 72 62 202 489 754 894 1005 1046 1150 1272 1351 1658 1581 1535 1821 1942 1969 1907 1885 1746 1587 1617 1264 1621 1785 1606 1181 1646 1662 1535 1484 1488
577 286 29 20 185 126 281 301 321 177 69 72 95 92 45 93 91 120 122 187 553 808 909 951 892 977 1177 1258 1312 1622 1580 1587 1790 1781 1828 1832 1501 1241 1503 1492 1422 1680 1787 1397 1099 1460 1909 1649 1665
959 410 3 0 0 184 358 395 300 190 50 143 183 69 101 97 117 154 129 144 360 540 897 917 895 906 1233 1468 1343 1358 1337 1339 1392 1558 1525 1754 1115 803 1572 1694 1679 1571 1788 310 1417 1966 1727 1191 536
772 510 84 0 0 217 410 440 314 196 106 191 215 109 136 117 145 169 150 137 249 409 739 957 987 989 1234 1430 1475 1567 1505 1491 1391 1444 1390 1244 846 478 1196 1082 574 927 345 262 456 546 780 919 267
251 12 220 4 83 408 445 480 413 348 214 238 122 134 166 150 162 176 174 123 170 310 581 866 1026 1087 1182 1259 1330 1414 1379 1436 1351 1270 1088 716 611 655 900 865 442 415 353 230 535 718 840 750 409
98 7 0 0 3 314 406 470 465 416 396 337 156 201 193 176 171 183 193 201 128 240 435 682 945 1106 1114 1059 1125 1130 1160 1167 1043 824 556 374 344 402 654 780 255 426 382 370 366 648 860 1067 702
0 0 0 0 0 1 279 434 509 481 409 279 279 224 206 169 220 209 211 273 174 179 282 453 730 991 1063 973 833 908 924 846 671 349 124 346 567 611 529 560 403 553 591 569 635 842 701 594 201
0 0 0 0 0 0 185 391 519 557 482 384 269 215 188 144 215 227 245 291 265 173 184 322 485 689 812 811 535 588 673 536 404 201 147 531 590 739 780 400 516 755 803 777 546 645 744 102 13
0 0 0 0 0 0 255 233 525 592 586 481 343 202 202 187 182 210 246 259 325 243 306 351 403 462 539 508 395 151 390 373 260 243 295 536 562 576 915 733 703 875 774 838 670 657 805 409 19
0 0 0 0 0 0 140 62 166 604 609 522 440 256 248 233 208 203 259 280 324 305 407 463 434 412 373 317 249 212 79 37 157 375 365 491 651 700 768 799 786 848 749 742 701 693 459 308 21
0 0 0 0 0 0 114 29 24 553 635 527 512 362 292 252 228 242 258 310 311 311 404 485 542 531 413 258 275 291 307 345 315 539 611 613 681 835 847 833 859 560 755 710 620 692 421 0 2
0 0 0 0 0 0 0 3 200 407 558 583 541 439 359 327 231 207 213 252 259 291 400 472 565 607 582 394 398 441 469 791 1003 678 427 580 674 872 883 896 835 690 603 764 664 455 93 0 0
0 0 0 0 0 0 0 0 107 297 448 505 487 473 443 390 345 277 326 205 188 271 352 447 491 576 625 450 467 550 586 775 848 524 680 737 734 830 875 932 841 741 640 832 592 317 105 0 0
0 0 0 0 0 0 0 0 0 252 354 480 469 507 510 478 455 378 371 349 223 139 294 375 469 521 603 524 492 634 688 625 591 765 683 683 785 895 850 823 910 785 851 925 687 365 116 0 0
0 0 0 0 0 0 0 0 0 4 304 355 492 552 550 549 491 393 371 370 395 250 182 299 359 454 527 565 472 534 574 533 526 772 683 733 731 852 879 999 1036 773 949 867 675 588 194 0 0
0 0 0 0 0 0 0 0 0 0 240 373 363 430 538 547 511 489 398 335 371 449 289 236 306 383 410 523 513 461 556 593 560 594 503 468 717 682 1021 1160 1090 886 945 767 565 658 335 0 0
0 0 0 0 0 0 0 0 0 0 24 292 353 368 394 377 438 464 427 353 315 450 474 343 303 339 389 438 522 398 400 407 465 456 464 424 638 774 789 771 829 908 1004 549 676 771 311 0 0
0 0 0 0 0 0 0 0 0 0 0 4 173 276 340 388 411 354 351 280 304 405 439 413 361 392 408 421 435 448 354 386 329 359 494 555 802 1019 936 899 971 1005 1099 766 578 407 158 0 0
0 0 0 0 0 0 0 0 0 0 0 0 0 0 38 110 269 353 346 262 182 278 375 365 383 411 442 425 404 425 449 404 478 486 444 555 807 1056 1140 1235 1222 1093 1173 936 727 304 90 0 0
0 0 0 0 0 0 0 0 0 0 0 0 0 0 0 0 1 98 223 282 145 135 199 315 411 433 474 490 460 415 495 449 534 639 614 567 684 910 971 1088 1250 1182 1261 1073 836 434 344 7 1
0 0 0 0 0 0 0 0 0 0 0 0 0 0 4 0 0 1 9 63 100 90 133 251 388 406 487 565 550 529 526 518 524 664 784 719 674 820 936 1077 1293 1311 1375 1209 1061 708 603 120 14
0 0 0 0 0 0 0 0 0 0 0 0 0 0 5 0 0 0 1 6 14 32 69 201 359 421 440 745 753 759 712 637 608 663 775 825 776 804 877 1027 1223 1266 1390 1344 1225 894 800 354 12
0 0 0 0 0 0 0 0 0 0 0 0 0 0 0 0 0 0 0 2 11 13 17 74 335 395 420 851 969 963 895 792 730 703 748 816 857 933 959 889 1130 1117 1263 1458 1222 1051 1005 611 256

GFSSGP_con_mucape_027.txt.gz
CAPE
320 411 246 123 371 57 81 114 36 23 24 47 19 26 51 93 27 89 31 23 5 83 281 453 1308 1678 1863 2065 2516 2651 2515 2192 2263 2317 2177 1891 1863 1905 1876 1803 1692 1804 1931 1820 1775 1683 1639 1489 1382
499 301 121 70 256 116 113 150 19 40 126 85 79 78 95 29 28 50 61 10 14 102 159 389 1542 2040 1891 2286 2696 2606 1996 1971 2055 2032 1973 1845 1861 1826 1725 1755 1945 2039 1955 1649 1631 1640 1518 1519 1376
360 110 85 169 134 124 117 174 58 164 141 84 97 78 80 46 34 31 33 19 35 129 316 661 1838 2415 2266 2391 2487 2547 2330 1976 2031 2028 1955 1826 1721 1629 1660 1792 1915 2092 1981 1768 1806 1526 1437 1383 1224
311 48 148 253 91 143 148 204 266 230 139 107 78 64 7 31 15 39 39 24 69 182 315 1275 2010 1787 2227 2363 2377 1971 1935 1957 1971 2050 1858 1741 1579 1588 1699 1778 2013 2103 1897 1656 1653 1657 1563 1314 1251
303 504 357 217 76 213 174 266 325 216 145 116 47 2 37 62 34 41 51 33 98 167 515 1230 2139 2312 2342 2335 2252 1876 1780 1890 1995 1980 1897 1797 1588 1525 1550 1718 1889 1962 1805 1654 1652 1530 1494 1505 1649
677 276 155 96 89 213 265 346 303 286 151 45 8 24 85 96 62 81 85 54 153 248 599 1082 1925 2121 2167 2244 1996 1965 1847 1931 1982 2033 1947 1818 1699 1599 1579 1702 1891 1884 1750 1601 1637 1567 1364 1498 1785
291 163 118 74 167 239 311 353 348 304 119 50 49 79 90 94 118 142 136 108 206 374 658 855 1174 1540 1734 1821 1790 1890 1983 1978 1934 1913 1990 1971 1696 1533 1372 1592 1594 1679 1700 1581 1607 1555 1490 1452 1833
431 119 126 92 393 305 428 372 326 211 114 42 53 90 60 143 146 174 223 230 364 545 709 886 917 1069 1200 1416 1530 1601 1819 1936 1981 1908 1816 1839 1677 1578 1678 1267 1791 1576 1427 1384 1599 1462 1387 1412 1460
561 346 127 14 231 92 439 504 228 134 97 74 92 54 78 181 181 209 320 360 592 644 741 750 880 1359 1610 1447 1404 1493 1500 1739 1840 1759 1787 1643 1577 1708 1633 1665 1454 1720 1582 1505 1328 1615 1706 1461 1647
1000 443 114 4 15 62 474 537 366 217 107 125 167 110 131 205 217 235 329 408 495 614 765 701 701 1043 1273 1047 1529 1650 1322 1022 1207 1332 1727 1710 1747 1733 1820 1876 1713 1851 831 566 1537 1653 1712 1360 855
1049 312 231 9 0 100 544 515 407 310 153 201 244 189 205 206 211 173 219 264 279 323 467 672 795 1122 1060 897 1228 1477 1371 1417 1399 1768 1791 1633 1594 1496 1606 1776 1362 1576 593 422 1172 1340 1503 1324 524
492 322 90 11 0 381 573 572 487 302 110 135 301 198 249 262 238 193 196 259 262 318 356 496 697 1086 1131 1115 1120 1320 1381 1363 1269 1227 1852 1621 1371 1621 1782 1822 1396 1556 1237 1078 1531 1525 1781 1519 1395
419 31 0 6 0 3 514 620 619 501 315 337 361 234 228 218 242 232 194 211 261 287 337 523 771 1108 1244 1373 1128 1285 1596 1297 1127 1341 1277 1130 911 1313 1566 1932 1497 1340 1493 1170 1373 2075 1655 1783 1192
0 0 0 0 0 0 274 305 573 637 508 479 364 295 219 207 250 247 246 219 265 291 381 545 804 1030 1206 1256 1364 1369 1531 1259 1355 964 834 1138 1145 1546 1528 1734 1514 1406 1680 1586 1408 1946 1701 529 282
0 0 0 0 0 0 0 123 477 578 549 492 373 367 304 269 205 320 391 481 374 405 544 713 880 1064 1410 1362 1296 1259 1185 994 882 741 954 835 1207 1754 1943 1658 1371 1526 1909 1972 1521 1551 1610 507 16
0 0 0 0 0 0 0 0 75 627 654 631 400 396 398 356 390 483 563 614 628 486 638 756 662 888 1248 1351 1368 1117 872 792 653 595 632 817 1049 1711 1935 1860 1517 1647 1772 2047 1662 2009 1752 1076 24
0 0 0 0 0 0 10 0 19 658 703 743 496 458 471 471 449 584 567 581 654 686 672 715 773 769 1004 1231 1157 1052 728 741 558 607 693 879 1238 1645 1820 1835 1832 2008 1716 1718 1566 1448 1218 398 59
0 0 0 0 0 0 13 1 17 638 702 777 661 529 521 469 430 447 535 544 644 742 816 789 792 860 1059 1004 1024 789 613 389 421 512 619 1215 1496 1717 1967 1782 2069 1890 1520 1588 1436 1522 560 96 141
0 0 0 0 0 0 0 0 53 611 735 800 748 642 573 578 507 483 448 547 603 732 905 1072 1147 1311 1066 929 787 622 477 432 730 1104 1300 1413 1656 1861 2150 1877 2135 1875 1654 1736 1685 1038 612 54 33
0 0 0 0 0 0 0 0 7 448 732 830 855 754 649 688 645 591 559 583 656 780 1029 1389 1454 1647 1471 1132 1178 720 766 513 1189 1649 1767 1705 1753 2013 2117 2140 2056 1910 1582 1815 1611 997 240 38 55
0 0 0 0 0 0 0 0 0 165 468 734 859 834 693 760 779 680 581 537 685 861 1179 1525 1911 2078 1805 1724 1197 1042 1061 1248 1441 1636 1668 1690 1958 2121 2221 2222 2043 2031 1900 1716 1724 937 419 54 161
0 0 0 0 0 0 0 0 0 0 324 510 742 826 844 809 835 772 690 604 594 1097 1041 1616 1766 2097 1674 2058 1614 1813 1117 873 1117 1501 1642 1768 1932 2070 2164 2262 2025 2113 1846 1948 1705 819 420 131 95
0 0 0 0 0 0 0 0 0 0 23 356 606 786 803 823 894 858 804 863 763 751 795 1268 1882 2052 2095 2178 2041 1704 1791 1213 1294 1335 1993 2708 2193 2038 2042 2238 2176 2213 2044 2015 1560 782 503 240 39
0 0 0 0 0 0 0 0 0 0 0 162 459 671 863 834 906 939 896 897 793 679 549 901 1704 1891 2065 1992 2069 2302 2307 1903 1381 1459 1402 1409 1546 1645 1996 2186 2444 2461 2142 2130 1782 1103 752 376 134
0 0 0 0 0 0 0 0 0 0 0 0 120 521 681 860 938 974 976 918 1141 1140 1085 984 1549 1744 1913 1910 1970 2104 2208 2382 2282 2071 1503 1724 1379 1418 1952 2154 2257 2151 2176 2004 1688 1290 780 550 282
0 0 0 0 0 0 0 0 0 0 0 0 0 179 519 659 778 954 1269 1381 1372 1245 1242 1157 1383 1628 1785 1766 1920 2054 2170 1763 1861 1921 1440 1398 1357 1481 2016 2238 2257 2198 2063 1778 1395 1197 829 416 453
0 0 0 0 0 0 0 0 0 0 0 0 0 0 235 603 721 754 1100 1336 1313 1393 1234 1334 1452 1656 1707 1666 1762 1827 1956 1950 1825 2033 2140 1468 2137 1486 1925 2290 2386 2372 2083 1796 1374 938 725 364 422
0 0 0 0 0 0 0 0 0 0 0 0 0 0 0 33 411 667 989 1110 1162 1051 1311 1254 1439 1659 1761 1754 1716 1622 1736 1863 1908 2007 2010 2020 2149 2156 1951 2323 2423 2396 2146 1848 1574 1237 783 535 341
0 0 0 0 0 0 0 0 0 0 0 0 0 0 0 0 55 190 736 1142 1200 842 1068 1191 1422 1687 1821 1827 1812 1766 1727 1754 1900 1921 2001 2089 2255 2320 2319 2321 2303 2305 2183 1860 1684 1540 1022 712 688
0 0 0 0 0 0 0 0 0 0 0 0 0 0 0 22 98 101 170 431 660 1135 986 1194 1325 1550 1746 1832 1931 1888 1912 1872 1832 1903 1973 2081 2215 2194 2522 2465 2357 2231 2190 2003 1736 1659 1203 949 851

GFSSGP_con_mucape_030.txt.gz
CAPE
132 302 343 537 309 571 225 133 137 70 173 106 138 145 311 190 43 567 115 264 79 87 422 772 1493 1553 1567 2327 2517 2683 2351 2142 2019 1991 2022 1889 1955 1923 1864 1677 1837 1981 1901 1856 1810 1712 1500 1444 1571
293 216 306 238 569 314 308 288 131 281 237 183 170 167 217 34 25 127 161 331 223 317 199 836 1508 1985 1980 2170 2679 2672 2002 1981 2106 2066 1974 1976 1959 1857 1777 1906 1955 1573 1823 1771 1691 1595 1536 1499 1239
610 182 252 582 319 246 247 297 412 318 186 229 348 432 419 67 65 75 169 275 341 58 554 1081 1549 2092 2127 2367 2608 2637 2202 1953 2074 1999 1942 1908 1792 1774 1795 1824 2045 1917 1818 1893 1748 1451 1510 1364 1185
394 172 144 824 207 201 215 290 389 589 357 242 322 348 112 157 161 154 136 189 143 439 600 1320 1898 2006 2233 2266 2188 1965 1970 2010 2070 1956 1831 1705 1688 1793 1827 2126 1997 1986 1728 1753 1688 1652 1535 1376 1130
286 619 724 357 156 283 308 371 496 399 408 408 351 143 47 61 101 97 97 173 485 499 633 1230 2295 2438 2473 2191 2071 2014 2007 2055 2068 1922 1858 1703 1644 1666 1780 2005 1914 1860 1710 1668 1598 1538 1554 1639 1513
1155 457 423 103 113 336 454 470 453 500 509 320 254 198 217 169 125 80 150 234 336 532 490 892 2053 2316 2679 2273 1942 1877 1925 2038 2076 2035 1905 1804 1676 1677 1745 1900 1899 1823 1640 1618 1593 1469 1472 1801 1717
913 408 273 153 245 197 496 508 450 539 408 215 235 323 324 231 165 210 250 239 306 485 328 528 793 1675 2108 2189 1968 1899 1935 2006 2084 2078 1952 1754 1607 1530 1524 1662 1659 1753 1648 1663 1620 1551 1505 1607 1762
996 476 318 288 271 325 576 541 471 409 353 232 258 289 321 220 252 285 287 399 354 443 301 466 682 985 1361 1596 1935 1989 1995 2010 1963 1891 1900 1862 1721 1645 1712 1474 1810 1608 1390 1496 1634 1558 1438 1464 1620
992 754 275 190 254 337 666 648 472 251 248 229 242 301 415 438 315 338 309 374 356 389 276 364 522 836 1109 992 1343 1679 1804 1863 1875 1835 1758 1645 1940 1856 1774 1517 1696 1642 1401 1393 1804 1774 1737 1474 1828
934 535 156 43 10 67 583 655 627 367 261 288 341 374 458 545 374 421 437 595 536 515 303 284 431 648 866 613 1064 1087 749 602 952 994 1381 1793 1960 1987 1640 1796 1650 1881 287 1237 1655 1517 1606 1557 173
614 357 72 9 0 33 582 724 744 373 261 360 592 592 586 598 721 694 611 679 854 777 353 273 490 770 762 687 998 998 852 752 1094 1560 1838 1935 1767 1808 1817 1742 1407 1455 582 1217 1543 1526 1314 495 174
377 115 76 27 0 0 255 687 751 572 198 343 623 610 689 696 731 747 761 778 880 826 517 345 445 782 780 693 755 750 696 736 548 671 1586 1791 1811 1813 1933 1533 1402 1330 1099 1479 1420 1222 1329 878 663
330 23 0 7 0 0 0 366 501 650 490 434 623 598 681 753 756 734 726 709 733 710 674 600 631 938 906 930 566 462 714 689 431 682 1097 1434 1460 1716 1769 1883 1484 1628 1514 1355 1290 1026 1199 1241 1237
0 1 0 0 0 0 0 96 327 463 703 684 700 671 684 695 701 666 591 606 603 573 512 513 679 964 1052 1092 1142 993 1070 766 772 480 485 1274 1435 1804 1721 1618 1470 1488 1609 1615 1783 1194 1337 762 448
0 0 0 0 0 0 0 9 158 283 881 906 762 725 703 724 701 691 619 600 596 503 461 508 724 840 1177 1334 1504 1399 931 868 654 408 685 1105 1570 2171 2527 2149 1604 1486 2021 1470 1549 1123 1024 530 133
0 0 0 0 3 0 0 12 44 280 901 1034 920 728 658 664 611 667 587 510 487 493 581 704 638 801 1176 1309 1469 1097 879 839 469 224 539 1109 1332 2051 2457 1741 1349 1828 2063 1387 1489 1079 784 399 125
0 0 0 0 7 2 0 2 9 202 741 956 1046 797 713 706 674 616 500 449 498 640 797 1031 1045 982 1290 1606 1511 1335 1081 865 326 213 558 1011 1392 1773 2375 2081 1870 2304 1714 1687 1253 1149 1040 269 164
0 0 0 0 0 3 0 0 4 284 464 766 1035 936 900 835 761 674 579 648 904 1001 1037 1286 1281 1347 1592 1580 1732 1316 896 541 337 365 513 912 1520 1718 2383 2010 1625 1604 1532 1446 1373 1094 849 356 166
0 0 0 0 0 0 0 0 0 100 437 645 1055 1027 1012 984 843 701 744 787 898 1066 1250 1373 1430 1829 1695 1602 1374 1048 590 379 287 425 782 1310 1939 2271 2720 2203 1964 2158 1633 1536 1387 1247 1089 226 131
0 0 0 0 0 0 0 0 1 34 478 586 967 1088 1143 1106 927 792 765 797 797 1025 1221 1603 1602 2092 2039 1629 1728 901 585 321 342 552 1237 1932 2149 2544 2654 2738 2092 2072 1721 1985 1903 1449 627 228 2
0 0 0 0 0 0 0 0 0 1 248 522 762 956 1074 1180 986 920 740 741 747 958 1247 1705 2099 2336 2204 2216 1600 1204 755 618 629 932 1737 2324 2504 2523 2890 2515 1792 2301 2338 1833 2165 1792 1161 139 21
0 0 0 0 0 0 0 0 17 6 50 192 504 887 973 1219 1180 1084 863 843 806 1015 1247 1675 2372 2408 2480 2375 2170 2674 992 657 662 1134 1525 1788 2292 2420 2524 2570 2486 2862 2091 2012 2639 1821 1242 1153 12
0 0 0 0 0 0 0 0 0 0 0 0 104 440 853 1041 1190 1252 1072 891 942 1011 1183 1499 2473 3190 3191 2974 2882 2084 2123 930 704 852 2667 3344 2636 2425 2170 2592 2836 2852 2643 2336 2610 2033 1887 1062 54
0 0 0 0 0 0 0 0 0 0 0 0 27 238 764 949 1140 1253 1312 1090 968 1056 1245 1418 2832 3255 3271 2926 2526 3228 3362 2578 1229 1722 1467 1510 1655 2036 2375 2400 2881 2912 2707 2640 2716 2470 1931 1611 515
0 0 0 0 0 0 0 0 0 0 0 0 0 17 643 973 1048 1215 1403 1415 1184 1100 1284 1417 2426 2974 3100 2486 2805 2781 3148 3312 3135 2721 1892 2260 1339 1204 2735 2650 2779 2667 3118 2732 2771 2779 2041 1975 1208
0 0 0 0 0 0 0 0 0 0 0 0 0 0 171 724 1061 1169 1379 1540 1583 1398 1737 1678 2429 2929 2697 2554 3586 3695 3809 2356 2419 2813 1913 1764 1455 1621 1759 2305 2509 2660 2674 2881 2769 2649 2256 1739 1551
0 0 0 0 0 0 0 0 0 0 0 0 0 0 0 349 1048 1242 1312 1481 1693 1870 2404 2520 2899 3420 2990 2477 3596 3910 3667 3487 2300 3333 3196 2102 2851 1737 1832 1992 2521 2496 2683 2794 2892 2525 2378 1488 1526
0 0 0 0 0 0 0 0 0 0 0 0 0 0 0 207 955 1171 1318 1392 1595 1765 1888 2321 2876 3152 3256 2791 3018 2962 3316 3751 3570 3724 3772 3336 2836 2787 2282 2181 2333 2466 2710 3006 3067 2545 2394 2051 1370
0 0 0 0 0 0 0 0 0 0 0 0 0 0 0 94 718 903 1044 1208 1416 1649 1873 1995 2274 2835 2903 3003 3244 3171 2857 3023 3321 3482 3680 3756 3082 3571 3013 3072 2550 2399 2801 3062 3194 3077 2413 2358 1929
0 0 0 0 0 0 0 0 0 0 0 0 0 0 0 22 76 187 545 875 1152 1478 1677 1941 1960 2028 2464 2874 3360 3408 3443 3308 3041 3425 3498 3710 3723 3456 3790 3340 3251 2792 2659 2986 3010 3008 2399 2489 2232

GFSSGP_con_mucape_033.txt.gz
CAPE
96 216 253 172 473 462 504 321 108 193 167 284 162 464 278 425 560 138 7 25 1 18 244 448 1556 1787 1665 2233 2674 2233 2039 2220 1992 2054 1932 1939 2044 1774 1721 1904 1963 1938 1857 1853 1796 1542 1479 1603 1480
31 393 572 704 395 328 238 149 187 246 335 245 322 329 328 139 212 299 14 0 22 75 218 305 1870 2047 2037 2331 2458 2461 2018 2026 2167 1991 2040 2084 1980 1796 1879 1936 1721 1915 1840 1747 1640 1564 1521 1307 1218
143 423 441 608 910 124 285 267 472 363 322 253 511 478 564 135 186 462 127 228 97 183 646 1064 1752 1930 2151 2235 2270 2260 1923 2074 2000 1926 1978 1870 1852 1681 1764 1677 1880 1834 1911 1824 1494 1547 1415 1207 1044
475 357 294 333 158 254 257 229 628 477 400 414 439 417 404 243 244 386 211 145 474 467 538 1236 1668 1889 2005 2021 2088 1866 1829 2033 1980 1788 1683 1734 1923 1963 1981 1765 1950 1679 1758 1712 1708 1667 1531 1378 1209
501 493 805 580 147 200 268 480 524 317 465 445 631 486 375 200 269 323 229 408 146 645 817 1321 2074 2305 2241 1997 1909 1861 1936 2073 1847 1736 1652 1725 1753 1781 2041 2022 1863 1725 1669 1653 1579 1580 1683 1684 1595
1173 1081 592 168 108 197 295 380 394 492 542 440 700 370 472 293 231 387 286 155 559 545 376 1330 2004 2281 2237 1882 1886 1948 1975 1964 1912 1833 1742 1721 1732 1798 1950 2017 1909 1694 1635 1607 1540 1503 1729 1739 1716
1112 648 284 73 61 95 274 306 291 421 460 537 435 648 393 302 245 287 254 390 494 245 348 879 1161 1639 1895 2063 1794 1826 1885 1950 2010 1919 1809 1681 1617 1584 1697 1735 1833 1770 1724 1696 1651 1545 1566 1787 1694
1027 493 318 242 10 95 44 148 156 395 505 491 643 642 493 429 175 225 315 367 514 303 163 327 593 975 1225 1336 1702 1750 1848 1904 1997 1996 1888 1820 1763 1787 1521 1830 1728 1609 1539 1495 1623 1471 1466 1635 1859
739 605 452 52 32 135 67 12 94 236 408 456 427 715 643 402 261 343 278 339 422 272 140 109 354 770 1120 1037 1563 1767 1778 1821 1784 1755 1825 1740 2325 2056 1937 1847 1588 1396 1378 1440 1712 1789 1692 1684 1858
484 94 320 71 36 110 207 39 28 193 279 399 605 818 562 595 627 464 410 409 551 270 153 164 339 506 693 428 1110 1036 838 821 1073 1303 1398 1279 1971 1783 1653 1458 1661 1760 623 1356 1512 1249 1659 2081 1051
326 255 292 37 17 210 208 144 46 90 249 409 798 870 674 708 608 427 534 477 639 355 251 284 376 557 467 1021 469 640 444 651 1065 1572 1860 1423 1653 1800 794 1099 1052 1438 940 848 1116 1207 1524 303 487
123 234 125 38 9 36 194 236 292 112 57 404 722 843 815 731 718 732 794 788 821 574 278 253 407 760 505 661 486 490 465 522 589 1083 1879 2302 1508 1538 1378 1637 1568 1440 1538 1557 1514 1257 1373 1422 1037
72 138 94 86 24 24 61 329 381 372 105 265 695 876 940 907 864 878 877 945 929 618 357 276 469 1341 1307 923 534 528 465 379 327 766 1503 1669 1957 2001 1822 1624 1754 1614 1741 2019 1795 1352 1444 1093 878
50 62 99 27 31 4 1 182 323 628 426 578 670 856 913 919 968 1056 926 876 905 725 520 400 504 918 1022 1382 1147 645 575 564 440 435 862 1657 1701 1630 1950 1654 1926 1919 2043 1308 1287 1359 1260 1128 750
51 0 14 30 0 0 0 64 254 539 780 741 711 824 884 965 968 954 876 803 787 765 645 634 687 882 1047 1193 1230 1048 711 574 493 446 711 1305 1646 2074 2187 1665 1528 2105 2532 1609 1640 1362 1611 577 251
0 1 0 0 0 0 0 46 74 266 761 945 843 697 774 908 939 895 832 794 721 734 886 758 558 792 1099 1287 1450 1117 758 609 519 318 536 1232 1665 2186 2445 1784 1436 2049 1846 951 2006 740 380 735 29
0 0 0 7 0 0 0 6 42 183 512 858 1008 841 675 819 870 912 793 744 726 793 984 887 779 707 1097 1929 1496 1310 1820 806 514 229 301 1718 1548 1848 2493 1214 1177 2288 1963 1404 653 1077 756 46 48
0 0 4 15 55 1 4 4 10 107 372 588 1016 1021 842 710 769 829 778 691 666 728 807 1369 967 2108 2608 1859 2275 1308 873 794 499 215 209 2150 1614 1804 2390 2334 2091 1592 1901 1831 1370 1262 272 389 18
0 0 1 55 64 25 40 73 42 103 229 409 873 1075 981 856 661 649 711 624 576 658 886 1868 1960 2830 2158 1653 1410 1267 818 890 350 288 909 1117 1398 2003 2487 2324 2759 1864 2488 1684 1351 1306 914 688 25
0 0 1 10 51 17 56 56 66 70 150 301 755 943 1022 1056 890 618 669 542 553 993 1745 2552 2813 3513 2966 1970 2285 1523 1531 418 251 205 1481 1190 1616 2150 2557 2953 2358 2226 1648 1886 1936 1420 1253 37 0
0 0 0 0 11 25 10 26 33 51 88 244 568 972 909 1104 1117 850 654 590 589 1158 2049 2590 3218 3524 3159 2930 2569 2345 1649 1281 389 457 629 1455 1989 2232 3457 2545 2250 2464 2560 3146 2250 1603 1042 265 0
0 0 0 0 1 26 0 12 18 13 40 186 369 865 924 1001 1153 1109 686 648 617 1045 1520 2755 3397 3571 3383 3477 2262 2604 1175 625 406 653 533 1423 2762 2280 2473 2477 2032 2848 2162 2768 2244 1784 1605 1262 60
0 0 0 0 0 1 0 27 28 37 31 60 168 579 746 974 1154 1176 1009 678 643 851 1107 1975 3512 3768 3534 3464 3256 2158 2075 640 470 484 1862 2456 3676 2594 2041 3206 2890 3157 2774 3384 2420 2358 2162 1094 529
0 0 0 0 0 0 0 0 0 18 35 56 64 135 449 630 1039 1241 1240 911 632 677 931 1967 3500 4094 4069 4080 3645 4043 2723 2229 815 907 977 1214 1381 2328 3464 2722 3743 3848 3516 2553 2756 2856 2406 2096 898
0 0 0 0 0 0 0 0 0 1 6 20 26 69 132 424 814 1186 1330 1186 1092 1134 1431 1991 3283 4039 4171 4198 3790 3676 4049 3743 4044 3087 1079 1563 1146 1012 2948 3754 3646 2877 3868 3103 3534 3892 2783 2338 1810
0 0 0 0 0 0 0 0 0 0 0 4 41 37 75 239 812 1119 1329 1454 1609 1639 2075 2248 3171 4022 4154 3999 4109 4011 4292 2773 2367 2769 1536 1275 1167 1141 2760 3858 3465 3433 3530 3310 4009 3024 2711 2842 1998
0 0 0 0 0 0 0 0 0 0 0 0 1 0 25 199 623 931 1279 1489 1998 1884 2412 2567 3137 3788 4039 3666 4080 4260 4188 4034 3007 3303 3564 2521 2690 1331 2928 3542 3601 3579 3578 3862 4082 2681 3537 3026 2374
0 0 0 0 0 0 0 0 0 0 0 0 0 0 0 47 410 867 1173 1416 2002 1792 2254 2678 3004 3598 3841 3477 3820 3960 4210 4301 4018 4118 4237 3249 3415 3617 3627 3149 3271 3471 3765 3927 4317 3227 3633 3546 1986
0 0 0 0 0 0 0 0 0 0 0 0 0 0 0 0 173 722 1153 1344 1673 1773 1806 2386 2836 3499 3829 3763 3768 3859 4000 4060 4269 3952 4196 4174 4186 4402 3761 4087 3664 3708 3792 3985 4382 3978 3703 3624 3309
0 0 0 0 0 0 0 0 0 0 0 0 0 0 0 0 80 657 1153 1137 1320 1684 1809 2082 2503 2528 3662 3785 3880 3864 4021 4010 4049 4225 4028 4308 4407 4201 4405 4284 4201 3972 3808 3980 4255 3998 2588 3707 3201

GFSSGP_con_mucape_036.txt.gz
CAPE
43 10 106 174 412 426 140 158 84 52 217 294 301 456 210 408 202 193 4 0 0 43 202 657 1659 1675 2290 2496 2498 2450 2642 2414 2552 2436 2315 2514 2179 2357 2403 1927 2057 2072 1930 1799 1556 1548 1645 1578 1549
48 150 481 617 224 155 248 212 180 219 242 416 302 217 201 185 0 4 0 0 0 0 103 397 1827 2177 2195 2482 2483 2468 2086 2157 2464 2102 2587 2495 2093 2305 1944 1797 1934 1785 1730 1680 1607 1544 1373 1270 1446
90 408 337 519 309 38 280 298 233 312 293 386 570 516 242 234 5 0 0 0 0 0 77 1174 2124 2123 2048 2313 2478 2428 2445 2236 2045 2097 2235 2056 2026 2004 1744 1875 1779 1846 1790 1516 1573 1485 1295 1148 1192
182 383 233 127 132 148 399 237 276 471 431 487 435 520 250 170 32 0 0 0 0 54 384 1437 1847 1901 2232 2484 2377 2295 2232 1962 2205 1965 1690 1924 1897 1907 1801 1920 1670 1745 1731 1763 1764 1673 1557 1321 1224
587 600 351 184 160 305 382 511 341 318 330 546 551 227 260 336 0 0 0 0 4 404 863 952 2379 2538 2494 2365 2263 2210 2002 1805 1885 1764 1711 1760 1799 2018 2037 1828 1753 1707 1723 1665 1695 1795 1760 1647 1535
727 74 107 213 168 307 307 248 535 367 582 668 392 139 159 169 62 99 4 119 496 532 688 1064 2100 2380 2388 2166 2176 2325 2004 1680 1713 1653 1669 1688 1831 2047 2097 1962 1768 1694 1657 1612 1579 1686 1768 1752 1575
123 7 19 68 165 296 331 277 319 311 429 550 380 569 268 312 102 32 390 158 386 323 729 1073 1558 1779 2010 2317 1967 1878 1805 1762 1833 1717 1703 1707 1646 1777 1900 2137 2031 1788 1743 1650 1521 1511 1650 1667 1714
729 203 217 393 45 19 142 180 180 481 485 766 467 391 407 372 236 313 213 355 231 174 396 1074 1428 1033 1207 1384 1717 1679 1695 1816 1862 1788 1696 1618 1563 1431 1671 2555 2337 1786 1653 1499 1459 1362 1379 1734 2016
274 230 300 191 40 3 16 115 265 306 447 652 801 451 349 335 206 232 482 584 352 329 305 460 406 1129 1654 1496 1491 1628 1617 1734 1820 1678 1634 1576 2293 2084 1614 2350 2104 1380 1401 1317 1430 1414 1596 2224 2301
246 41 4 119 22 143 31 14 84 177 232 808 624 480 290 275 315 269 291 543 324 40 47 199 422 870 1109 544 1686 1829 1317 1294 1573 1215 103 521 1724 1636 1711 1712 2276 1621 903 1154 1746 1379 1758 2027 1418
165 122 12 22 50 98 39 10 94 57 217 858 677 460 339 402 375 704 450 466 338 96 0 207 748 1138 780 1055 1229 1207 1139 1236 1234 557 434 234 984 1149 2026 1350 1399 1880 1326 933 11 309 1153 1643 1353
136 90 70 35 49 48 39 21 26 60 164 873 715 485 474 402 485 479 443 512 478 115 161 226 790 1331 1087 1000 516 900 728 795 1456 1285 1099 919 852 815 921 2024 2033 1810 987 664 787 1093 1635 822 737
42 101 92 17 64 206 39 117 110 105 370 658 766 625 589 612 582 546 583 516 664 359 302 428 860 1585 2295 2119 708 728 1321 932 1108 2023 2555 927 1219 1446 1364 1787 745 1838 1385 873 1351 1862 1301 2121 1047
50 135 75 92 104 16 48 162 48 34 126 470 764 708 667 598 602 971 828 769 762 684 413 964 1065 1541 2524 2352 2923 1843 2169 845 1289 948 1916 2759 1781 1985 2290 2711 1655 1834 1436 880 1879 2934 2029 542 1099
17 38 70 71 43 30 2 46 240 140 213 400 692 806 773 644 906 916 1141 1148 914 795 630 973 1166 1201 2252 2274 2157 2281 2028 490 1039 1429 2483 2231 2543 3019 1369 2646 2426 2483 3008 2891 2671 794 1087 772 255
7 24 39 55 65 17 0 0 87 366 446 474 556 661 877 821 579 937 1140 1076 1237 715 977 914 307 908 1298 1751 2206 2037 1273 1543 1645 1557 1743 2270 2299 2951 3494 2387 1653 963 1699 2694 1027 2237 1101 1207 1030
15 11 37 65 27 5 0 0 19 386 412 662 560 516 610 976 827 1010 662 905 796 1000 1344 1275 999 1065 1245 2075 1944 1631 1903 2081 1865 1874 1726 2589 2762 2748 2950 2211 947 2343 2656 2239 2099 1878 1094 1212 709
2 0 10 21 16 1 2 0 34 27 364 690 851 622 675 690 831 935 730 765 860 1390 1574 1577 1303 1999 1846 1760 2012 1764 1494 1840 1697 1873 1665 2519 2691 2739 3205 2303 2520 3000 2759 1740 1726 2341 1569 1044 696
0 0 0 10 13 8 0 0 34 49 65 442 884 903 713 677 781 981 835 783 911 1287 1636 1499 1859 2435 1938 1705 1685 1749 1244 1592 1701 1840 2216 2906 2769 2991 3644 2161 1141 2410 2550 2692 2530 2014 1330 891 276
0 0 0 0 25 19 34 24 53 56 52 23 620 963 869 615 652 947 888 767 772 1097 1547 1703 1810 2429 2297 1925 1898 1706 1990 1461 1311 1393 2457 2532 2448 3187 3365 2908 2527 2614 1149 2680 2188 2155 1666 1113 328
0 0 0 1 2 10 12 40 96 63 41 110 487 834 945 892 732 868 897 787 723 1204 1517 1758 1943 2739 2631 2292 2534 2835 2739 2771 1581 1150 1650 1897 2528 2958 3077 2890 2845 2636 2619 2227 2270 2434 2551 1069 271
0 0 0 0 12 29 65 69 99 56 52 103 133 702 796 1042 1045 827 964 898 782 1092 1373 1947 2185 2498 2782 2774 2229 2557 1499 1188 1152 1089 1279 1614 2079 2820 2861 2891 3504 3389 2579 2717 2893 3121 2718 1987 320
0 0 0 0 0 3 4 35 62 41 44 67 216 569 720 996 1079 1044 860 909 805 1029 1637 2049 2436 2614 2915 2258 2983 2265 2039 1404 1099 1519 1917 2305 2635 3006 3050 3031 3322 3690 3350 2962 2500 3222 2920 2675 1846
0 0 0 0 0 0 0 7 34 35 35 72 109 246 883 914 1127 1393 1056 993 862 1081 1785 2124 2741 2717 3026 2931 2407 3322 2186 2018 1176 1183 1735 2144 2801 2708 3467 3234 3162 3598 3343 3478 2953 3417 3512 3115 2751
0 0 0 0 0 0 0 0 0 1 37 48 54 270 850 951 1107 1499 1408 1126 982 1149 1587 1938 2957 2912 2852 3025 2472 2288 3456 2133 2829 2925 1071 1518 1638 2388 2802 3464 3419 3040 3172 3412 3647 3457 3754 3250 2900
0 0 0 0 0 0 0 0 0 0 0 2 60 110 324 700 791 1417 1630 1382 1159 1144 1452 1786 2778 2930 3018 2964 3079 2446 3268 2685 1733 3106 1533 1198 1643 1714 2952 2781 3180 3075 2954 3206 3919 3747 3302 3148 2792
0 0 0 0 0 0 0 0 0 0 0 0 11 95 174 341 541 1258 1650 1638 1385 1177 1438 1725 2405 2944 3179 2854 3391 3291 2441 3351 2558 2353 2794 2568 1997 2227 3502 2905 3130 2856 3265 3519 3810 2997 3453 3547 2871
0 0 0 0 0 0 0 0 0 0 0 0 0 8 82 218 488 1099 1527 1832 1648 1366 1431 1651 2315 2792 3214 3325 3138 3296 2841 3051 3165 2680 2955 2248 2984 2420 3742 3135 3026 3194 3068 3677 3509 3338 3479 3261 2893
0 0 0 0 0 0 0 0 26 0 0 0 0 0 62 230 479 903 1572 1742 2009 1682 1658 1679 1931 2804 3220 3281 3249 3218 3330 2828 2931 3051 3115 3763 2763 4141 2962 3801 3214 3270 3295 3313 3603 3117 3012 3577 3044
0 0 0 0 0 0 0 13 0 0 0 0 0 0 8 206 678 830 1351 1683 2024 2091 1892 1960 2046 2469 3060 3534 3438 3144 3238 3512 3341 2906 3175 3483 4098 3182 4257 3687 3381 3411 3162 3294 3285 3316 2545 3323 3051

GFSSGP_con_mucape_039.txt.gz
CAPE
39 0 42 155 606 98 93 76 130 109 166 261 78 389 237 77 97 1 0 0 0 48 580 1456 2113 2320 2129 2498 2536 2345 2478 2273 2436 2697 2452 2192 2098 2333 1903 2032 1991 2056 1756 1654 1723 1794 1683 1697 1376
35 51 263 181 215 97 171 172 129 262 299 165 201 197 140 33 36 2 0 0 15 92 556 1275 2098 2298 2415 2492 2749 2463 2126 1743 2325 2802 2525 2283 2356 2333 1966 1953 1887 1819 1828 1731 1645 1501 1431 1578 1608
59 259 228 210 242 47 160 235 320 324 255 269 284 126 177 0 0 0 0 0 0 71 520 1168 2324 2454 2405 2594 2530 2638 2464 2014 2545 2639 2314 2305 2568 2056 1858 1885 1974 1810 1880 1732 1600 1418 1307 1262 1259
93 328 264 194 41 94 62 221 334 362 579 533 271 114 41 0 0 0 0 0 0 81 873 1994 2195 1889 2405 2241 2260 2134 1889 2033 2286 2354 2377 2260 2561 1953 1840 1832 1891 1887 1924 1884 1764 1643 1356 1238 1202
335 327 243 87 57 144 92 276 436 447 488 430 185 158 24 0 0 0 0 0 3 583 991 1471 2542 2509 2584 2149 2020 2266 1907 1717 2132 2396 2107 2074 2136 2046 1883 1850 1876 1880 1805 1819 1850 1779 1694 1582 1247
274 69 12 82 65 165 252 266 486 452 567 556 299 147 77 2 0 0 0 0 188 556 819 1457 2293 2391 2517 1859 1810 2350 1737 1716 2198 2319 1827 1881 2108 2565 2146 1913 1857 1811 1739 1679 1768 1837 1719 1552 1315
5 58 6 65 111 143 194 281 632 552 409 294 141 203 4 0 0 0 0 0 381 491 894 1441 1597 1549 1800 2296 1882 1987 1704 1876 2044 2086 1906 1882 1802 1890 2137 2201 2411 1831 1786 1681 1630 1688 1777 1620 1522
74 0 0 5 119 209 117 150 273 570 526 309 377 145 1 0 0 0 57 292 587 635 917 1393 1388 1276 1472 1634 1843 1729 1707 1910 1833 1790 1702 1626 1489 1556 1771 2224 2426 1920 1757 1643 1628 1816 1558 1757 1615
218 19 88 31 33 66 214 384 539 596 465 547 569 319 25 14 22 102 116 303 326 539 761 1130 1133 1028 1145 1227 1367 1652 1720 1868 1948 1884 1494 1092 1071 1242 1354 1872 2239 1586 1510 1457 2002 2253 1940 2041 1798
347 117 13 19 19 6 69 272 407 640 611 501 501 249 98 27 130 188 120 207 238 416 567 828 669 646 773 907 1182 1231 1300 1486 1549 1325 9 357 571 1004 1455 1691 2164 1656 1165 1548 1777 1415 1361 1223 1382
237 127 4 40 55 53 32 90 220 550 420 277 264 262 309 162 107 162 249 338 154 226 269 278 391 595 541 775 910 1041 972 1091 1023 163 0 83 336 675 895 887 1428 1281 1075 743 269 420 715 1162 813
121 101 155 69 44 15 3 27 88 685 559 356 360 333 267 206 204 262 409 250 95 43 32 65 468 599 461 434 589 864 786 785 833 392 55 184 7 490 648 936 976 1101 601 408 547 705 909 464 611
46 178 170 69 30 47 23 13 486 714 620 411 277 262 202 298 213 243 312 278 42 0 0 16 345 493 536 227 241 600 539 480 845 597 385 276 408 714 814 1140 766 785 565 550 918 923 1004 576 474
7 64 105 25 55 89 57 84 276 718 626 390 329 207 214 244 206 245 295 310 72 9 0 153 271 659 351 282 86 86 726 347 1181 1037 836 630 628 958 1059 1387 1135 932 720 646 1074 1094 985 460 437
0 32 169 125 68 56 53 78 37 672 600 427 420 278 241 241 250 257 183 314 173 120 0 141 154 805 577 733 708 909 630 229 651 1029 1455 1285 1327 1027 1034 844 1168 919 944 916 1316 138 680 378 329
2 9 4 39 33 54 67 128 160 417 618 494 524 422 410 338 245 272 166 226 283 279 234 191 167 816 798 828 574 943 562 696 589 968 942 1069 1214 1826 1173 1117 966 1036 1389 1479 1305 991 305 412 170
0 1 1 11 34 65 12 8 101 91 452 565 526 530 447 429 490 520 200 251 193 219 298 284 210 557 960 687 841 570 726 819 874 967 803 872 1041 1761 1648 836 788 994 1450 1118 575 1159 636 327 294
0 0 0 1 43 43 14 0 153 132 342 343 499 602 508 536 526 557 432 354 178 121 281 296 319 233 521 752 1084 494 417 777 899 743 705 1027 1163 1555 1572 1204 809 1319 1030 960 464 300 128 111 17
0 0 0 0 7 26 18 1 230 315 254 368 419 513 646 540 448 497 547 432 330 359 253 119 438 490 279 1021 789 1024 464 638 787 361 1124 1297 1388 1592 1502 1442 955 1256 1133 1001 992 422 459 115 0
0 0 0 0 0 27 0 0 8 287 404 374 461 410 476 609 516 417 236 417 436 488 504 332 789 812 493 827 524 768 1063 620 766 335 1352 1479 1566 1631 1556 1461 1101 1370 1255 1268 1166 1023 528 405 0
0 0 0 0 0 14 7 0 12 277 409 204 360 718 631 547 493 427 219 213 453 532 490 599 598 1074 723 807 842 911 989 846 827 444 350 1543 1437 1886 1640 1430 1463 1457 1162 1007 1196 1012 1009 0 0
0 0 0 0 0 0 3 1 2 72 180 303 375 155 421 396 413 456 304 276 315 683 602 507 732 1518 1006 1136 1096 931 777 913 1060 405 237 892 1239 1399 1761 1587 1312 1530 1329 1148 1018 1193 955 59 0
0 0 0 0 0 0 1 5 7 23 73 74 351 415 505 415 462 448 366 374 245 546 766 610 724 1256 1401 1188 1159 1269 1070 1074 632 517 248 798 733 1229 2109 1648 1771 1579 1790 1305 1072 1835 871 758 196
0 0 0 0 0 0 0 3 0 1 0 19 84 531 531 597 565 440 446 378 348 604 826 866 770 979 1382 1359 1449 1117 1342 916 861 341 214 1084 1038 1380 1892 2151 1816 1726 1765 1423 1495 1708 1229 993 1234
0 0 0 0 0 0 0 0 0 2 8 18 45 310 600 688 530 450 526 521 476 622 678 1033 1000 998 1547 1360 1083 1736 1165 1168 670 651 367 837 1746 1531 1938 2196 1844 1913 2020 2024 1411 1865 2015 1388 1301
0 0 0 0 0 0 0 0 0 0 0 1 50 176 556 693 454 578 612 664 586 574 749 1235 1257 1281 1570 1774 1222 902 1816 1473 921 1406 683 553 1275 1680 1491 2295 1923 1903 1787 1878 1995 1983 2048 1820 1234
0 0 0 0 0 0 0 0 0 0 0 0 0 63 541 649 678 763 708 710 731 722 1019 1118 1598 1390 1557 1823 1768 1209 1125 2226 1454 633 1529 1272 813 1236 1629 1873 2383 1885 1681 1650 1954 2475 1934 2347 1742
0 0 0 0 0 0 0 0 0 0 0 0 0 0 268 577 743 983 847 782 792 800 890 1247 1762 1718 1717 1742 1939 1828 1198 1108 2286 1443 752 1910 811 732 1499 1864 2058 2086 1877 1883 2003 2663 2485 2110 2195
0 0 0 0 0 0 0 0 0 0 0 0 0 0 70 530 773 1125 998 864 850 876 851 1091 1500 1974 1951 1934 1763 1998 1769 1219 1690 2132 1221 1795 1551 1624 1292 2144 2028 2031 2100 2283 2242 2191 2452 2616 2335
0 0 0 0 0 0 0 0 0 0 0 0 0 0 0 390 507 1226 1189 1026 977 949 895 1022 1207 1916 2034 2139 1921 1991 2221 2021 1391 2019 2455 970 2244 1464 2434 2454 2178 2331 2067 2057 2699 2364 2246 2184 2409

GFSSGP_con_mucape_042.txt.gz
CAPE
17 2 21 92 310 40 70 49 140 173 209 101 8 45 43 14 32 0 0 0 5 691 1092 1550 2241 2335 1991 2082 2412 2502 1996 2018 2415 2237 2472 2535 2066 2213 2271 2337 1957 1820 1889 1938 2039 1932 1878 1131 1491
0 21 198 283 190 76 25 42 149 215 236 238 191 124 73 3 0 11 0 0 101 882 1135 1303 2339 2343 2209 2272 2342 2481 1993 2342 2233 2207 2539 2415 2151 2419 2003 2044 1983 1959 1870 1861 1785 1755 1848 1628 1006
19 149 162 71 60 13 93 67 133 194 210 202 96 127 45 17 0 0 0 0 288 779 1210 1377 2407 2402 2385 1981 2297 2118 2141 2005 2056 2026 2137 2516 2337 2020 2168 1984 1902 1926 1845 1759 1649 1596 1521 1500 1245
63 316 260 182 46 76 188 262 288 298 325 291 99 36 0 7 0 0 0 0 328 688 1109 2137 2348 1857 2006 1863 2181 1814 1902 1834 2076 2151 2303 2435 2249 1947 2038 2019 2001 2000 1909 1769 1708 1457 1371 1404 1253
129 198 99 59 49 69 58 174 253 343 389 183 109 2 0 0 0 0 0 0 211 789 1364 1720 2471 2576 1982 1961 1725 1786 1720 1703 2000 2218 2158 2361 2101 2000 2055 2080 2008 1982 1954 1928 1821 1721 1590 1362 1364
138 0 0 4 15 47 98 189 284 391 315 183 56 4 0 0 0 0 0 0 447 909 1432 1655 2362 2466 1988 1632 2014 1712 1623 1763 1933 1986 2078 2336 2266 2106 2051 1998 1969 1901 1844 1856 1826 1747 1501 1382 1417
0 8 21 27 33 63 81 258 292 366 320 269 95 0 0 0 0 0 0 408 596 940 1457 1656 1714 1523 1629 1876 1994 1686 1732 1797 1902 1899 1947 2013 2059 2050 2034 2108 1984 1891 1792 1696 1639 1629 1670 1599 1282
0 0 10 65 71 82 103 267 324 357 291 147 40 0 0 0 0 0 141 461 435 928 1332 1517 1356 1242 1504 1526 1911 1700 1883 1812 1854 1801 1710 1659 1674 1749 1928 2185 2266 1919 1734 1658 1602 1556 1619 1573 1264
0 0 72 23 36 74 108 357 512 433 182 175 158 5 0 0 0 34 176 560 598 978 1267 1290 1121 1261 1384 1459 1443 1620 1921 1824 1844 1836 1833 1063 1100 1078 1399 1710 1925 1664 1461 1590 1804 1960 2067 1770 1481
233 90 60 25 25 70 83 381 564 434 445 305 490 0 6 0 0 26 313 602 590 783 1111 1129 1002 1055 1185 1311 1272 1283 1484 1584 1486 1186 619 614 838 1005 1250 1614 1745 1539 1044 1475 1083 1069 1657 1344 1255
407 310 65 16 24 50 32 580 558 463 464 399 350 44 34 19 61 186 456 594 607 662 960 913 759 865 918 855 1138 1106 1202 1272 1200 691 152 370 578 762 899 1072 1276 966 807 535 164 477 643 759 835
147 287 140 21 38 64 35 109 555 472 383 356 168 100 74 105 246 234 333 452 589 608 809 702 479 663 655 712 795 750 798 856 804 108 0 45 249 435 672 474 550 920 368 334 436 610 860 590 489
89 54 42 50 34 13 11 40 464 502 406 266 143 102 126 235 284 299 385 378 470 365 492 350 256 497 492 428 282 598 573 633 775 212 13 27 199 321 441 642 808 677 691 387 681 771 784 638 68
49 34 21 12 17 23 3 98 592 418 340 346 280 138 185 211 230 328 432 385 274 157 195 129 277 419 368 276 34 405 515 457 603 476 197 320 404 568 628 706 551 648 469 482 730 737 615 313 67
22 0 26 2 32 43 17 449 608 470 384 372 339 263 236 239 293 373 451 289 185 52 32 49 274 407 247 281 11 254 328 351 575 562 249 286 492 823 775 880 871 570 638 513 765 680 385 50 116
4 1 14 14 19 39 32 103 656 510 375 323 294 258 284 332 299 364 393 329 91 27 0 38 207 350 143 325 143 556 331 326 729 816 771 780 792 797 879 796 813 685 903 943 1075 544 210 100 80
3 0 0 13 64 43 19 80 655 556 348 270 251 212 254 295 250 283 290 325 269 9 0 52 100 508 129 689 450 399 447 490 449 859 945 1058 1304 1259 599 754 778 720 908 951 666 789 566 217 139
0 0 0 1 0 34 46 139 637 609 373 358 296 218 240 255 207 220 232 205 324 89 35 23 16 582 176 475 202 227 254 301 656 679 695 849 1376 1367 1179 693 500 789 984 930 646 241 55 108 96
0 0 0 0 0 33 24 246 680 616 420 449 415 323 343 309 235 370 236 96 276 280 201 105 0 378 333 418 256 119 107 110 339 578 507 488 840 1297 1250 1057 945 1091 1062 848 235 171 49 9 0
0 0 0 0 9 17 62 176 544 474 521 503 521 533 508 456 373 316 409 142 108 201 239 85 0 191 362 219 280 246 55 65 214 493 489 619 873 1157 1094 1026 833 853 945 919 761 690 244 8 0
0 0 0 0 0 0 62 63 150 249 519 400 351 641 615 561 529 445 412 298 206 162 199 112 33 0 95 268 240 533 500 294 302 487 569 760 960 1170 1155 979 829 1042 1214 981 893 834 328 0 0
0 0 0 0 0 0 18 10 117 259 277 177 178 505 612 570 487 485 429 410 293 239 157 106 141 103 54 345 155 288 433 738 520 384 346 882 1000 1173 1336 1072 1021 1368 1261 1086 854 854 662 0 0
0 0 0 0 0 0 0 0 20 195 208 201 378 412 507 471 483 500 471 443 433 351 262 153 388 246 209 461 293 216 268 661 884 586 485 533 977 1216 1184 1243 1303 1039 1403 1024 851 1034 921 0 0
0 0 0 0 5 0 0 0 0 104 290 297 286 60 103 173 461 442 465 370 460 476 399 291 611 458 393 533 471 367 290 395 615 710 622 306 857 870 1159 1303 1296 1245 1226 1378 1168 1078 1261 718 0
0 0 0 0 4 0 0 0 0 1 176 184 254 124 160 171 399 491 363 341 336 449 407 370 409 816 635 569 665 539 519 512 578 691 516 410 444 557 1047 1592 1327 1335 1411 1338 964 1183 1288 652 884
0 0 0 0 0 0 0 0 0 0 3 52 157 352 165 269 379 461 411 342 303 540 507 377 416 585 928 742 652 685 723 682 634 737 642 248 483 664 780 1408 1716 1760 1463 1367 1226 1268 1538 1226 954
0 0 0 0 0 0 0 0 0 0 0 0 0 177 137 445 531 496 563 389 356 439 640 585 437 425 886 946 890 907 837 784 846 885 538 507 383 1072 977 1341 1510 1814 1545 1450 1586 1287 1362 1692 1058
0 0 0 0 0 0 0 0 0 0 0 0 0 6 52 565 709 604 622 446 446 545 602 727 624 487 616 1070 871 756 1007 1464 983 782 786 956 587 984 1276 1184 1784 1756 1634 1429 1584 1844 1636 1675 1853
0 0 0 0 0 0 0 0 0 0 0 0 0 11 257 577 737 629 704 529 575 664 705 847 824 719 787 961 1215 1046 719 689 1611 1517 872 652 1251 1206 1083 1328 1489 1776 1754 1652 1411 1446 2185 2182 1828
3 0 0 0 0 0 0 0 0 0 0 0 0 0 312 672 685 713 769 621 690 734 754 740 1115 978 1005 1122 1302 1395 1272 933 743 1622 1949 1321 674 966 1523 1327 1470 1760 1832 1789 1619 1408 1759 2339 2200

GFSSGP_con_mucape_045.txt.gz
CAPE
68 38 30 106 585 96 105 39 94 167 47 94 0 33 39 46 28 0 0 0 147 590 1114 1655 2144 1842 1931 2093 2277 2114 2430 2273 2372 2457 2251 2130 2109 2196 2008 1815 1975 2052 2103 2024 1888 1482 1261 1604 1356
25 21 126 196 185 107 35 51 254 325 174 102 45 77 43 18 19 19 0 65 498 891 1269 1719 2179 2277 1839 2073 2025 2190 1869 1971 2198 2280 2280 2135 2123 2048 2029 1958 1887 1953 2026 2044 1872 1741 1218 1285 1140
8 102 124 105 1 47 117 21 177 159 258 164 161 151 67 30 33 0 0 459 709 1119 1237 1601 2266 2389 1763 1904 2005 2374 2142 1892 2230 2299 2321 2214 2383 2027 2005 2041 1973 1957 1858 1622 1629 1623 1412 1039 1216
52 258 241 133 53 69 75 169 127 191 246 201 172 68 1 13 0 0 41 632 922 1089 1170 2015 1868 1983 1734 1891 2099 2316 1886 1908 2127 2659 2228 2216 2076 2153 2113 2020 2052 2026 1874 1771 1578 1401 1406 1339 1101
137 289 145 25 23 71 66 153 218 285 308 210 208 31 0 11 0 0 177 482 727 1048 1393 1496 2324 2173 2123 1778 1871 1981 1847 2090 2346 2573 2194 2276 2117 2118 2248 2253 2204 2081 1994 1913 1743 1666 1403 1394 1191
390 14 7 17 1 54 121 191 408 417 176 164 128 3 1 0 0 12 85 314 725 1268 1595 1543 2088 1832 2067 1677 1775 1735 1891 2139 2109 2267 2410 2257 2222 2240 2250 2195 2056 1957 1957 1974 1713 1578 1296 1411 1393
39 0 1 14 37 20 121 228 290 311 199 75 48 17 0 0 0 9 59 451 990 1297 1526 1613 1643 1315 1715 1944 1712 1687 1947 2010 2047 2144 2343 2255 2238 2188 2027 2123 2030 1917 1823 1737 1763 1313 1265 1139 1275
12 11 4 87 0 66 51 145 318 232 176 93 121 6 0 0 0 10 266 508 968 1317 1420 1663 1445 1193 1433 1746 1693 1788 1924 1996 1969 1935 1924 1922 2015 2090 1836 2492 2398 1884 1771 1684 1659 1559 1667 1488 1439
20 6 6 58 42 73 98 136 447 273 161 113 53 45 6 0 1 118 342 415 885 1271 1437 1491 1286 1294 1333 1566 1422 1781 1897 1947 1888 1749 2057 1399 1193 1320 1616 1825 1978 1612 1622 1801 1982 1811 1811 1814 1838
85 6 6 25 39 53 83 394 407 289 218 60 110 13 4 2 13 313 311 374 606 913 1293 1304 1175 1231 1333 1473 1325 1584 1613 1592 1620 1431 847 833 836 986 1290 1545 1722 1485 1240 1765 496 1358 1547 1365 664
320 84 3 15 13 13 64 438 414 243 358 100 220 15 9 17 52 318 405 410 471 778 1136 1158 990 1061 1221 1293 1278 1323 1526 1553 1365 783 303 620 728 824 1006 1010 1402 1037 760 513 261 478 640 679 845
170 216 266 38 22 67 33 474 480 381 334 254 174 16 10 27 62 143 452 512 575 797 965 1050 827 840 973 936 1126 1012 1189 1215 1106 523 272 396 560 576 692 614 423 616 332 341 437 532 837 395 682
100 150 113 301 284 134 11 378 483 391 348 312 168 0 17 33 46 138 424 615 567 633 791 798 630 613 650 504 853 718 742 810 772 273 0 109 275 410 603 551 458 590 657 393 559 626 652 213 56
67 85 83 54 24 9 5 26 416 423 349 129 66 0 24 27 43 170 349 540 565 498 618 555 401 473 482 423 341 364 435 580 758 327 101 146 211 368 420 491 589 604 482 344 468 718 471 100 44
18 7 5 5 0 16 60 368 446 283 167 98 17 2 30 22 141 114 283 366 461 359 400 315 140 268 350 369 125 142 370 417 443 593 387 339 541 559 614 615 572 583 540 417 464 243 160 49 36
0 6 0 18 19 11 12 11 508 356 207 89 52 41 17 88 156 134 190 289 275 239 133 81 108 174 256 327 212 18 232 348 338 425 496 223 533 669 573 782 808 546 578 649 835 547 155 50 36
0 0 0 0 0 40 24 241 463 382 232 154 79 62 102 68 104 193 214 254 159 143 52 0 84 187 202 191 251 20 142 274 436 469 530 375 609 639 675 823 895 692 856 713 853 598 390 97 83
0 0 5 0 0 20 21 51 474 390 283 237 185 122 134 120 65 173 179 234 149 73 11 0 25 152 208 104 170 316 334 492 332 614 696 621 1027 1032 490 645 686 623 941 763 388 481 195 158 63
0 0 0 6 9 39 55 26 491 394 358 225 204 170 181 179 157 94 164 220 159 27 6 0 0 54 173 107 206 380 289 356 609 596 769 799 1225 1115 736 585 465 734 830 613 341 43 19 54 51
0 0 0 20 40 0 10 0 531 382 386 271 234 188 181 198 182 125 119 153 235 168 58 0 0 0 201 73 332 379 209 86 272 547 656 625 857 1288 1175 799 798 903 804 701 413 197 82 9 7
0 0 0 0 35 7 38 49 288 478 358 325 206 191 162 187 176 148 126 121 135 188 173 53 0 0 137 86 167 130 114 26 82 357 407 471 533 935 986 851 741 831 930 751 589 563 40 0 0
0 0 0 0 90 17 29 17 365 481 406 380 344 257 192 198 209 155 197 120 112 52 190 75 0 46 55 137 121 119 52 6 1 54 391 491 587 795 959 816 562 853 929 730 851 726 482 0 0
0 0 0 26 92 77 16 7 7 210 380 452 406 431 378 304 257 207 189 263 135 67 75 171 156 129 17 94 87 33 7 0 78 93 225 392 643 767 977 1021 814 871 1193 1092 949 569 434 32 0
0 0 0 22 89 22 8 3 0 16 160 361 393 416 381 507 435 341 245 304 306 160 87 68 108 124 72 18 48 0 9 65 338 378 254 300 614 702 926 1081 981 912 945 1151 1023 665 485 334 0
0 0 0 0 36 0 0 0 0 0 4 163 259 371 154 333 565 522 448 345 418 378 252 169 141 114 95 35 51 17 5 20 163 414 477 384 332 664 742 1019 1045 1140 983 1030 1061 1002 1030 849 183
0 0 0 0 0 0 0 0 0 0 9 90 120 159 148 258 500 554 545 468 440 451 398 312 241 202 96 67 104 88 63 28 38 169 526 607 441 360 597 865 1047 999 1102 1154 1150 945 932 1151 676
0 0 0 0 0 0 0 0 0 0 0 12 115 161 141 154 213 292 581 505 447 459 464 444 357 319 244 140 181 192 149 137 106 124 150 403 511 437 323 568 1106 1207 1215 1386 1305 1059 948 1228 1195
0 0 0 0 0 0 0 0 0 0 0 0 130 171 159 179 135 158 342 473 486 475 465 436 420 426 377 246 258 328 299 299 284 254 243 352 602 433 470 525 700 1002 1332 1545 1558 1174 1168 1180 1344
0 0 0 0 0 0 0 0 0 0 0 0 0 37 83 188 197 152 170 406 452 478 501 430 412 394 361 449 395 422 450 450 459 508 476 454 541 485 672 737 895 1045 1111 1362 1594 1345 1345 1323 1407
0 0 6 0 0 0 0 0 0 0 0 0 0 0 1 150 234 207 175 335 466 531 488 497 394 361 351 508 542 552 601 705 829 645 590 596 677 680 431 837 972 1215 1288 1306 1460 1517 1393 1626 1620

GFSSGP_con_mucape_048.txt.gz
CAPE
61 33 9 65 249 17 57 31 59 49 60 17 0 2 3 37 0 0 0 0 45 389 1110 1330 2007 2007 2057 1803 2330 2025 2171 2163 2168 2129 2010 1995 2006 1871 2032 1936 1817 2010 2052 1734 1357 1558 1419 1085 1278
44 25 80 157 60 51 48 34 83 192 152 8 3 67 35 37 0 0 0 26 303 821 1246 1247 1905 2240 1841 1898 2335 2073 2216 2215 2279 1894 1722 1872 1956 1983 1714 1951 2018 1541 1602 1795 1453 1294 1269 1270 1324
28 32 155 99 1 54 83 34 76 334 238 130 80 122 54 40 0 0 0 249 606 1019 1412 1196 1935 2235 1742 2110 2233 1868 2159 2207 2119 1967 2114 1981 2053 2029 2057 1956 1970 1655 1686 1234 1531 1364 1145 916 1023
20 140 184 119 56 92 157 156 364 124 273 145 139 152 103 55 1 0 236 491 756 1155 1328 1687 1950 1597 1672 2123 2043 1795 2041 2086 2082 2136 1973 2040 2113 2001 2054 1977 1890 1767 1836 1679 1427 1425 1214 1260 1316
114 302 163 81 65 107 132 156 372 213 241 159 86 102 3 8 0 69 381 631 704 1102 1175 1219 2209 2062 1574 2087 2032 1718 1844 1866 2148 2097 2251 2209 1944 1905 2139 2187 2078 1971 1901 1693 1385 1338 1101 1152 1155
170 62 16 38 51 89 192 180 287 399 132 105 75 99 45 0 4 245 453 585 618 1052 1137 1350 1704 2034 1657 1754 1782 1715 2048 1838 2157 2200 2354 2301 2309 2127 2113 1995 1970 1885 1753 1558 1272 1120 1090 1231 1145
114 0 10 27 60 174 117 43 90 338 193 90 54 58 0 6 25 181 387 544 910 1196 1136 1362 1119 1817 1434 1557 1524 1774 1972 2004 2258 2151 2325 2301 2221 2205 2056 1975 1825 1776 1661 1379 1042 1104 1091 1256 1208
81 9 2 77 34 123 117 85 396 401 228 67 48 24 0 17 42 156 389 831 1107 1266 1259 1322 1081 1242 1336 1207 1486 1513 1870 1920 2070 2141 2164 2183 2110 2063 2033 1601 1850 1582 1636 1421 1006 1205 1524 1354 1392
81 0 0 63 53 146 178 239 386 310 160 77 70 36 0 8 32 201 329 695 992 1165 1293 1400 1063 1078 1424 1201 1312 1649 1884 1882 1879 1790 1950 1507 1577 1511 1522 1852 1724 1519 1587 1624 1597 1543 2040 1883 1481
112 20 0 41 58 34 161 262 450 239 102 80 68 54 0 4 59 98 124 306 515 919 1154 1324 1063 1111 1275 1396 1347 1451 1608 1503 1463 1527 842 665 717 995 1175 1690 1664 1334 1613 889 1538 1665 1563 1068 1055
170 64 10 47 46 88 103 410 405 211 140 80 33 11 0 21 49 58 105 211 344 475 1072 1230 1050 1018 1182 1328 1279 1451 1458 1414 1239 708 570 707 734 921 1042 955 1416 882 717 282 348 582 758 791 913
203 204 210 55 45 28 39 415 420 328 277 248 51 82 1 32 55 56 53 118 360 511 866 1111 987 890 1041 1141 1100 1257 1337 1304 1022 368 245 474 519 624 685 694 454 636 305 374 435 572 687 439 719
200 196 133 174 247 217 115 159 410 343 263 238 93 74 5 15 59 133 162 231 388 424 774 965 840 723 841 829 953 876 1005 986 868 577 286 324 401 496 542 429 202 592 613 379 513 643 468 122 313
19 35 59 79 67 26 28 43 401 332 348 248 195 18 0 0 13 262 353 322 350 456 678 790 687 517 565 456 650 576 601 670 633 214 9 130 238 346 435 446 561 547 498 343 512 749 306 68 45
0 32 22 90 17 32 8 210 273 252 347 246 30 0 0 0 1 165 366 390 295 272 491 531 494 302 264 224 172 268 228 328 560 559 165 310 276 335 437 540 564 536 407 449 449 220 41 47 58
0 26 37 10 22 26 11 0 388 254 282 95 37 0 0 0 2 68 232 409 390 270 340 311 209 107 164 146 78 34 146 239 336 421 535 320 480 487 606 614 664 504 550 564 627 240 63 63 67
0 2 11 20 44 51 12 109 357 350 316 114 9 1 0 0 0 29 135 264 424 338 234 144 89 0 41 96 92 36 36 149 251 278 323 436 422 536 524 686 736 583 784 593 822 569 100 108 80
0 0 0 12 25 43 98 75 312 329 264 159 0 0 0 0 1 33 80 124 246 322 209 55 0 0 0 41 71 56 16 130 196 255 348 368 431 645 668 757 720 669 804 665 330 402 257 111 54
0 0 0 63 0 21 77 89 342 283 251 167 37 1 0 7 33 38 49 49 130 201 185 15 0 0 20 26 6 76 74 210 428 217 486 455 560 930 717 539 618 745 657 611 530 60 47 93 44
0 0 0 44 39 29 29 43 341 301 250 206 118 33 32 42 45 50 73 76 106 181 108 35 0 0 17 23 32 52 177 244 476 449 457 638 647 1096 903 537 540 764 707 508 282 77 73 38 30
0 0 0 0 102 43 9 4 120 287 213 195 152 66 24 50 64 65 62 89 101 130 130 42 0 0 12 19 23 23 127 203 167 400 476 625 704 1111 1235 1034 730 744 670 580 523 281 42 7 22
0 0 0 0 74 69 30 0 0 281 226 183 184 202 95 89 95 93 63 55 62 124 108 36 11 0 0 5 10 60 197 257 109 128 324 435 498 599 882 966 680 716 766 715 664 566 409 15 0
0 0 0 0 8 82 38 24 0 160 250 247 233 230 134 113 112 117 110 69 45 24 112 127 27 1 0 0 0 13 74 123 53 0 118 259 321 472 876 823 714 569 823 793 773 806 426 200 0
0 0 0 0 0 32 6 32 0 2 272 293 295 288 272 121 132 119 106 100 64 48 0 69 114 150 85 5 2 0 0 0 0 0 0 86 262 409 665 919 854 773 823 957 937 849 323 256 0
0 0 0 0 0 0 0 46 0 0 8 180 325 303 335 312 134 122 114 105 100 79 51 0 54 181 173 16 6 83 0 0 0 0 0 0 97 370 492 724 833 927 856 861 976 1015 713 356 238
0 0 0 0 0 0 0 0 1 0 0 50 163 325 292 325 302 208 158 153 119 124 90 37 20 42 186 150 148 147 21 0 0 0 0 0 0 163 424 570 798 882 910 994 933 983 1036 813 720
0 0 0 0 0 0 0 0 0 0 0 0 71 129 230 256 285 383 366 247 173 146 220 122 64 35 49 147 158 119 91 0 0 0 0 0 25 118 256 513 844 858 963 957 1043 1024 1024 994 1017
0 0 0 0 0 0 0 0 0 0 0 0 4 75 123 211 205 171 398 413 380 307 189 269 258 134 80 37 67 59 93 33 25 27 7 8 90 356 394 434 732 951 991 969 999 1258 1261 1037 1136
0 0 0 0 0 0 0 0 0 0 0 0 0 56 136 195 174 159 321 385 403 434 431 323 283 340 243 227 149 177 120 46 48 50 48 39 13 83 384 417 486 671 944 1089 1104 1276 1552 1259 1125
0 0 0 0 0 0 0 0 0 0 0 0 0 0 129 211 207 199 168 192 365 357 395 430 401 356 349 337 317 289 268 166 152 150 119 124 80 34 227 487 539 781 883 1011 1112 1255 1498 1571 1351

GFSSGP_con_mucape_051.txt.gz
CAPE
45 20 29 116 153 30 56 89 71 50 123 0 0 0 4 35 35 34 3 0 0 643 827 1529 2208 2231 2179 2248 2437 2324 2350 2390 2213 2156 2068 2095 2105 2087 1845 1624 1885 2042 1561 1381 1733 1163 1035 1584 1759
31 23 53 140 126 128 93 58 161 54 101 2 29 13 65 24 0 0 9 22 65 601 573 1312 2275 2272 1848 2181 2460 2573 2205 2175 2226 2129 2099 2018 1961 2072 1838 1671 1416 1620 1857 1522 1396 1426 1408 1375 1392
32 28 208 96 77 176 87 34 171 306 15 16 143 38 20 19 6 0 1 82 193 766 732 1345 2277 1929 2068 2014 2159 2427 2310 2243 1852 1900 1955 1892 1941 1738 1870 1633 1343 1582 1220 1577 1486 1215 1131 1192 1280
29 211 166 170 49 71 89 160 348 289 94 0 83 71 56 37 0 1 64 222 222 887 608 1479 2062 1540 2090 2032 2094 2194 2063 1878 1999 2068 1670 1977 2009 1817 1892 1707 1729 1824 1639 1361 1396 1365 1426 1214 1040
135 259 275 145 62 101 39 116 267 252 121 104 74 49 55 31 2 31 145 221 408 489 896 1393 2154 1968 1935 2011 1840 2160 2018 1855 1936 2017 2020 2152 2130 2024 1873 1978 1892 1906 1665 1341 1300 1279 1213 1206 1307
361 57 56 32 51 102 231 166 379 391 132 65 44 40 65 0 39 87 110 285 461 334 733 1246 1838 1847 1759 2044 1703 2033 2057 1925 2123 2089 2483 2571 1956 2219 2106 1901 1837 1626 1243 1204 996 1184 1310 1211 1400
73 34 17 36 66 258 249 52 80 502 112 76 68 12 42 1 61 103 146 379 482 377 940 1048 1586 1378 1776 1815 1717 1871 1990 1970 1927 2306 2442 2276 2212 2086 2043 1784 1739 1519 1274 1054 1017 1206 1342 1330 1489
96 13 16 128 111 85 153 11 206 410 92 80 77 8 1 21 112 202 214 338 630 392 1017 932 1656 874 1042 1272 1705 1867 1893 2085 2207 2322 2234 2172 2134 1981 1882 1938 1771 1579 1140 1039 1168 1275 1299 1475 1776
43 14 3 58 115 90 70 268 434 297 142 102 30 19 4 35 126 265 163 256 777 523 1071 660 1405 1105 1411 1241 1428 1281 1792 1957 1996 2152 2262 2079 1877 1641 1345 1761 1606 1340 1407 1299 1061 1219 1461 1613 1650
38 86 25 32 50 75 163 329 451 232 93 86 60 1 5 39 162 144 69 108 409 459 1015 627 971 1193 1118 962 1606 1750 1632 1478 1682 1862 1730 1699 1700 1807 1380 1564 1626 1557 1368 1415 1685 1299 1513 1163 1114
212 122 54 57 41 122 95 290 664 428 221 66 50 4 8 56 79 51 1 126 297 417 845 964 931 1442 1135 1254 1426 1554 1621 1649 1784 1330 1166 1338 1576 1815 1373 1495 1699 1359 1076 876 1059 1305 899 886 859
233 254 235 126 36 36 173 425 578 438 395 207 25 0 2 24 13 13 0 170 372 591 828 1144 931 1210 1241 1384 1359 1461 1390 1383 1134 983 854 1253 1331 1560 1747 1205 1391 1470 1158 1364 1323 1244 1341 1166 1197
166 311 225 200 165 140 152 138 210 471 219 201 114 23 8 3 0 1 23 182 287 362 519 1112 1048 1070 1372 1537 1264 1343 1408 1303 1112 739 297 883 1122 1466 1268 1121 1205 1641 1467 1499 1591 1576 1187 1066 1233
8 71 145 80 77 77 39 32 275 267 264 232 88 49 16 0 0 3 66 180 333 333 570 1020 1078 928 1162 1132 1444 1323 1334 1200 1185 1052 243 350 630 1350 1471 1556 1576 1551 1388 1381 1667 1723 871 618 448
0 48 91 102 51 86 36 63 393 249 276 295 129 71 0 0 0 9 65 124 297 425 612 925 973 793 1005 1004 1197 1005 1037 959 973 591 286 290 567 1274 1478 1500 1488 1364 1457 1369 1409 1109 661 392 663
0 0 19 65 57 94 10 128 524 230 224 249 94 4 0 0 0 8 85 142 209 307 704 824 582 531 639 598 663 611 604 838 1139 1296 1316 877 730 1106 1725 1596 1556 1539 1568 1657 1309 913 491 466 599
0 0 14 68 102 44 64 95 641 155 175 208 42 0 0 0 0 46 121 278 372 470 576 788 721 498 408 510 462 356 462 713 901 1029 1140 1394 1060 1117 1561 1772 1702 1778 1808 1688 1544 1439 625 435 356
0 0 42 105 51 73 122 132 584 196 281 246 96 0 0 0 0 16 142 314 490 547 496 599 642 566 556 455 638 324 164 487 790 910 1028 1304 1335 1205 1622 1953 1974 1716 1973 1636 1288 1667 261 775 414
0 0 0 117 74 72 181 197 677 436 234 220 143 1 0 0 0 0 69 197 533 659 603 579 617 658 446 354 331 381 339 508 784 1020 1254 1480 1441 1483 1859 1523 1740 1602 2492 2159 1316 828 610 106 178
0 0 0 34 64 57 52 106 454 609 496 275 109 75 0 0 0 0 65 111 269 582 628 646 590 644 576 332 718 474 797 835 1157 1321 1375 1596 1524 1881 1948 1691 1521 1999 1729 1723 1488 1287 246 95 108
0 0 0 0 71 61 38 36 99 633 582 442 230 78 36 6 0 4 12 118 187 362 492 569 660 652 703 716 631 664 835 827 970 1265 1400 1574 1665 1955 2192 1907 1610 1991 2365 1600 1741 1342 939 62 172
0 0 0 0 2 32 33 38 12 206 639 594 490 338 169 64 16 22 69 86 108 336 330 474 702 736 620 773 772 1210 754 718 863 1204 1391 1629 1722 1829 2252 2335 2001 2006 1879 1970 1846 1561 1048 322 188
0 0 0 0 0 3 0 3 7 95 321 617 641 580 425 220 136 98 182 199 172 181 212 246 703 1058 1070 929 1157 879 1097 797 915 875 1457 1751 1847 1778 1746 2132 2042 1873 1938 2148 1854 2023 1831 563 135
0 0 0 0 0 0 0 0 0 11 180 520 627 611 606 480 280 275 251 225 299 308 128 109 696 971 1121 1039 1153 1580 1663 1264 848 955 893 1082 1325 1529 1713 1831 2046 2030 1872 2120 1975 1991 1906 1154 124
0 0 0 0 0 0 0 0 0 0 22 194 560 659 658 634 502 374 357 323 405 633 423 402 553 805 949 998 1187 1353 1601 1784 1515 1241 827 994 934 1274 1573 1943 2116 1999 2223 2181 2224 2257 2021 1661 1091
0 0 0 0 0 0 0 0 0 0 0 0 142 488 570 614 571 510 422 493 752 680 773 566 621 762 814 928 1226 1395 1541 777 750 1190 667 650 588 860 1497 1915 1973 2096 2188 2154 2288 2166 2146 1996 1706
0 0 0 0 0 0 0 0 0 0 0 0 1 192 509 657 650 580 511 627 765 809 855 795 888 842 829 527 1108 1297 1382 1357 953 1403 1268 723 1169 522 1140 1654 1832 1971 2100 2222 2355 2164 2392 2359 2324
0 0 0 0 0 0 0 0 0 0 0 0 0 34 315 647 745 699 613 649 837 674 860 832 905 895 873 841 980 983 1201 1331 1347 1374 1397 1386 915 812 728 1534 1738 1935 2022 2243 2448 2074 2382 2531 2260
0 0 0 0 0 0 0 0 0 0 0 0 0 2 85 489 750 809 864 849 805 661 812 886 869 995 974 883 932 1083 955 838 818 962 1147 1481 1093 1110 1319 1616 1732 1880 1999 2127 2374 2297 2240 2570 2585
0 0 0 0 0 0 0 0 0 0 0 0 0 0 29 209 620 731 802 886 844 1028 939 809 897 698 934 976 1033 1031 1227 1144 922 1278 1048 1384 1617 1178 1343 1585 1801 1824 1815 1941 2171 2100 1746 2352 2660

GFSSGP_con_mucape_054.txt.gz
CAPE
8 0 12 125 135 320 298 396 256 479 204 116 27 2 146 260 315 553 234 19 249 143 941 1402 2220 2259 2217 2429 2531 2332 2081 2109 2004 1936 2102 2225 2334 2078 1662 1832 2089 1605 1496 1815 1131 1126 1609 1619 1655
2 2 43 325 475 393 562 238 497 358 298 87 24 35 128 250 79 118 71 264 110 137 747 804 2012 2226 2289 2399 2422 2473 2454 2345 2316 2285 2259 2211 2142 2035 1780 1496 1478 1843 1601 1532 1648 1539 1381 1574 1731
1 8 220 95 201 310 473 465 471 314 56 97 215 226 369 298 45 108 130 145 79 184 624 1430 1955 2460 2132 2393 2313 2346 2331 2280 2303 2278 1978 2069 2121 1741 1572 1514 1575 1408 1776 1637 1370 1356 1425 1180 1616
6 120 190 384 90 128 140 568 419 242 87 167 306 398 144 76 87 131 24 45 67 225 542 1799 1846 1856 2056 2234 2315 2283 2275 2059 1985 1957 1829 1959 1962 1812 1681 1656 1811 1647 1415 1558 1496 1508 1191 1131 1402
188 607 468 591 166 103 180 303 458 420 20 109 352 350 57 31 36 77 13 23 103 190 609 1421 2200 2035 1925 2083 2120 2134 1949 2000 2135 2116 2076 1910 1917 1930 2029 1926 1942 1732 1486 1398 1388 1340 1272 1217 1194
496 371 396 254 45 215 43 56 361 298 197 172 297 188 81 40 77 115 23 34 63 253 529 845 1758 1916 2155 1999 2073 2071 1840 2007 2080 2032 1935 2078 2146 2109 1980 1759 1546 1280 1271 1194 1309 1294 1282 1339 1640
556 454 238 247 68 248 340 521 594 680 400 209 346 411 79 97 103 95 52 66 69 313 415 638 1394 1767 1752 1800 2057 2113 1841 1905 1989 2257 2193 2266 2181 2002 1794 1635 1294 1237 1122 1010 1251 1271 1330 1533 1824
588 245 236 366 100 544 304 24 77 720 395 299 204 425 169 116 75 97 86 105 79 289 360 704 734 1545 1078 1370 1984 2135 1998 1828 1753 2013 2315 2221 1996 1500 1013 1780 1497 1146 1095 1050 1094 1260 1465 1483 1914
232 52 212 299 174 344 192 180 429 498 73 95 122 157 206 131 97 59 125 137 119 333 382 870 526 740 1085 1228 1743 1963 2051 2196 2285 2261 2290 2050 1062 884 1228 1681 1376 1285 1077 1032 1095 1205 1553 1706 1701
257 248 188 63 98 27 159 471 865 754 223 74 51 58 132 126 84 62 103 191 82 199 246 689 512 737 887 917 1397 1470 1641 1488 1515 1449 1637 1120 1279 1375 1116 1363 1487 1429 1401 1479 1107 1331 1433 1734 1153
442 208 178 49 25 128 293 487 924 828 532 252 168 98 150 195 248 48 41 158 43 111 139 346 551 864 737 1195 1288 1410 1298 1497 1731 1800 1552 1288 1138 941 1170 1389 1529 1290 1392 1100 1237 1363 970 760 800
124 181 357 81 141 98 119 422 724 746 824 626 242 139 204 155 97 18 21 38 24 67 191 222 559 1005 824 1176 1052 1088 1013 1097 1060 1092 1612 1644 1219 1193 1122 1155 1366 1283 1210 1440 1282 1048 1227 1133 1196
27 184 257 214 134 264 261 333 325 605 659 380 270 144 137 123 63 18 2 4 7 31 240 231 519 1071 1132 1271 984 894 934 829 716 1071 1237 992 962 1271 1207 1370 1287 1231 1194 1201 1251 1265 1286 1528 1057
0 10 518 227 179 230 331 265 153 575 549 466 310 185 112 87 52 12 3 3 85 10 189 333 499 855 1139 1226 1338 1236 1159 1159 958 678 776 1428 1034 1482 1500 1353 1332 1296 962 932 997 1230 630 363 459
0 2 76 74 50 28 157 165 253 680 553 575 435 255 76 94 37 8 14 3 83 96 155 432 543 580 1048 1213 1459 1237 1121 991 1063 1013 1056 1029 1337 2043 1642 1651 1752 1381 1672 1554 1329 988 649 137 250
0 0 80 180 58 36 102 224 572 573 676 649 486 263 105 104 20 14 34 0 44 45 164 444 277 290 749 953 1203 827 847 851 839 829 967 1103 1551 1854 1621 1627 1288 1536 1097 548 576 305 139 151 95
0 0 0 116 132 101 204 348 819 493 624 597 514 299 167 135 39 24 32 0 42 131 274 501 367 269 477 824 852 830 938 1136 1262 1275 1428 1921 1630 1619 1232 1173 1238 1866 789 520 267 115 89 117 72
0 0 0 11 308 331 313 366 762 475 524 620 540 339 204 137 62 24 24 0 4 157 379 502 413 392 526 523 738 682 920 1159 1220 1237 1266 1914 1752 1684 1267 1390 1221 1247 755 614 345 380 482 136 93
0 0 0 64 200 315 355 362 840 653 582 620 536 398 243 164 96 44 43 70 59 231 366 566 514 603 595 396 490 718 761 903 1126 1129 1484 1853 1729 1847 1544 1265 1354 945 918 1179 1453 1082 1179 221 265
0 0 0 7 79 210 312 361 441 932 771 619 510 410 273 198 103 73 140 116 123 391 492 617 718 773 803 234 485 508 704 809 1022 1345 1773 1988 1880 2106 1952 1734 1495 947 701 1201 1265 1155 436 273 250
0 0 0 0 0 89 186 298 291 766 942 863 488 357 256 228 148 62 156 138 130 371 611 744 976 1000 872 606 298 669 984 1252 1544 1664 1608 1971 2003 2082 2257 2187 1657 1473 1318 798 1054 1555 830 285 396
0 0 0 0 0 21 125 228 212 347 1028 1008 955 519 291 160 190 112 101 214 114 283 746 888 1183 1233 1002 920 773 1818 1114 886 742 1175 1017 1442 2094 2034 2194 2383 2129 1665 1131 1415 1077 1543 1023 931 177
0 0 0 0 0 4 5 126 117 208 581 992 1020 900 639 305 138 147 117 317 253 197 370 902 1421 1868 1656 1598 1410 855 1469 438 566 802 1534 2013 2439 2205 1990 2446 2382 2220 1235 1428 1627 1639 1643 744 348
0 0 0 0 0 2 0 21 63 131 187 529 874 844 844 755 416 202 166 268 386 380 360 655 1604 2081 1803 1418 921 1853 1994 1421 672 1299 1208 1230 1286 1944 2255 2205 2503 2384 1637 1652 1668 1765 1867 1616 930
0 0 0 0 0 0 0 0 6 54 105 145 463 793 844 905 849 578 309 407 444 461 444 539 1531 1954 1752 1302 1121 1331 1664 1969 1649 1427 1150 1545 789 962 1675 2424 2601 2238 2602 2222 2663 2200 2207 2387 1312
0 0 0 0 0 0 0 0 0 1 0 39 162 532 753 890 1011 916 749 558 687 672 604 625 1390 1898 1823 1483 1984 2288 2142 899 1091 1411 1015 879 701 730 1065 2180 2259 2417 2288 2268 2440 2225 1985 2255 1880
1 0 0 0 0 0 0 0 0 0 0 0 1 88 482 716 990 1087 1003 873 743 862 1382 1354 1877 1724 1807 1344 2274 2467 2399 2155 1349 2331 1429 1052 1678 671 887 1388 2090 2052 2212 2399 2406 2047 2478 2289 2424
0 0 5 0 0 0 0 0 0 0 0 0 2 9 111 483 822 930 1158 1073 977 827 907 1002 1103 1717 1777 1378 1584 1587 1631 1946 2137 1705 2217 1819 1186 1396 975 1274 1554 1533 1876 2297 2596 2059 2320 2647 2268
0 1 33 15 1 0 0 0 0 0 0 0 0 0 27 293 782 874 1084 1166 1118 974 901 1047 1066 1286 1379 1713 1855 1815 1557 1543 1598 1609 1686 1860 1745 1598 1840 1443 1324 1332 2032 2236 2527 2323 1999 2719 2805
1 50 1 63 23 0 0 3 0 0 0 0 0 0 10 71 447 837 953 1023 1172 1198 1051 1037 1057 1110 1217 1806 2303 2039 1999 2136 1537 1806 1743 1891 2036 1852 2000 1879 1676 1481 1745 2244 2561 2438 1748 2229 2552

GFSSGP_con_mucape_057.txt.gz
CAPE
0 0 42 24 135 437 476 430 592 394 128 125 94 132 212 244 514 777 283 472 450 291 1000 1512 2118 2107 2038 2015 2013 2097 2191 2123 2028 2022 2042 2272 2276 1724 1901 1825 1733 1655 1687 1184 1354 1538 1401 1772 1841
0 2 28 534 472 703 522 473 455 335 245 119 89 183 376 437 373 275 327 669 286 191 200 789 2388 2344 2271 2532 2374 2042 2056 2072 2010 2189 2267 2263 2075 1838 1614 1526 1762 1698 1765 1767 1661 1482 1791 1772 1773
0 1 442 134 530 569 329 660 539 269 250 183 182 308 481 235 314 390 383 274 185 100 355 1650 1945 2312 2238 2282 2433 2209 2342 2321 2276 2302 2141 2190 1985 1719 1698 1615 1585 1973 1660 1490 1587 1243 1290 1638 1716
12 17 446 675 366 189 219 770 375 151 372 205 429 532 391 352 192 232 212 146 218 138 596 1758 2105 1982 2145 2196 2292 2232 2106 2263 2262 2058 2116 1917 1906 1741 1682 1804 1593 1434 1681 1632 1486 1203 1269 1381 1511
22 548 588 636 491 185 217 583 627 257 182 326 471 598 329 205 142 298 215 66 270 304 699 1161 2088 2076 2193 2247 2158 2114 2213 2106 1964 1970 2074 2049 1963 1937 1943 2015 1852 1531 1513 1550 1328 1303 1270 1215 1360
483 715 663 383 475 483 572 294 552 109 89 257 597 361 290 209 100 210 198 106 218 145 306 1146 1939 1999 2103 2115 2120 1915 1992 2135 2196 2054 1967 1992 2038 2016 1791 1547 1380 1387 1348 1497 1402 1294 1406 1659 1586
547 655 471 404 236 180 101 312 385 348 546 353 544 743 235 201 60 58 127 68 167 197 311 1140 1555 1730 1979 1960 2015 1896 2008 2052 2001 2080 2016 2131 2000 1779 1550 1404 1404 1273 1212 1331 1151 1291 1406 1591 1632
599 644 380 299 311 440 522 408 684 723 442 585 679 661 331 270 66 30 89 81 151 263 187 800 1270 1053 1215 1785 2077 1942 1931 1962 1868 2099 2161 1908 1442 1038 1060 1912 1614 1197 1071 1203 1267 1457 1507 1765 1756
525 688 351 183 77 605 188 106 176 377 455 443 505 635 362 230 81 37 85 73 312 99 88 239 660 687 897 1742 1989 1958 1899 1875 2263 2122 1974 2060 851 1199 1072 1688 1321 1168 1119 1074 1126 1437 1475 1719 1663
443 626 157 326 186 364 291 350 607 464 516 575 387 587 191 172 74 48 107 70 197 116 138 64 245 498 669 783 1662 1808 1718 1574 1322 826 1880 1840 1679 1766 1080 1305 1463 1329 1238 1127 1173 1400 1436 1730 1228
439 407 294 103 184 56 232 453 580 731 467 441 516 409 125 228 148 155 76 43 114 117 73 98 247 452 503 1033 1127 1017 1273 1516 1580 1286 1231 883 827 849 1055 1231 1382 1379 1542 923 940 1036 1491 1438 1265
64 116 156 32 223 75 291 494 545 687 423 460 542 280 208 223 131 119 104 40 59 51 47 102 350 536 955 605 874 1739 1063 1129 792 1115 1121 1104 2145 1593 1564 1285 1643 1375 1473 1236 1445 603 1321 1423 757
14 37 443 310 233 48 18 0 97 691 586 623 551 278 226 196 114 63 139 36 25 37 26 136 427 778 1044 2223 1675 1360 811 566 725 1199 1211 1064 1399 1495 1595 1588 1079 982 1034 489 937 1553 1525 476 808
2 1 394 260 467 467 154 118 124 429 620 640 538 369 325 252 110 56 128 57 16 29 26 138 397 817 877 1680 1710 1352 865 1078 417 506 916 1102 2097 1853 1995 1184 1448 2142 1966 1826 1729 1960 1051 969 504
0 0 90 487 371 472 229 291 177 647 762 765 593 567 407 254 151 57 68 50 10 12 21 180 468 693 979 1451 1033 1205 1533 617 1197 549 1238 1080 1738 1656 2292 1070 1630 1953 1567 1312 841 242 98 81 639
0 0 136 345 346 276 94 102 140 780 888 942 766 523 444 309 226 82 61 47 71 9 18 285 271 557 822 1029 1250 1040 1384 1081 1446 878 1024 1332 1694 1873 1907 1639 1460 875 1121 1068 514 581 1090 84 795
0 0 2 233 123 120 96 187 317 710 873 1000 947 519 402 358 267 117 53 40 92 15 92 306 332 438 754 1142 1117 969 1197 1404 1359 1207 1712 1679 1750 1628 1754 1489 1486 1641 1100 933 730 1591 337 59 277
0 0 0 103 371 171 136 243 331 636 732 871 912 548 437 314 317 163 61 32 40 13 75 312 346 1093 1576 1182 1181 819 895 1095 1803 1308 1922 2128 2014 1437 1861 1797 1066 1585 1434 420 1412 275 1390 521 383
0 0 0 16 191 213 136 190 342 654 676 964 899 626 522 389 333 180 73 62 22 71 130 443 882 2151 1161 944 865 878 846 1219 1343 1684 1703 1930 2054 1544 1864 2089 1464 1478 1890 587 800 96 500 69 34
0 0 0 0 81 235 249 193 401 624 603 931 1007 657 532 502 343 242 125 69 24 148 249 1160 1307 2332 1436 952 1465 1275 1441 683 746 790 1880 1687 1523 1916 1572 1648 1425 1494 1435 1352 927 1025 671 198 306
0 0 0 3 79 374 239 214 317 450 577 787 952 705 378 532 393 292 197 123 45 166 419 1341 1964 2259 1867 1686 1320 1422 1459 1309 794 1577 1387 1838 1758 1748 1947 1609 2222 1558 1929 1145 1376 1361 2657 919 50
0 0 0 0 15 75 180 163 320 163 658 801 837 875 441 427 452 360 286 200 164 168 431 1432 1743 2390 1911 2072 981 2104 1037 751 667 1261 1079 1699 1929 1781 1903 1876 1722 2119 2096 2619 1828 1683 2207 2232 367
0 0 0 0 0 9 12 180 302 278 449 751 941 765 708 466 428 387 362 360 272 213 485 590 2097 2555 2285 2079 1832 1232 1671 693 647 607 3079 2954 3361 2064 1683 2257 1818 2052 1626 1786 1819 1790 1900 1024 1422
0 0 0 0 0 0 0 78 144 62 402 488 802 901 745 581 466 408 346 414 384 255 426 898 2333 2883 2804 2509 2039 2504 1802 1802 501 889 1551 979 1700 1919 2287 2047 2817 2112 1903 1970 1976 1949 1709 2681 1573
0 0 0 0 0 0 0 3 54 165 144 168 456 796 931 685 538 478 391 345 601 649 724 1310 2464 3022 2938 2492 1847 2007 2567 2652 3089 2544 917 1324 599 763 3142 3271 3022 2492 2556 2241 1934 2361 1972 2101 1500
0 0 0 0 0 0 0 0 1 12 216 80 20 445 735 857 729 550 467 423 859 954 1247 1290 2312 3048 3094 2627 2508 2022 2646 954 852 1645 932 655 461 601 3613 2623 2217 2365 2424 2352 2895 2150 1989 3036 1948
0 2 0 0 0 0 0 0 0 0 6 59 1 208 421 844 835 889 682 517 859 1123 1589 1544 2124 2782 2935 2116 2739 2711 2405 1889 694 1604 2556 1360 1697 817 1105 2124 2258 2118 2057 2666 2926 1816 3020 2518 2431
0 1 0 0 2 0 3 0 0 0 0 4 24 44 309 474 759 883 1063 856 692 747 953 1520 1967 2600 2514 2409 2807 2659 2529 2625 2182 2366 3325 2303 2464 2622 1450 1960 1651 2122 2630 2736 3675 2594 2768 3134 2309
0 0 8 38 5 0 9 0 1 0 0 0 1 2 42 313 576 789 1155 1171 1016 904 870 1041 1416 2159 2269 2428 2604 2323 2367 2248 2316 2995 3125 3334 2862 3267 3041 2668 2304 2271 2357 2785 3881 3639 2641 2746 3285
0 4 0 96 63 5 9 20 13 5 0 0 0 12 2 16 370 728 809 1093 1208 1194 1093 1149 1152 1160 1850 2270 2768 2484 2676 2249 2098 2314 2909 3319 3400 3029 3488 3141 2931 2432 2099 2970 3568 2624 2300 2691 2782

GFSSGP_con_mucape_060.txt.gz
CAPE
0 0 3 25 38 70 493 236 139 194 130 91 118 217 156 355 276 192 233 477 537 703 1226 1646 2178 1983 2006 1991 2282 2399 2481 2396 2579 2450 2348 2320 1687 2036 1833 1794 1761 1470 1592 1578 1597 1581 1937 1992 1768
0 1 61 633 341 455 337 108 279 146 148 100 191 187 282 284 171 160 440 302 252 725 1152 1210 2320 2605 2078 2080 2206 2344 2216 2136 2245 2463 2371 2294 1863 1714 1652 1614 1703 1956 1929 1847 1737 1707 1650 1779 2037
15 1 279 295 355 385 0 239 221 100 85 177 304 454 185 169 78 243 264 85 22 130 597 1528 2393 2685 2397 2314 2644 2404 2363 2225 2378 2254 2283 2113 2084 2064 1765 1775 1877 1590 1727 1604 1244 1678 1516 1880 1861
2 9 411 512 40 170 302 476 113 134 142 247 296 235 136 93 72 193 205 26 0 373 828 1834 2533 2400 2372 2254 2311 2378 2410 2340 2250 2203 2132 2059 2008 1802 1786 1463 1574 1704 1673 1471 1290 1272 1403 1423 1337
62 401 438 622 465 302 265 638 340 157 156 363 353 147 83 183 121 121 22 26 50 630 947 1429 2573 2290 2407 2124 2567 2300 2313 2231 2024 2218 2423 2201 1858 1916 2036 1949 1484 1703 1515 1261 1309 1279 1253 1282 1493
337 399 600 463 216 453 536 575 195 217 423 264 282 164 107 96 99 39 52 45 333 309 521 1119 1972 2032 2036 2213 2275 2238 2300 2141 2364 2267 2233 2080 2334 2169 1756 1416 1449 1431 1478 1377 1308 1498 1394 1315 1356
68 546 475 301 249 429 429 513 180 91 367 301 247 231 144 522 77 29 79 72 47 120 686 843 1127 1905 2029 2123 2194 2294 2309 2360 2688 2546 2449 2566 2222 1786 1654 1825 1572 1425 1375 1240 1331 1335 1515 1526 1307
398 590 428 219 206 251 290 196 343 363 321 421 509 299 138 45 120 54 68 44 87 138 413 1015 929 1409 1559 1751 2007 2106 2293 2537 1989 2103 2477 2263 1986 1240 1369 2176 1908 1195 1246 1270 1430 1518 1564 1560 1292
50 482 268 116 129 109 171 105 319 633 566 629 514 325 146 14 50 33 63 45 113 80 424 449 502 1258 2007 1941 1924 2028 2039 2047 2217 2027 2025 1835 993 1305 1230 1906 1926 1122 1101 1188 1221 1287 1818 1565 1148
38 436 144 166 171 453 608 255 623 372 313 354 545 481 131 9 49 39 47 46 11 8 82 188 530 929 1429 868 2091 2138 1795 1702 1573 1533 1310 1805 2033 1717 938 1439 2065 1476 1247 1154 1225 1364 1386 1310 1189
31 201 262 172 185 238 110 155 263 338 458 383 560 298 115 9 20 52 57 93 25 20 31 272 874 799 1186 1311 1967 1778 1712 1916 1664 2037 969 1724 1911 1645 644 1546 1119 1374 1577 901 1265 1440 1743 1058 1207
29 53 149 85 58 70 349 114 7 330 590 400 474 210 123 34 7 37 39 153 39 59 20 147 367 1727 976 1196 1627 671 1680 1567 1235 1377 1752 2790 1715 925 130 1071 1622 741 1554 1454 339 1138 962 151 471
15 45 47 167 110 63 153 274 143 433 251 360 374 150 123 35 10 63 47 74 48 20 45 181 428 1587 1161 1779 1767 1124 627 1216 1419 1400 1884 554 1420 885 778 1118 674 751 1124 550 735 999 1555 540 843
11 5 23 303 263 115 27 89 127 250 154 502 256 156 121 56 89 101 71 61 94 19 159 503 588 1344 1455 1641 1384 705 1339 999 1132 1022 1319 623 1508 1113 1436 1016 1023 366 608 1568 1655 1059 1327 291 863
0 0 6 185 173 278 218 27 33 138 468 482 196 181 188 138 87 87 117 79 101 34 218 415 591 812 1966 1404 2317 2495 1499 1218 1031 1695 2124 1809 1400 1680 2489 1236 2281 2274 207 2191 1008 1510 1177 886 889
0 0 0 66 390 207 409 164 261 374 430 498 262 189 242 122 53 43 121 55 65 45 504 233 56 538 1194 1225 2271 822 1562 1245 1797 1883 1789 1931 2513 2642 923 808 429 1210 2463 113 178 1283 640 910 347
0 0 0 22 480 388 116 203 275 205 539 502 351 267 241 205 115 58 75 75 39 317 717 387 885 796 1080 2244 1689 429 1447 1760 699 1754 1695 2608 2554 2499 653 86 665 2387 522 1527 736 1558 1077 52 893
0 0 0 0 188 263 154 290 283 106 292 567 369 407 434 112 118 62 54 50 40 330 554 530 1064 1533 1708 2153 2625 1794 1332 1341 2462 2216 1787 2824 2611 2297 2201 1719 2672 2785 583 1390 1973 409 989 1067 210
0 0 0 0 157 307 124 33 33 24 298 310 526 534 555 358 199 92 44 15 155 262 360 1100 1539 1943 1432 1624 1531 1131 1306 487 1937 1398 1549 3020 2865 2473 3326 2578 2218 1696 173 625 1915 1459 670 858 467
0 0 0 0 83 358 325 118 27 8 251 268 422 364 470 344 226 148 65 12 77 274 384 1111 1575 1910 1379 1659 1852 2134 958 576 128 1772 1990 2578 2687 2857 2992 2735 2557 1441 860 1729 1934 393 712 1662 954
0 0 0 0 23 164 105 188 46 7 136 373 404 354 416 431 381 252 108 69 54 338 439 841 1581 1770 1485 2044 1638 2619 2871 2047 912 2115 2354 2733 2914 2770 2698 2867 2639 2405 2072 2359 2006 1315 2207 1602 641
0 0 0 0 0 28 172 206 194 25 47 181 387 289 268 389 544 371 172 183 52 425 565 885 1607 2069 1440 2233 1432 2381 1967 2029 1365 2113 1602 2423 3066 2854 3035 2972 2966 2698 905 2396 2441 2123 1913 563 1385
0 0 0 0 0 0 0 79 237 581 248 109 186 328 166 476 457 447 255 231 93 472 555 885 1368 2145 1430 1529 2104 1830 2151 1593 2085 1427 1544 2669 3473 3287 2645 2893 3187 2765 2785 2833 2453 2104 2307 2433 1388
0 0 0 0 0 0 0 0 4 191 59 3 240 330 544 389 527 554 435 318 257 346 458 917 1304 1741 1786 1443 1619 2367 1594 2404 2047 2046 1731 2327 2555 2983 3213 2896 3243 3433 2611 2404 2854 3064 2753 2760 2999
0 0 0 0 0 0 0 0 0 67 314 92 34 62 868 587 595 639 620 495 388 342 573 871 1251 1462 1732 1556 1159 2159 1887 1847 2596 3175 1799 1732 2078 1918 2851 3535 3201 2987 3515 3164 2899 3167 3072 3189 3240
0 0 0 0 0 0 0 0 0 0 52 292 303 308 376 655 533 650 668 684 563 524 577 854 1405 1484 1604 2116 1153 1342 2278 1354 1443 2613 1520 2539 1552 1653 2639 3180 2848 3231 3261 3084 2920 3150 3083 2981 3158
0 0 0 0 0 0 0 0 0 0 0 188 190 229 71 253 327 737 793 676 861 774 674 1023 1457 1683 1894 1611 1897 1042 1767 1812 1033 2262 2547 2026 2391 2276 2731 2970 3421 3150 3328 3116 3164 2597 2764 2640 3181
0 0 1 0 0 0 0 0 0 0 0 32 103 69 19 15 34 267 921 777 927 876 1010 945 1602 1835 2086 1907 2009 1681 828 1663 1646 1114 2621 1882 2604 2317 2983 3218 3005 3182 3518 3661 3541 2905 3118 3051 2578
0 0 0 1 10 0 0 0 0 37 0 2 216 188 6 6 48 226 378 922 840 964 1155 1075 1141 2127 2345 2311 1979 1904 1572 1194 1126 1603 940 2342 2002 3990 3306 3733 3274 3062 3062 3650 3645 3077 3174 3116 3141
2 0 0 7 1 6 2 0 0 14 12 0 0 71 352 371 422 170 13 382 929 928 1060 1378 1246 1545 2167 2327 2144 2053 1996 1443 1339 797 1924 2188 2620 2608 3728 3292 3877 2998 3074 3135 3235 3240 2037 3053 3151

GFSSGP_con_mucape_063.txt.gz
CAPE
0 0 9 7 2 3 90 148 102 187 111 68 68 128 227 238 127 19 30 224 483 635 1284 1735 2102 1909 1933 2336 2270 2365 2460 2040 2441 2517 2535 1925 2165 2022 1884 1938 1500 1455 1829 1554 1722 1891 1966 1837 2052
0 0 13 43 17 124 94 335 243 153 120 120 101 183 183 101 93 41 180 279 755 972 1333 1413 2263 2209 1946 2284 2643 2810 2185 2115 2483 2478 2639 2328 1880 1837 1785 1823 1891 1926 2178 1802 1649 1768 1869 1995 2259
0 0 36 65 100 129 2 50 175 148 202 168 204 136 143 56 54 195 228 486 644 1061 1123 1380 2600 2555 2007 2028 2280 2482 2451 2185 2406 2345 2336 1958 1951 1810 2013 1739 1528 1850 1540 1671 1754 1668 1778 1853 1896
15 84 55 163 102 64 0 58 98 199 302 158 155 20 2 7 127 76 223 286 735 992 1404 2350 2548 2294 2217 2286 2423 2187 2318 2421 2278 2404 2052 1963 1940 1662 1482 1803 1623 1606 1437 1342 1321 1596 1379 1588 1664
13 26 190 112 361 213 238 138 243 377 345 270 105 5 1 12 0 9 1 215 617 993 1525 1969 2684 2586 2270 2172 2310 2230 2310 2116 2079 2455 1933 1917 1823 1986 1664 1438 1658 1421 1329 1317 1189 1175 1298 1321 1222
4 87 79 137 255 222 476 412 318 253 163 185 73 2 12 17 15 8 15 404 663 902 1410 1582 2178 2265 2149 2197 2042 2337 2016 2062 2153 2300 1892 2038 2113 1727 1504 1332 1513 1399 1349 1322 1370 1271 1184 1180 1062
8 160 101 227 235 361 374 98 189 300 103 70 49 7 17 37 43 22 238 265 382 615 1049 1461 1554 1779 1968 2271 2130 2082 2139 1986 2095 1980 1990 1938 1623 1585 1408 1504 1434 1359 1243 1229 1220 1236 1218 1258 1026
202 269 187 152 41 131 288 134 341 314 201 269 105 24 15 21 14 61 79 60 523 632 819 1179 1479 1495 1458 1698 2037 2093 2229 2185 2028 2074 1865 1750 1534 1409 1348 2171 1992 1257 1210 1264 1301 1265 1349 1159 1080
101 52 178 88 115 11 178 38 76 641 329 299 204 59 13 3 16 32 16 84 372 237 273 968 1094 1154 1349 1488 1724 2174 2107 1891 2045 1985 1683 1305 769 896 1082 1589 1737 1240 1215 1261 1293 1438 1477 1507 1365
11 151 40 54 88 13 90 32 18 37 130 417 377 55 16 0 9 14 20 0 57 264 227 418 811 1039 1120 1385 1539 1493 1481 1656 1596 1318 1054 802 687 540 942 1462 1894 1084 1182 1256 1359 1477 1521 1262 846
0 20 269 186 84 125 253 354 138 172 244 440 378 39 8 17 14 15 21 7 2 157 175 75 774 790 814 1059 1385 1370 1217 1345 1034 669 664 702 848 511 798 958 1040 822 1189 857 1336 877 460 624 805
5 6 336 209 186 81 205 83 17 111 295 448 184 63 0 8 8 6 10 12 10 1 63 204 584 672 476 1009 1166 1201 1013 1222 781 537 657 903 355 244 568 605 885 678 802 507 643 761 833 881 580
13 26 191 167 139 238 116 48 72 18 78 355 104 39 0 5 5 0 17 13 0 23 62 34 281 698 711 1075 1122 879 667 1006 728 635 518 491 527 271 206 494 406 434 674 780 223 575 486 226 468
2 14 77 199 194 240 250 108 53 0 105 412 130 33 11 2 0 13 25 28 11 22 20 223 214 496 745 840 584 218 284 721 392 371 244 195 747 631 488 274 365 201 481 374 233 709 993 572 423
0 2 16 280 253 216 81 255 16 203 182 313 170 37 22 0 1 22 26 25 9 13 15 98 127 288 743 356 483 387 491 473 383 400 438 646 656 36 760 740 439 399 523 1068 306 815 665 403 301
0 0 0 1 308 298 197 103 78 30 218 255 191 98 31 4 13 29 30 19 14 13 4 50 232 556 609 508 1088 471 419 701 707 666 657 1128 1126 561 537 327 594 501 779 458 105 413 285 586 436
0 0 0 0 170 353 263 281 245 41 306 343 147 275 64 37 54 27 22 15 8 0 0 0 9 301 134 367 655 205 331 576 755 508 778 1064 1324 904 102 61 569 1154 521 219 272 200 315 177 142
0 0 0 0 109 347 208 602 563 426 208 266 174 229 265 69 66 37 34 5 20 0 0 25 63 176 182 581 527 215 242 689 1163 898 794 1601 1038 1097 906 406 506 306 283 314 1158 217 135 182 87
0 0 0 0 0 275 270 503 589 169 9 12 178 255 104 120 51 24 30 10 35 0 0 77 220 158 668 802 684 757 541 443 1043 970 1333 1453 1091 1453 785 1106 1175 693 74 280 1137 464 531 82 74
0 0 0 0 0 296 295 415 316 60 125 221 171 171 147 65 61 17 15 1 0 20 0 113 329 300 598 686 713 595 677 246 692 962 577 1714 1263 1462 1186 734 1232 818 94 466 652 77 65 722 35
0 0 0 0 0 304 225 161 92 115 92 193 50 191 244 100 55 30 7 0 0 4 37 161 589 362 563 400 476 1234 590 187 213 989 967 1452 1562 1322 1607 1030 1128 597 1067 956 705 509 1009 734 316
0 0 0 0 0 1 224 191 167 170 142 283 261 217 329 178 71 57 26 0 21 0 39 432 690 437 621 594 319 625 739 408 285 915 1234 1546 1571 1332 1390 1586 1285 1109 817 1079 846 1083 908 630 243
0 0 0 0 0 0 0 0 264 153 130 300 162 187 263 276 213 166 79 1 31 0 0 407 861 541 300 817 389 404 752 997 672 800 1189 1502 1771 1649 1405 1419 1725 1249 721 910 1131 922 1118 1221 1370
0 0 0 0 0 0 0 0 0 51 132 45 51 12 205 271 273 210 219 106 5 22 4 220 957 474 365 394 1100 285 741 717 884 761 1344 1502 1873 1637 2021 1304 1544 1170 1246 1107 1253 1643 1294 1037 1590
0 0 0 0 0 0 0 0 0 28 118 152 81 126 252 222 343 291 242 182 132 141 64 133 599 846 358 290 398 1206 531 461 1088 1056 872 1277 1496 1846 2010 1453 1721 1763 1259 1443 1401 1494 1910 1513 1643
0 0 0 0 0 0 0 0 0 76 476 274 130 157 284 200 312 370 342 245 206 199 182 253 301 662 620 262 233 462 1341 281 575 1072 1009 1145 1319 1284 1492 1553 1578 1620 1914 1369 1556 1294 1756 1414 1950
0 0 0 0 0 0 0 0 0 0 329 502 345 56 265 491 291 429 402 331 280 164 192 317 369 327 734 565 93 307 991 603 362 557 994 1170 1396 1155 1366 2116 1544 1567 1769 1673 1547 1422 1860 1811 1800
0 0 0 0 0 0 0 0 0 0 0 292 299 219 413 522 507 415 464 335 326 226 239 228 482 447 687 706 445 73 363 1147 449 345 750 1140 469 1308 1356 2164 1591 1941 1780 1447 1747 1177 1520 1538 1383
0 0 0 0 0 0 0 0 0 0 0 349 369 392 490 370 237 232 335 519 435 301 181 307 636 523 638 589 885 323 73 606 853 512 223 957 731 1381 1988 1918 2309 2135 1877 2073 2011 1426 1736 1502 1290
0 0 0 0 0 0 0 0 0 0 0 3 419 366 485 444 165 235 196 413 520 534 406 273 530 795 766 813 709 965 331 97 647 594 587 200 857 877 1931 2061 2041 2043 2055 2162 2094 1911 1604 1761 1836

GFSSGP_con_mucape_066.txt.gz
CAPE
0 0 0 0 0 0 18 21 55 202 86 30 19 18 153 175 274 0 76 431 741 969 1354 1867 2447 2137 2326 2398 2472 2309 2066 1849 2329 2285 1979 2129 1965 1924 1890 1310 1611 1909 1446 1868 1879 1957 2083 2151 2359
0 0 4 13 0 70 61 84 115 172 85 50 170 210 197 114 120 32 248 356 570 1137 1466 1692 2417 2558 2267 2165 2421 2542 2060 2078 2397 2042 2221 2052 1881 1953 2069 1908 2092 1884 1757 1930 2057 1844 2078 2266 2076
0 1 43 51 14 64 0 37 29 133 181 182 176 160 118 94 46 102 327 671 921 1328 1337 1598 2418 2621 2107 2406 2484 2517 2238 2209 2200 2018 2074 1905 1829 1976 1596 1755 1791 1793 1785 1773 1944 1926 1887 2048 1904
2 2 7 45 76 0 0 24 68 127 174 156 67 66 52 84 128 217 611 835 975 1103 1337 2278 2305 1935 2031 2247 2223 2246 2228 2388 2277 2141 2101 1923 1767 1810 1644 1571 1584 1355 1469 1888 1681 1592 1753 1763 2063
19 0 93 100 160 2 42 104 187 192 98 63 12 0 19 101 159 442 535 743 910 1264 1693 2002 2761 2683 2384 2202 2251 2256 2137 2279 2185 2032 1925 1896 1750 1461 1807 1674 1417 1338 1212 1171 1228 1328 1463 1758 1981
8 7 95 65 176 130 138 193 371 177 166 30 6 0 7 69 237 384 592 768 878 1318 1719 1842 2433 2427 2452 2338 2301 2155 2164 2059 2149 2083 1842 1955 1949 1739 1557 1565 1421 1378 1424 1327 1219 1171 1312 1388 1509
8 86 12 152 218 206 296 261 165 61 76 31 9 0 0 68 167 321 529 587 1078 1380 1516 1653 1802 1975 2141 2404 2126 2050 2068 2160 2093 1879 2158 1684 1529 1457 1393 1583 1482 1314 1309 1195 1101 1139 1120 1160 1325
76 120 163 104 108 203 219 152 343 152 124 62 0 0 0 7 89 244 289 535 805 1044 1232 1407 1571 1652 1828 1862 2097 2099 2029 2063 1971 1864 1618 1660 1684 1446 1556 1974 1858 1337 1293 1223 1208 1322 1338 1282 1151
99 54 107 58 80 175 300 150 474 597 177 134 195 11 0 40 60 88 232 363 506 904 1157 1423 1345 1346 1559 1620 1831 2252 2129 1982 1906 1725 1474 1624 900 950 899 1457 1746 1353 1358 1321 1284 1389 1349 1574 1335
269 87 146 60 157 174 203 109 483 365 176 212 119 24 13 45 67 71 204 207 247 479 864 992 1150 1207 1435 1574 1734 1735 1538 1432 1296 1123 862 565 767 764 884 1102 1462 1295 1289 1372 1420 1499 1358 1054 676
118 101 153 149 216 165 239 253 134 129 321 545 94 7 8 17 43 58 108 76 13 122 564 736 953 1014 1208 1419 1465 1294 1322 1238 892 532 509 683 605 1008 925 1067 986 918 1087 1012 908 415 462 241 640
1 2 20 237 314 366 173 97 100 367 453 326 284 28 0 1 16 28 4 61 32 67 322 591 881 781 937 1143 1135 1038 1020 1090 640 385 515 464 321 376 458 564 624 511 613 444 551 469 618 794 599
0 0 7 138 327 384 110 106 107 56 170 312 123 28 32 23 5 29 13 39 137 99 104 539 583 758 633 963 819 918 862 936 560 383 527 378 87 51 292 523 691 570 509 347 82 120 339 462 379
0 0 0 214 347 280 150 114 51 8 101 303 334 13 11 3 7 1 24 30 89 48 3 421 452 529 555 873 835 818 794 886 399 387 256 207 139 128 326 165 192 278 281 666 219 234 510 404 411
0 0 2 215 260 355 318 219 151 140 529 534 211 50 22 21 4 11 10 0 64 0 42 270 426 414 609 799 528 697 451 650 302 188 0 264 490 363 461 9 105 89 219 335 197 287 557 643 249
0 0 0 165 261 285 213 208 155 156 257 419 230 467 20 19 8 10 29 2 41 30 50 71 419 476 714 629 320 251 206 442 123 122 314 608 154 86 510 188 309 406 608 606 175 596 620 265 173
0 0 0 0 292 273 244 217 128 351 349 286 245 76 18 20 23 36 22 1 7 0 116 166 315 287 147 916 314 466 482 363 223 290 645 889 460 349 143 109 299 543 537 106 62 414 160 256 250
0 0 0 1 93 318 286 481 117 225 536 453 301 55 44 15 15 41 48 6 0 6 89 112 204 245 181 622 326 172 464 360 270 384 819 1149 836 280 116 282 411 108 258 252 429 93 109 205 273
0 0 0 0 0 322 275 513 194 346 101 203 206 178 50 1 11 70 29 0 2 0 0 210 314 178 174 297 404 94 369 540 545 367 660 878 913 743 723 399 691 240 91 528 166 46 260 112 67
0 0 0 0 14 51 390 537 222 431 81 139 236 201 122 78 63 96 58 19 13 1 0 0 156 90 350 317 254 414 309 717 868 568 996 882 965 992 522 907 869 139 120 565 89 54 301 209 45
0 0 0 0 44 475 425 501 497 360 92 207 321 344 281 120 149 120 30 25 21 0 40 35 123 100 454 251 400 566 444 325 690 714 847 1244 885 1232 851 896 894 367 55 352 235 218 362 118 111
0 0 0 0 0 15 173 95 231 155 48 386 483 364 278 139 146 77 49 68 20 19 3 65 176 109 435 469 359 808 483 210 403 650 624 1011 1224 1108 1235 861 727 440 628 652 580 928 519 252 97
0 0 0 0 0 0 0 1 4 66 60 390 550 345 254 159 125 119 63 65 0 0 0 239 206 160 264 453 183 425 745 406 140 527 774 840 1304 1026 1105 1272 964 706 473 635 624 664 833 961 923
0 0 0 0 0 0 0 0 0 58 66 387 484 264 232 216 224 173 159 72 85 72 0 392 236 177 255 258 196 101 478 642 438 343 788 926 1395 1146 972 1077 1228 766 526 592 835 907 943 762 1090
0 0 0 0 0 0 0 0 0 127 179 188 549 409 392 203 350 224 224 217 176 135 53 390 310 178 177 284 550 146 332 471 779 580 697 956 1396 1258 1299 1039 1175 889 706 844 871 1094 1345 846 1080
0 0 0 0 0 0 0 0 0 0 195 272 485 446 395 156 425 324 287 332 301 228 145 294 374 234 120 225 389 703 341 221 499 841 693 921 1222 1267 1275 1297 1068 1241 1003 1101 938 1214 1146 1312 1384
0 0 0 0 0 0 0 0 0 0 43 164 242 240 189 497 465 407 382 388 279 232 157 175 399 234 148 66 56 186 723 636 319 753 870 969 908 1016 1291 1557 1252 1253 1293 922 1156 1165 1035 1425 1209
0 0 0 0 0 0 0 0 0 0 0 199 190 232 291 356 432 492 469 456 387 291 240 160 137 299 251 119 58 0 204 584 754 342 670 1002 998 1049 1036 1602 1457 1151 1250 1230 962 1106 1137 1434 1209
0 0 0 0 0 0 0 0 0 0 0 7 263 262 197 349 349 485 500 449 434 422 393 303 249 144 451 346 153 37 17 227 793 660 267 745 1162 1086 1116 1422 1528 1376 1222 1243 1240 1149 901 1208 1234
0 0 0 0 0 0 0 0 0 0 0 22 226 146 260 333 397 386 473 468 404 373 369 314 251 222 173 458 356 163 0 60 339 792 540 217 811 804 1165 1350 1578 1479 1304 1318 1220 1366 1191 1164 1411

GFSSGP_con_mucape_069.txt.gz
CAPE
11 0 0 0 0 2 2 131 108 204 171 4 0 0 22 166 255 0 16 348 149 493 1383 1879 2437 2081 2282 2499 2296 2103 1662 2253 2152 2025 2018 1795 1985 1622 1720 1584 1490 1878 2044 1870 1990 2187 2366 2505 2333
2 0 3 36 2 91 67 2 93 212 245 4 36 85 207 124 184 103 346 523 459 982 1480 1823 2581 2647 2430 2427 2354 2028 1917 2503 2003 2213 2134 2007 2163 1817 1635 1905 1805 1591 1829 1943 1972 1981 2211 2158 2011
8 1 45 61 17 64 0 41 137 158 113 74 197 124 123 126 57 75 457 508 689 1144 1500 1596 2323 2523 2328 2299 2283 2143 2060 2396 1953 2315 1884 1923 1938 1980 1870 1879 1704 1672 1576 1732 1863 1986 2115 1986 1922
0 3 6 36 72 25 0 40 67 138 153 148 134 110 70 96 33 291 406 684 1042 1198 1355 2096 2090 2021 2272 2355 2253 2211 2103 2134 1960 2026 1927 1869 1852 1440 1770 1467 1529 1703 1554 1682 1677 1742 1859 1959 1874
29 0 37 131 130 3 0 0 47 128 143 72 70 51 63 126 376 486 589 805 945 1084 1521 1670 2405 2175 2322 2278 2272 2173 2111 2097 1994 1753 1846 1616 1861 1746 1682 1504 1323 1202 1289 1337 1361 1667 1852 1785 1708
2 17 77 136 171 30 64 133 129 296 103 58 45 24 56 325 425 595 651 757 989 1373 1645 1911 2236 1997 1961 1965 2115 2114 1983 1981 1985 1791 1869 1801 1459 1700 1529 1498 1377 1315 1112 1104 1406 1511 1722 1820 1847
9 96 31 152 35 42 281 278 150 66 48 37 43 37 210 276 405 575 654 830 1219 1488 1756 1838 1929 1959 1969 2068 2070 2076 2003 2017 1885 1759 1807 1758 1714 1518 1622 1420 1354 1163 1188 1170 1212 1296 1492 1628 1723
149 166 110 47 96 247 323 280 199 92 77 29 9 27 152 202 447 522 531 881 1240 1379 1430 1668 1673 1693 1802 1825 2028 2046 2053 2112 1815 1823 1517 1581 1326 1504 1624 1821 1737 1285 1147 1253 1307 1366 1481 1294 1622
177 141 40 52 98 232 180 190 394 355 37 15 200 10 61 199 358 373 503 599 978 1147 1326 1424 1661 1704 1651 1610 1634 1736 1979 1788 1637 1510 1722 1539 1018 1152 1124 1504 1497 1397 1308 1127 1209 1178 1322 1438 1414
238 173 61 67 150 284 267 259 394 126 150 174 18 12 87 181 257 203 260 440 657 842 1192 1345 1300 1442 1591 1683 1853 1594 1463 1510 1346 1143 957 784 873 738 1005 1311 1419 1366 1385 1413 1476 1235 1545 1095 720
181 132 56 100 228 334 280 368 239 170 168 132 33 63 70 92 127 109 143 290 496 740 1093 1105 1057 1297 1382 1561 1699 1471 1323 1088 1154 772 528 649 727 1091 986 1127 1088 1059 1090 1086 759 1089 650 431 717
81 29 149 56 410 300 258 204 241 240 468 162 125 59 37 50 95 101 46 76 311 546 719 866 937 1170 1297 1480 1465 1158 1082 908 524 427 499 702 657 710 769 734 614 624 473 480 466 371 599 742 616
52 20 0 0 290 343 62 55 227 383 607 410 97 65 63 37 117 122 45 31 64 288 487 706 874 838 1064 1277 1147 987 842 840 497 401 534 435 271 248 421 445 601 392 539 402 172 282 350 364 507
1 1 0 0 314 334 143 110 75 114 196 429 453 47 46 49 49 60 84 70 68 124 375 574 790 652 723 941 811 717 718 848 725 444 538 266 135 275 358 571 548 503 406 570 274 228 411 590 525
0 0 0 242 379 369 168 104 146 63 64 312 196 37 50 24 23 60 65 124 98 91 239 541 577 640 499 707 627 667 719 882 542 454 338 258 191 183 310 219 151 276 226 551 532 374 533 739 336
0 0 0 316 379 304 258 269 104 314 73 94 131 21 55 11 19 56 51 123 119 96 127 411 372 501 368 562 681 695 718 718 559 330 168 275 419 338 504 75 98 148 284 416 455 402 482 524 290
0 0 0 182 293 355 243 222 189 390 451 286 107 19 25 29 18 29 28 43 131 123 96 269 330 395 294 552 467 451 502 623 493 233 166 406 289 230 490 145 292 416 491 567 241 483 440 273 256
0 0 0 0 225 319 249 203 248 348 412 435 175 36 10 56 9 8 12 9 123 120 101 212 341 413 319 603 408 464 471 329 420 216 359 681 272 322 187 138 325 630 487 84 97 327 197 212 212
0 0 0 0 0 221 208 345 149 311 379 422 276 67 49 46 3 9 14 8 40 88 84 116 287 383 397 514 241 373 445 442 386 254 483 894 770 309 44 294 307 78 183 270 245 66 123 178 183
0 0 1 1 3 0 7 339 240 342 446 496 314 81 44 3 1 2 19 9 10 69 60 121 249 168 229 472 241 205 406 393 401 272 559 863 837 676 520 343 768 143 237 126 116 98 177 122 84
0 0 5 0 1 440 351 398 258 190 216 363 272 213 61 4 9 1 6 0 3 1 41 159 206 136 147 294 260 248 421 584 599 489 637 945 860 877 612 799 708 536 121 95 36 61 70 28 37
0 0 0 0 0 0 200 26 350 194 287 89 93 325 175 43 7 27 0 0 0 0 8 91 125 138 136 210 194 299 295 403 705 609 721 1151 1001 1164 1141 757 823 408 74 353 479 563 236 44 23
0 0 0 0 0 0 10 0 0 78 161 239 149 282 313 176 99 57 20 40 48 0 0 0 0 82 112 217 161 326 244 308 329 686 690 660 1123 1045 1161 861 862 486 528 367 506 675 441 630 238
0 0 0 0 0 0 0 0 0 39 70 116 133 379 303 225 125 70 92 53 94 0 0 0 0 0 87 221 185 184 421 398 294 231 522 678 903 1211 1026 1017 1021 819 448 547 523 592 710 812 842
0 0 0 0 0 0 0 0 0 6 131 116 114 396 401 258 206 145 174 117 104 42 9 0 0 0 43 147 150 139 183 453 563 372 258 636 759 1111 1173 896 1145 856 623 509 580 853 929 717 866
0 0 0 0 0 0 0 0 0 0 0 53 58 192 464 330 248 232 186 155 126 77 41 60 30 21 19 96 134 113 51 116 423 543 685 489 773 1056 1224 1021 1014 1169 899 593 783 868 1195 1304 758
0 0 0 0 0 0 0 0 0 0 0 15 64 267 405 393 155 218 243 182 156 137 123 191 121 68 0 69 84 123 68 3 283 365 657 699 685 992 1220 1147 1073 992 1016 853 882 914 1078 1143 1179
0 0 0 0 0 0 0 0 0 0 0 69 44 188 365 342 316 171 265 247 184 194 209 290 247 201 117 27 61 82 195 201 94 254 485 894 861 820 1024 1190 1215 1238 1127 1172 938 1176 1116 1048 1197
0 0 0 0 0 0 0 0 0 0 0 8 64 26 114 288 279 248 221 315 291 269 304 313 266 319 256 184 78 62 84 266 507 395 243 433 822 878 905 1000 1268 1355 1388 1200 1249 883 1004 1120 1226
0 0 0 0 0 0 0 0 0 0 0 46 142 59 32 66 189 198 206 313 262 304 319 351 339 312 317 292 98 70 32 49 194 370 445 409 267 728 1055 1004 1206 1306 1383 1344 1134 1125 1038 1065 948

GFSSGP_con_mucape_072.txt.gz
CAPE
5 0 0 0 0 0 0 68 89 114 62 5 0 0 0 27 94 0 0 0 0 475 1316 1825 2393 2327 2477 2109 2011 1575 2316 2148 2135 2078 1851 1695 1680 2302 1912 1433 2111 2099 1993 2069 2170 2263 2217 2233 2162
0 0 0 20 0 21 79 19 142 210 159 19 0 57 130 113 241 7 194 2 24 836 1454 1792 2527 2624 2422 2250 2071 1707 2214 2107 2151 2119 2090 2224 1744 1548 2050 1838 1551 1802 1926 1915 1820 2044 2120 2272 2273
2 0 31 78 8 17 0 44 130 122 47 0 105 84 114 143 47 16 144 0 496 1212 1448 1615 2248 2596 2277 2194 2056 1894 2260 1918 2172 2104 2011 2081 2054 1889 1816 1758 1679 1502 1709 1911 1996 1958 2105 1976 1895
12 0 0 12 105 92 2 45 96 99 180 225 132 78 65 112 3 242 139 258 766 1188 1375 2159 2268 2227 2230 2174 2071 2050 2244 1864 2073 1873 1861 1735 1605 1859 1574 1778 1572 1643 1634 1730 1817 1989 1872 1900 1989
28 1 10 84 92 59 6 16 81 207 134 139 71 42 25 238 221 230 291 452 823 1149 1382 1694 2404 2230 2270 2254 2159 1936 2019 1989 2008 1899 1846 1683 1567 1647 1530 1373 1542 1545 1420 1546 1508 1842 1788 1888 1849
23 23 37 88 87 61 85 6 66 173 113 82 52 48 154 224 210 281 393 526 765 1120 1400 1540 1946 2191 2205 2175 2150 1858 1998 1843 1809 1666 1755 1507 1724 1511 1327 1298 1067 1042 1250 1469 1724 1621 1798 1956 2059
28 27 0 64 37 3 165 247 212 125 86 53 41 73 261 249 287 331 468 668 1008 1293 1476 1517 1394 1594 1906 1955 1877 1821 1921 1785 1722 1857 1760 1606 1475 1478 1475 1451 1254 1115 1117 1424 1524 1753 1916 2023 2068
61 108 95 67 106 55 113 175 93 117 26 0 0 23 217 269 350 391 660 889 1149 1355 1493 1662 1529 1389 1415 1637 1815 1910 1843 1847 1688 1694 1531 1470 1306 1250 1459 1500 1679 1187 1193 1417 1548 1732 1621 1979 2135
137 186 38 27 37 204 242 76 265 223 15 27 134 30 112 393 330 346 619 672 797 1177 1285 1286 1381 1399 1548 1576 1622 1818 2041 1553 1657 1419 1440 1150 1055 1227 1192 1485 1408 1241 1261 1446 1592 1608 1620 1768 1773
178 171 10 38 45 217 360 155 148 66 15 21 29 107 294 298 256 175 217 228 490 851 1106 1203 1289 1233 1309 1663 1212 1212 1335 1229 1184 1295 1005 832 988 972 1215 1464 1475 1335 1179 1178 1191 1337 1763 1165 1073
257 138 51 92 314 307 291 246 344 156 252 24 60 158 316 362 143 135 41 25 180 579 909 1101 1154 1219 1315 1487 1221 1280 1214 1161 1099 826 676 755 553 985 1183 1250 1145 1196 1290 1382 1275 1145 738 754 1012
128 26 8 111 337 291 295 217 278 205 329 37 42 131 146 167 95 84 86 113 184 548 729 855 839 1049 1179 1418 1277 1131 926 801 685 493 518 577 644 791 756 833 765 715 549 644 596 539 796 937 674
73 24 2 0 295 336 298 241 268 388 100 51 75 73 102 109 46 18 45 107 189 449 671 629 699 918 1041 1188 1062 829 768 615 320 367 457 574 518 384 389 326 482 358 543 391 235 429 520 541 587
10 0 1 0 10 198 109 203 202 597 220 100 83 43 42 79 26 0 0 0 119 292 408 482 574 783 890 982 811 592 497 577 519 293 502 362 159 136 351 465 535 502 458 526 300 342 460 762 547
0 0 0 283 205 158 149 157 86 358 567 460 176 58 11 47 52 6 38 0 19 94 188 357 467 467 612 734 565 396 446 634 699 588 416 426 208 169 287 395 435 377 341 510 596 431 567 611 433
10 15 10 306 418 257 158 132 134 257 168 357 120 54 11 40 39 24 17 17 8 5 124 268 384 274 353 440 318 238 362 550 711 443 330 391 265 158 297 261 140 222 324 457 523 424 557 446 371
10 0 0 90 403 305 169 163 196 394 108 212 182 70 27 49 62 25 20 28 23 17 83 237 309 263 244 236 243 332 462 561 591 465 240 208 345 327 434 117 175 408 518 494 274 477 551 336 408
0 0 0 0 272 346 282 160 196 542 474 177 119 84 33 55 63 11 19 39 41 29 40 178 217 234 199 169 321 374 362 414 509 356 138 230 367 190 335 196 327 459 395 472 140 362 291 282 310
0 0 0 0 0 224 188 176 175 291 581 336 41 38 23 28 48 9 0 17 36 45 30 94 161 211 155 139 383 262 242 250 203 393 156 487 366 330 141 206 320 383 361 143 216 181 330 318 371
0 0 0 0 0 0 0 169 210 336 402 465 277 34 32 5 44 31 5 8 15 36 35 26 113 193 186 197 343 270 321 303 188 283 204 496 642 280 69 177 443 121 225 366 239 97 220 219 165
0 0 0 2 0 392 221 194 182 169 396 312 471 195 27 24 36 51 0 0 0 6 24 5 20 167 240 226 193 240 233 259 278 286 222 611 634 599 573 365 493 148 214 104 126 109 161 145 155
0 0 0 24 0 0 246 54 103 253 214 211 403 398 118 15 34 28 0 0 0 0 3 12 10 105 217 278 195 109 197 259 285 290 220 645 740 785 765 491 541 472 236 173 103 308 134 35 75
0 0 0 7 4 0 36 0 0 187 200 170 268 304 251 135 37 44 24 0 0 0 0 0 3 9 117 188 220 107 144 268 335 442 422 448 912 875 990 720 729 461 236 288 575 582 325 265 74
0 0 0 5 3 0 0 0 0 1 36 79 97 161 128 227 109 37 29 5 3 5 0 0 0 41 84 46 138 141 144 203 209 310 440 512 500 929 909 1015 860 660 461 386 348 503 593 783 743
0 0 0 0 0 0 0 0 0 0 1 1 6 65 105 142 253 125 61 14 9 30 63 18 29 16 18 1 70 102 90 120 155 160 256 493 463 680 1018 917 961 803 724 390 519 554 628 529 849
0 0 0 0 0 0 0 0 0 0 0 0 0 64 200 193 229 261 162 73 0 19 28 88 6 19 0 0 1 85 78 104 139 175 220 176 423 651 814 987 872 870 819 629 552 582 869 920 759
0 0 0 0 0 0 0 0 0 0 0 1 10 33 100 358 228 238 279 179 82 67 85 137 71 38 0 0 0 87 126 89 208 386 471 447 446 705 950 915 988 846 945 926 616 754 827 989 1087
0 0 0 0 0 0 0 0 0 0 0 0 56 38 53 348 421 274 288 290 218 163 206 180 137 147 112 97 54 39 54 76 40 115 368 438 590 639 912 980 951 1005 947 994 909 824 905 960 978
0 0 0 0 0 0 0 0 0 0 0 2 64 105 56 70 435 407 322 287 283 240 221 226 172 190 210 215 174 65 55 45 0 0 110 343 466 733 831 988 1126 1000 910 968 1032 968 834 947 1046
0 0 0 0 0 0 0 0 0 0 0 1 111 129 173 98 119 445 341 241 186 237 249 267 167 110 226 243 255 156 41 59 104 0 0 101 363 432 705 858 1095 1156 1062 1049 1188 1218 1073 842 884

GFSSGP_con_mucape_075.txt.gz
CAPE
3 0 0 0 0 15 38 145 110 171 50 3 0 0 0 0 146 174 13 64 156 805 1195 1665 2697 2219 2120 1760 1646 2374 1984 2371 1957 1610 1446 1719 2352 1602 1582 2078 1953 2052 2202 2055 2282 2106 2311 2462 2306
1 0 0 116 4 78 76 66 109 220 26 1 0 0 149 161 159 8 79 34 325 773 1073 1549 2567 2849 2077 1945 1690 2293 1968 2219 2073 2139 2018 1602 1513 1778 1572 1770 1945 1900 2020 1995 2219 2122 2413 2231 2131
0 0 133 295 81 34 0 74 136 135 24 5 135 106 252 99 44 0 39 74 451 950 1196 1698 2201 2523 2247 2128 1843 2314 1973 1990 1978 1665 1454 1668 1787 1693 1733 1714 1738 1917 1961 2194 2192 2185 2189 1938 1980
0 0 12 84 83 25 0 45 136 18 69 199 170 225 57 39 0 85 0 196 557 997 1136 1862 2136 2186 2153 2091 1950 2188 1891 1998 1790 1852 1742 1754 1649 1666 1788 1677 1598 1659 1907 2068 2097 2011 1925 1875 2056
13 3 102 117 119 64 33 18 101 95 229 183 133 61 19 57 263 0 26 250 548 932 1321 1758 2559 2265 2074 1979 1955 2041 1737 1938 1765 1686 1702 1609 1702 1487 1570 1631 1626 1613 1637 1698 1864 1887 1911 2147 2480
33 29 62 68 68 44 103 21 90 265 194 78 57 105 246 257 18 0 35 282 563 913 1188 1541 2129 2194 2196 2045 1851 1875 1849 1698 1673 1616 1593 1608 1603 1323 1322 1087 1277 1357 1599 1785 1774 1773 1944 2294 2432
24 150 21 53 9 30 139 132 67 143 134 80 29 166 128 111 1 0 74 457 696 972 1145 1368 1612 2140 2091 1934 1830 1782 1739 1635 1662 1702 1681 1598 1436 1373 1373 1276 1273 1275 1733 1785 1876 2075 2144 2313 2362
99 206 158 72 24 4 187 196 206 101 65 37 77 98 37 69 59 47 222 544 813 927 967 861 1140 1648 1495 1566 1718 1737 1709 1634 1738 1431 1577 1401 1388 1152 1282 1460 1714 1359 1630 1770 1885 1840 2212 2238 2232
202 265 92 31 130 197 148 77 216 198 28 34 95 55 29 104 103 76 370 689 878 826 1122 1460 1334 1512 1806 1686 1716 1687 1725 1584 1507 1433 1793 1590 1502 1122 1026 1469 1429 1387 1684 1783 1732 1752 2034 1970 2123
371 398 52 117 234 380 130 163 141 33 83 164 123 91 144 156 63 69 167 284 492 957 1069 1221 1347 1567 1531 1328 1763 1852 1193 1664 1858 1616 1534 1487 1498 1289 1151 1493 1302 1238 1444 1500 1491 1837 1804 1236 1638
368 401 147 194 343 393 155 202 188 22 99 115 134 84 99 71 13 84 184 271 280 699 902 1007 1360 1435 1256 1560 1169 1182 1332 1386 1467 1373 1284 1363 1296 1466 1303 1437 1300 1498 1573 1430 1441 1340 1211 1453 1507
221 96 101 153 468 356 321 255 220 186 114 68 112 87 87 86 62 95 147 156 157 336 829 1084 1208 1323 1469 1424 854 1231 1231 1197 975 1093 1367 1298 1091 1417 1715 1296 1486 1367 1228 1396 1440 1224 1449 1584 1442
25 65 0 9 307 309 432 254 262 202 50 128 127 73 74 84 76 91 42 16 173 193 689 1016 1244 1457 1686 1557 1110 1118 1072 922 970 1062 1123 1134 931 1171 1185 1222 1140 1248 1386 1191 1105 1333 1413 1633 1461
56 2 0 2 52 449 411 404 124 194 27 91 210 222 234 169 99 50 6 69 147 267 592 678 819 1241 1507 1221 1355 1136 1055 952 855 971 1235 1169 796 1052 961 1137 1237 1321 1273 1209 1161 1437 1470 1725 1361
75 1 27 233 86 259 316 372 288 233 53 78 120 114 96 67 68 71 34 60 137 324 545 580 761 973 1306 1313 1059 878 868 875 1127 1047 1150 1208 867 891 1295 1325 1368 1244 1335 1585 1586 1339 1573 1246 1394
84 0 0 429 352 294 248 137 241 284 101 91 37 67 134 140 99 126 38 5 82 197 486 574 437 727 986 931 880 739 912 1121 1212 1102 1077 1240 1115 908 1266 1148 1101 1109 1296 1428 1480 1330 1454 1198 1202
70 15 4 309 518 494 422 278 271 470 251 169 70 78 36 79 118 153 80 16 21 136 330 499 598 543 770 981 675 840 1002 1098 1191 1142 956 1157 1096 1107 1192 1240 1005 1418 1464 1404 1043 1456 1470 1218 1203
48 0 0 30 624 553 540 342 409 354 242 542 286 154 104 76 123 150 157 31 21 27 298 465 659 612 812 810 820 748 954 1082 1211 1101 1064 891 1165 1189 1250 995 1295 1505 1346 1313 862 1495 1230 1158 1160
14 12 0 0 115 150 125 216 633 774 262 473 428 320 111 102 141 194 149 40 24 25 243 555 663 762 721 624 638 960 919 1056 1061 1166 1194 1028 1476 1119 1215 1155 1353 1438 1424 1323 1265 1210 1457 1118 1162
0 0 0 0 0 16 8 118 472 645 535 469 456 185 113 88 79 88 129 89 32 36 158 537 690 838 798 629 906 896 1038 1044 987 1232 1163 1278 1625 1510 1093 924 1325 1228 1198 1528 1554 1238 994 962 856
0 0 0 0 0 451 299 443 418 492 624 586 336 158 95 84 66 42 75 93 110 86 217 448 764 852 845 698 846 816 1082 1159 1092 1075 1164 1219 1563 1591 1565 1185 1570 1331 1266 1191 1353 1121 1496 958 852
0 0 0 0 0 0 307 29 330 484 625 553 707 364 231 131 81 19 15 26 116 174 287 382 678 868 876 932 822 1002 1006 996 1046 1377 1312 1300 1663 1766 1726 1695 1727 1518 1006 1201 895 1176 1218 1032 931
0 0 0 0 0 0 45 10 13 443 507 415 355 649 478 202 111 68 42 13 16 160 275 350 676 912 979 970 1249 1019 1198 1035 1225 1323 1572 1522 1912 1835 1872 1852 1861 1850 1528 1644 1847 1810 1566 1069 698
0 0 0 0 0 0 0 0 0 0 0 10 205 276 569 438 140 91 95 78 77 86 199 289 559 1001 890 966 1086 1155 1200 1107 1031 1325 1397 1351 1537 2027 2092 2014 2062 1712 1613 1518 1664 2083 1955 2037 1855
0 0 0 0 0 0 0 0 0 0 16 21 29 19 364 575 421 122 72 57 120 127 189 234 470 781 690 803 970 1109 1144 1376 1535 1643 1389 1457 1497 1582 2046 2237 2452 2421 1933 1800 1785 1949 2032 2004 1716
0 0 0 0 0 0 0 0 0 0 40 18 61 133 58 445 589 387 122 105 139 159 263 269 410 877 654 729 1103 1302 1188 987 998 1394 1148 1383 1364 1534 1955 2330 2175 2202 1989 1807 1850 1804 1764 1966 1855
0 0 0 0 0 0 0 0 0 0 26 14 20 35 108 342 258 557 427 200 193 208 300 359 561 727 608 639 986 1136 1198 1139 1085 1197 1385 1202 1531 1285 1884 2004 2276 2182 2197 2126 2041 1652 2325 2459 2237
0 0 0 0 0 0 0 0 0 1 35 7 31 121 66 129 498 546 714 342 326 253 286 310 389 662 927 691 786 755 717 863 1119 1268 1434 1405 1517 1746 1635 2067 2193 2310 2321 2252 2245 1879 1942 2190 2085
0 0 0 0 0 0 0 0 6 4 1 3 107 141 103 307 433 723 654 356 335 368 268 261 316 393 437 454 887 835 771 658 859 973 1252 1623 1808 1980 2034 2121 2128 2261 2334 2412 2477 2355 2104 2237 2338
0 0 0 0 0 0 0 0 0 8 2 11 157 612 191 128 281 526 648 475 399 400 312 297 340 323 343 564 629 658 810 756 663 808 922 1176 1651 1819 2073 2195 2270 2295 2328 2403 2446 2350 1953 2195 2026

GFSSGP_con_mucape_078.txt.gz
CAPE
0 0 0 29 139 30 103 115 166 373 190 69 14 0 20 38 362 636 154 161 760 1001 1255 2014 2502 2159 1583 1868 2447 1978 2406 1824 1432 1423 1906 2172 1490 1939 2223 2159 2204 2259 2251 2337 2048 2298 2360 2366 2188
0 0 32 470 195 89 100 153 184 414 99 16 0 0 51 567 171 103 114 300 727 883 1130 1589 2587 2452 1664 1867 2428 1864 2315 1998 2242 2146 1665 1771 1841 1455 1992 2015 1952 2106 2194 2233 2189 2138 2015 2221 2332
0 1 501 490 358 89 59 274 444 180 1 33 4 397 369 516 60 14 110 355 684 914 993 2079 2656 2321 1844 1877 2444 1894 2251 2049 1740 1762 1844 1561 1609 1599 1765 1740 1873 2064 1926 2099 2259 2180 1878 2038 2163
14 241 414 675 137 14 28 163 84 2 93 215 169 491 273 225 26 131 164 373 691 883 1044 2004 2439 2270 2107 1930 2240 1864 2122 1884 1812 1814 1828 1661 1760 1762 1776 1747 1857 2031 2135 2210 2082 1838 1734 2037 2359
132 267 414 427 97 39 94 189 24 177 287 184 173 321 77 73 169 101 240 350 668 863 1215 1614 2677 2240 2154 2012 2010 1767 1966 1856 1645 1662 1661 1546 1642 1649 1665 1628 1820 1858 1998 1917 1933 1917 2054 2570 2394
396 372 397 158 20 90 88 155 372 316 536 256 361 456 234 224 72 124 255 497 733 966 1168 1501 2271 2155 2088 1916 1897 1908 1787 1538 1621 1645 1530 1538 1475 1345 1221 1540 1572 1780 1888 1874 1905 2023 2297 2507 2368
330 468 418 167 35 129 107 236 350 438 554 315 329 342 206 58 46 153 377 543 757 938 1078 1317 1614 2095 2031 1889 1778 1828 1757 1685 1444 1638 1561 1385 1492 1506 1379 1004 1642 1867 1900 1873 2108 2308 2370 2477 2328
437 702 373 300 103 78 194 67 263 271 253 141 354 283 139 90 69 157 384 580 857 939 936 1118 1280 1595 1450 1541 1652 1756 1617 1493 1368 1558 1411 1471 1230 1250 1143 1906 1947 1779 1858 1910 2102 2057 2265 2297 2093
447 557 195 349 44 105 79 35 181 76 94 135 361 168 35 66 83 185 453 659 849 866 705 546 669 1086 1558 1381 1698 1596 1612 1458 1562 1416 1417 1409 767 996 995 1721 1631 1827 1890 1826 2036 1983 1972 2204 2323
504 459 196 287 509 177 67 58 52 44 93 316 284 50 27 31 98 203 422 656 666 611 571 783 1074 1336 1362 929 1335 1403 1221 1361 1166 1128 1211 727 887 1195 902 1410 1512 1704 1703 1705 1913 1875 1430 1771 1495
646 340 194 235 704 340 232 46 91 48 389 548 417 79 42 21 62 274 383 449 357 444 434 714 1261 1266 1029 1486 966 717 840 1207 1291 1331 981 812 750 991 633 1159 1418 1462 1713 1478 1796 1630 1459 1751 1586
523 346 62 146 350 498 555 81 524 242 397 412 348 20 61 28 62 184 226 301 300 352 439 632 1181 1141 905 586 752 679 645 565 645 1035 1084 1098 613 782 874 1001 1332 1259 1270 1566 1399 1510 1943 1962 1875
327 209 24 35 270 273 554 397 250 91 210 265 141 43 22 35 67 113 122 130 93 248 482 712 1013 1284 923 750 866 720 569 412 573 700 962 676 675 1075 1084 1369 1274 1409 1435 1389 1528 1732 1998 1975 1714
132 94 1 14 42 261 494 532 173 234 336 159 66 94 72 58 63 121 64 15 75 167 464 745 930 1183 1011 1109 1220 1015 755 891 710 731 899 1016 657 1005 1193 1362 1349 1476 1374 1432 1573 1897 1833 1519 1689
63 1 5 50 15 143 587 632 456 302 351 165 124 96 106 108 75 42 39 0 63 214 458 663 736 840 1075 1248 1392 1013 927 950 1085 1211 1644 1443 1018 1493 1367 1245 1316 1446 1725 1834 1776 1556 1558 1261 1240
139 0 8 196 120 239 584 501 792 256 257 123 162 184 154 49 10 3 3 4 8 141 552 656 397 479 871 1172 1353 1012 951 1142 1201 1242 1384 1736 1805 1679 1588 1248 1137 1399 1442 1496 1391 1413 1105 1065 1019
100 177 4 339 550 712 661 503 544 359 122 119 32 6 0 0 26 105 11 13 0 143 530 717 655 399 559 1109 1100 1140 1399 1149 1223 1239 1211 1695 1718 1774 1662 1394 1311 1648 1422 1180 1156 1258 1108 1015 873
169 109 0 287 795 802 495 526 1015 184 206 102 52 70 0 54 184 340 243 26 0 75 328 589 721 579 617 901 1044 931 1006 1045 1193 1193 1263 1496 1648 1900 1649 1260 1548 1798 1289 1030 1218 1440 1280 1026 950
87 63 44 61 659 550 183 139 895 906 611 212 128 146 156 101 278 344 416 284 0 0 184 528 762 815 956 978 766 720 876 985 1047 1220 1590 1609 1661 1733 1893 1332 1784 1750 1369 1680 1544 1575 1523 640 956
0 0 2 0 0 6 12 12 356 760 797 794 658 508 511 217 207 339 413 414 10 0 162 563 842 991 1094 801 722 793 951 966 1042 1275 1635 1458 1697 2080 1712 1510 1539 1718 1291 1786 1778 1660 748 404 708
0 44 4 2 0 43 90 453 504 707 650 859 830 935 738 549 349 519 567 476 126 0 142 555 906 994 873 831 1252 1713 1568 1684 1433 1407 1529 1631 1744 1819 1903 1648 1500 1964 1938 1088 1999 1612 1656 481 1082
0 0 0 0 0 79 92 219 651 668 1055 652 717 820 846 674 558 556 591 559 356 120 97 505 1001 1010 1042 1389 1317 1488 1139 771 866 1144 1127 1570 1835 1724 1729 1858 1995 2150 1325 1508 1681 1344 1677 1877 567
4 0 0 0 0 0 0 82 185 610 539 743 754 496 345 697 550 533 554 505 416 313 301 474 996 1427 1004 1444 1407 1447 1508 959 1048 978 1900 1893 2295 1477 1561 1804 2019 2145 1804 2176 1681 1757 1996 1089 831
0 0 0 0 0 0 28 64 0 102 14 26 63 769 952 514 689 555 505 417 381 486 476 577 1044 1431 1669 1655 1768 1713 1434 1361 927 1082 1503 1485 1566 1757 1886 1523 1805 2006 1688 2190 1925 1630 2056 2029 1879
0 0 1 1 0 0 4 0 21 0 156 191 127 220 345 1150 776 703 649 515 470 492 581 721 1054 1535 1615 1649 1839 1892 1943 1745 1756 1879 619 1276 1301 1458 2401 2203 1703 1682 2115 2161 2025 2443 1855 1734 1104
0 0 0 0 0 0 0 6 0 44 105 151 212 352 27 818 1206 843 708 700 651 588 628 778 1001 1524 1670 1600 1751 1999 2096 1615 1417 1327 946 1042 1199 1402 1759 2554 1722 1779 1841 2069 2458 1528 1243 1688 1083
0 0 0 8 4 11 0 0 0 0 36 87 31 88 312 471 1128 1087 851 744 741 776 792 907 1125 1508 1596 1491 1664 1870 2082 1934 1190 1108 1290 1211 1442 1195 1830 2240 2174 1800 1797 1882 2253 1692 1840 1829 1888
0 0 0 0 1 5 0 0 17 0 4 11 45 79 214 560 882 1112 1147 846 772 814 898 1047 1184 1395 1631 1458 1477 1623 1732 1879 1767 1488 1431 1470 1158 1755 1469 2358 2363 2088 2264 2386 2516 1789 1881 2074 1842
0 0 0 0 0 2 12 18 1 6 0 82 146 79 368 563 641 828 837 1047 861 831 894 968 1146 1287 1543 1529 1463 1496 1486 1580 1719 1508 1445 1732 1529 1694 2188 2522 2414 2312 2223 2325 2855 2488 1912 2312 2042
0 0 0 1 0 0 21 26 7 7 2 135 234 220 196 597 570 532 654 904 1013 950 993 985 980 967 1186 1252 1580 1619 1961 1473 1321 1505 1386 1584 1777 1760 2231 2562 2653 1884 2067 2343 2809 2522 1827 2084 2018

GFSSGP_con_mucape_081.txt.gz
CAPE
0 0 13 164 190 29 35 122 352 540 135 108 84 78 128 656 764 671 415 883 941 910 950 1504 2247 1586 2075 2276 1917 2047 1559 1355 1406 1685 1604 1496 2093 2269 2249 2262 2369 2453 2368 2246 2233 2272 2254 2194 2282
1 0 31 307 290 17 59 167 545 510 158 48 3 3 560 450 443 284 428 929 935 833 748 922 2385 1923 1950 2420 1902 2173 2022 2054 1836 1713 1879 1846 1490 2138 2142 2085 2347 2370 2387 2299 2126 2033 2375 2122 2346
41 11 305 554 598 99 342 349 460 73 28 25 154 294 657 71 159 275 573 743 694 928 697 1404 2460 1861 1861 2230 1891 1941 2057 1881 1816 1863 1650 1858 1730 1884 1857 2053 2220 2229 2225 2177 1986 2061 2298 2185 2028
4 44 361 873 143 10 210 502 143 10 134 39 310 409 347 65 149 336 547 679 637 812 1275 2084 2201 1757 1929 1990 1893 1952 1994 1802 1937 1909 1837 1937 1957 1919 1893 2068 2199 2159 2332 2159 1796 1868 2098 2231 2019
14 229 529 191 120 0 213 95 67 195 211 156 294 351 53 187 155 304 506 595 583 839 1218 1875 2480 2080 1922 2030 1883 1922 1975 1617 1851 1847 1754 1896 1716 1852 1845 1957 2102 2219 2025 2031 2058 2056 2345 2178 2072
374 703 427 231 101 109 230 94 254 203 118 347 348 252 195 257 161 308 410 449 674 702 772 1171 1932 2114 1953 1827 1865 1905 1636 1654 1621 1747 1658 1699 1609 1741 1831 1893 1906 2084 2036 1910 2011 2356 2457 2193 2187
250 893 501 310 230 219 455 384 524 241 187 361 467 275 251 205 206 281 357 533 524 882 743 1156 1511 1870 1810 1944 1871 1746 1660 1675 1762 1570 1414 1686 1641 1347 1576 1812 1958 1983 1902 2144 2270 2513 2426 2161 2073
527 917 556 277 503 326 467 410 449 262 634 360 525 113 142 196 198 369 470 495 644 522 574 1226 1110 977 1279 1486 1738 1639 1671 1473 1530 1437 1648 1532 1458 1492 1526 2218 1950 1814 1842 2068 2005 2211 2363 2080 1942
609 825 440 505 455 113 273 209 297 555 372 510 517 116 56 109 197 332 372 547 561 496 579 966 946 1156 1770 1454 1550 1638 1353 1498 1536 1209 1405 1721 1371 1240 1216 2291 2003 2023 2089 2132 2093 2181 2402 2289 2177
982 661 476 531 424 446 42 116 70 185 310 500 327 65 40 80 180 270 484 564 545 295 232 500 1050 963 1350 529 1475 1156 1066 1093 1216 1407 1675 1704 1325 904 755 1788 1933 1942 2054 2176 2115 2069 2328 2453 1902
799 308 313 718 555 273 92 10 44 65 397 581 189 93 62 49 130 183 316 289 246 292 597 932 1409 1859 1044 875 1252 1190 843 1177 1388 1726 855 530 831 685 813 1506 1577 1847 1998 1777 2032 1840 1831 1312 1212
806 451 225 673 532 293 194 82 89 145 545 593 247 82 50 82 60 87 157 182 184 272 402 1028 1013 1017 620 634 1054 428 645 587 696 564 702 798 579 825 2041 1407 1018 1425 1935 1566 1752 1601 1791 1658 1231
688 300 44 190 108 664 443 467 563 444 512 456 244 64 35 20 35 32 81 142 169 239 330 776 781 1026 701 1793 423 500 234 476 489 794 700 1220 1370 1831 1818 1808 1449 1592 1673 1298 1810 2347 2000 1804 1307
426 472 33 60 18 765 605 481 583 361 474 598 172 78 40 11 18 24 40 64 68 216 411 714 717 775 766 1819 1277 934 814 355 501 566 813 1010 1292 2144 1692 1999 2264 2095 2681 2113 2520 1743 3057 2165 1292
362 130 4 38 195 503 617 632 315 569 337 211 146 104 68 12 23 29 28 20 15 221 452 665 655 711 1166 1027 840 871 653 869 566 769 1234 1231 1312 1847 2618 1607 1459 1965 1744 2024 1698 1831 2119 1530 1072
323 237 128 92 145 452 526 570 720 756 485 283 167 68 77 48 41 30 19 8 12 160 505 640 335 531 895 1076 2018 1344 1268 1001 1971 776 911 1334 1682 1484 2123 1752 1652 1288 2502 1948 2252 2782 2276 1085 1570
241 251 150 209 317 577 672 729 372 625 373 342 124 124 91 75 30 9 12 8 4 197 551 578 477 387 877 1246 1095 1406 1877 1560 2347 1677 1640 1526 1725 1699 2373 1705 1565 1878 1658 1327 1273 1713 1359 1271 1237
185 205 152 264 561 562 484 554 953 380 396 195 111 67 72 29 18 19 8 12 0 167 514 645 495 452 974 1185 1166 1129 800 1553 1554 2059 1748 1749 2025 1909 2201 1382 1375 1858 1516 1395 1543 2858 1729 1054 1151
94 122 44 232 296 690 506 599 803 284 213 369 81 37 15 10 51 109 97 46 12 114 351 691 681 953 853 1018 781 481 532 877 1222 1619 1583 1574 1603 1833 1887 1951 1598 1636 1838 1754 1403 1526 1334 1474 377
52 156 68 95 149 618 308 603 1099 648 274 94 93 212 29 0 113 287 337 141 21 47 224 655 824 1044 1008 962 1256 421 1501 330 1568 1676 1530 1557 1747 1984 1737 1887 2123 1925 1525 1725 1575 2210 2151 108 1282
79 174 63 5 84 67 13 140 707 614 539 172 159 175 211 33 161 320 474 376 46 4 111 565 984 1191 1240 1217 836 1245 1646 1447 723 1581 1307 1643 1508 1719 1894 1783 2336 1838 2181 1574 1760 1487 1479 1750 478
55 73 38 49 6 84 106 337 345 937 620 585 605 495 659 393 168 299 426 466 111 0 146 540 992 1244 1093 1189 1919 2803 1252 612 799 1347 1902 2231 1697 1611 1667 1776 1833 2061 1721 1883 1709 874 2401 2451 1480
3 38 63 17 0 136 150 227 62 626 723 530 425 720 699 511 181 350 391 604 201 28 181 624 1118 1756 1986 1859 2433 1722 2138 1419 1380 1446 2436 2106 2311 1627 1350 1914 1938 2022 2105 2417 1675 1703 1796 1795 1303
4 58 60 37 5 37 30 91 57 193 750 803 415 737 557 369 567 483 524 671 268 156 100 438 1376 2183 1730 1533 1824 2122 1662 1927 2082 1268 1388 1802 1695 1541 1735 1596 1976 1954 1884 2141 1990 1872 1934 2019 2911
26 61 68 29 11 14 7 131 49 257 280 250 120 196 575 617 554 635 525 611 265 277 319 473 1229 1972 1855 1570 1747 1904 1855 1645 1828 1824 992 1350 1193 1626 2632 2123 2181 1830 2008 1957 2167 2289 2017 1970 1405
8 18 25 11 5 4 53 209 186 207 273 164 258 147 515 904 552 497 723 715 454 230 440 711 1310 1935 1913 1884 2731 2940 2440 1669 1207 1711 2200 1834 1422 1742 2919 2168 1867 1844 1838 1949 2127 1889 1853 2674 1602
8 7 1 42 46 31 116 152 139 138 178 49 56 413 741 204 1077 845 791 524 591 621 413 816 1462 1830 2068 1878 2682 2835 2868 2540 1779 2257 1900 1184 2643 1511 2082 1670 1821 1837 1855 1927 2274 1984 2596 2144 2167
0 3 9 6 61 57 135 150 212 74 90 35 41 217 498 1182 809 533 635 802 801 783 529 768 1150 1620 2054 2052 1985 2019 2166 2476 2364 1627 1875 1598 1760 1589 1103 1745 2546 2161 1806 2000 2355 2732 2529 2007 1841
0 0 18 49 57 120 109 296 166 43 14 99 338 294 517 739 753 608 406 840 673 1002 1013 966 1140 1462 1860 2039 2136 2204 2189 2041 2262 1964 1718 1872 1688 1796 1742 2147 2618 2254 2650 2240 3207 3078 2483 2330 2047
0 18 6 24 43 19 26 242 52 32 44 143 303 500 298 280 396 431 448 541 498 549 675 895 1089 1279 1606 1860 2656 1985 2438 2478 1883 2131 1901 1888 2362 1946 1998 2352 2327 2396 2046 2608 2670 2377 1788 1873 2204

GFSSGP_con_mucape_084.txt.gz
CAPE
0 0 0 48 79 4 5 95 418 60 87 25 55 196 447 477 684 666 933 900 771 828 1042 1601 2546 2460 2057 2165 2177 1782 1348 1339 1742 1392 1606 2152 2149 2180 2654 2629 2266 2316 2492 2255 2279 2258 2269 2304 1965
0 0 8 571 308 50 81 18 541 274 46 16 321 327 229 236 260 805 829 757 653 429 382 777 2239 2402 2335 2215 1874 2353 2021 1859 1830 1767 1913 1666 2088 1900 2369 2195 2333 2267 2444 2363 2367 2329 2303 2116 2100
0 21 140 257 368 113 184 278 433 120 17 159 378 146 119 124 262 755 701 634 299 394 596 1220 2327 2307 2349 2468 2196 2135 2020 1817 2073 1878 1823 2168 2177 1989 2081 2202 2235 2214 2403 2126 2306 2372 2046 1840 1788
23 55 88 349 118 25 144 436 88 45 150 223 99 4 30 172 310 541 662 475 450 455 829 1974 2197 2083 1980 2227 2018 1995 2137 1899 2174 2069 2005 2255 2315 2033 2159 2132 2240 2352 1992 1991 1819 2200 2176 1771 1688
9 183 204 46 71 8 69 150 230 72 214 154 9 1 90 220 246 317 386 565 746 508 686 1514 2375 2333 2155 2162 1800 1758 1825 1716 1867 1784 2070 1954 1953 1991 2133 2244 2289 2109 2012 2149 2004 2282 1948 1840 1917
111 438 318 304 1 66 154 396 271 268 323 110 0 4 72 134 177 331 393 581 912 640 762 1189 1950 1921 1900 2011 1906 1798 1611 1724 1976 2199 2001 2037 2067 1982 2225 2096 2095 1956 1992 2024 2385 2185 1950 1948 1905
100 631 435 209 223 188 411 575 212 207 374 167 57 0 39 94 144 244 508 410 252 590 743 863 1337 1874 1944 1904 1759 1613 1914 1779 1771 1539 1919 1988 1979 1881 2001 2276 1958 1914 2058 2195 2343 2152 2012 1952 1851
470 697 404 242 333 280 510 494 765 406 348 179 57 0 3 118 167 191 281 308 500 407 552 1029 1366 1242 1144 1440 1633 1582 1539 1678 1412 1655 1617 1951 1750 1650 1923 2488 2513 2069 1987 2034 2351 2219 1964 1894 1793
291 649 532 292 352 574 535 480 408 789 323 383 183 0 0 30 265 189 151 480 269 604 625 794 1009 1180 1738 1593 1584 1518 1386 1397 1465 1505 1352 1598 1467 1347 1389 2337 2328 1894 2468 2022 2254 2349 2090 1889 1911
345 703 543 410 327 497 232 187 103 284 291 287 11 9 1 38 390 254 153 228 345 615 744 828 1031 1102 1190 525 1662 1712 1526 1534 1483 1288 1479 1443 1777 1192 1142 1954 2338 2052 2593 2245 2494 2583 1495 2378 1671
707 360 626 506 446 271 196 104 75 252 464 129 31 0 0 35 193 70 187 65 183 488 1056 884 1227 1421 1095 1328 1466 1294 1476 1345 1497 1758 1816 1758 801 1032 1263 1872 1820 2133 2000 1878 1759 2605 2084 1918 1990
397 509 783 614 327 98 103 51 100 147 644 150 38 18 3 10 59 288 290 169 684 655 995 468 827 563 1598 1227 1360 784 1027 913 1056 1598 745 1057 2000 1019 2101 1610 1437 1706 1261 727 1134 2197 2621 1894 1517
701 327 573 612 364 154 101 121 68 303 196 264 63 20 4 7 37 99 115 80 713 930 693 558 723 320 2567 1197 1166 815 615 861 423 717 1160 1501 1021 2358 1405 531 1419 1015 1736 978 1106 1261 1109 1583 1826
401 347 94 160 556 427 183 365 317 512 420 388 102 12 9 6 32 69 86 77 76 663 397 676 1130 1453 1920 2823 2742 1976 619 911 1166 852 743 1815 2421 2637 803 1155 1285 1514 2632 1535 321 1540 2709 1162 1673
343 516 52 107 783 713 436 479 463 522 728 431 108 31 19 25 17 53 72 56 70 459 721 902 597 1053 1820 2172 1217 2391 1089 713 1070 1282 2088 2117 2223 1839 1012 446 1126 1640 3259 3010 1299 2443 1793 1841 1431
528 330 79 85 587 583 501 422 398 395 524 211 64 25 23 31 15 36 27 37 41 537 852 870 78 975 1230 1658 2121 456 284 684 1738 1471 1885 2560 2244 2353 2382 1257 1260 1978 1179 1942 788 2435 2092 1827 1931
354 293 163 124 405 608 571 348 500 292 239 141 64 29 25 24 31 47 13 19 18 677 952 1060 618 974 1268 1598 2475 510 602 550 1131 2193 1241 2631 2450 2018 2882 2229 1429 2781 1021 2057 1464 1773 1751 1829 1106
58 79 57 163 468 606 637 458 480 452 227 176 66 30 45 32 29 15 7 24 16 463 937 1346 615 1897 2034 1996 1784 1667 887 870 1238 1830 2033 2817 2684 2604 2187 2611 2918 447 2523 2107 828 2265 1220 1846 307
61 90 156 62 101 641 750 661 380 651 393 194 40 60 56 56 41 10 19 19 22 277 840 1412 1444 2328 1945 2054 1759 1158 1594 1424 1432 1886 3068 1709 1646 2931 2724 2569 2822 783 2473 1052 2825 2661 2772 2274 2408
9 19 107 32 63 267 683 628 637 487 288 221 113 52 80 56 37 55 35 31 27 355 804 1635 1666 1804 2150 1605 2224 2421 1697 1734 1628 1565 2740 2436 2400 2679 2574 1886 2343 1204 1388 2909 2626 641 2669 1852 2356
0 16 49 106 24 7 40 514 11 442 385 221 121 129 83 36 84 185 93 62 115 397 720 1452 1842 1612 1933 2257 2487 3213 2242 2079 2078 1833 2306 2283 2651 2971 1744 2328 2796 2256 2482 1964 2682 3083 1907 1960 2121
0 7 10 219 175 208 82 607 697 574 438 335 154 140 104 18 125 301 159 160 61 250 523 1374 2161 1682 1758 2576 2117 2999 2436 2189 1606 1792 2434 2720 2559 2713 2411 2935 2410 1651 993 758 2455 2255 1807 2782 2297
0 41 2 14 14 8 31 92 506 436 602 4 12 157 98 118 179 184 224 345 24 16 256 1154 2025 1908 1858 2683 2125 2584 2551 895 773 1763 2489 2645 3036 2915 2032 3190 3011 2569 1925 1237 2090 2690 3285 2368 2068
0 16 54 46 5 5 91 81 272 250 87 148 94 307 36 120 261 198 347 294 80 99 225 1007 1867 2261 2558 2154 2401 2643 2077 665 306 1129 1461 1953 2912 2612 3076 2951 3026 2590 1012 670 3316 2830 2838 3020 3728
0 1 42 50 27 9 3 71 134 20 419 227 315 247 124 73 205 344 624 512 274 93 351 1281 2001 2278 2307 1850 2155 2740 2285 2646 1682 1879 749 1756 771 1002 2067 2884 3355 2959 3003 2312 2854 3199 3082 3200 2923
0 0 56 36 17 15 2 104 122 44 306 422 358 510 101 101 603 305 677 618 809 108 386 1017 2112 2400 2244 2083 2446 2742 2962 2264 2110 2573 2954 902 734 1111 2077 2499 2815 3099 2666 2463 2836 3343 2915 3007 2795
11 0 39 62 35 27 322 223 222 120 201 225 263 644 567 832 945 591 656 594 944 226 570 1005 2047 2455 2597 2409 2724 3206 3107 3001 1650 2401 3142 2348 1880 838 2097 1161 2608 2883 2890 2624 2726 2345 2982 2907 2842
18 0 8 14 45 87 450 335 273 277 186 105 56 234 322 496 546 405 351 231 989 382 653 1323 2143 2468 2513 2299 2659 2807 2998 3028 3092 3443 3352 3329 2717 1086 662 919 1323 2971 2962 2755 2927 2486 2308 2705 3022
5 0 5 3 22 41 362 251 248 147 92 15 2 85 316 521 556 288 182 219 391 614 303 943 2135 2412 2591 2556 2542 2512 2635 2834 3110 2956 3291 2995 2890 1683 907 0 884 2626 3131 2811 2951 2352 2162 2200 2434
0 6 1 19 17 25 310 203 68 83 52 34 45 126 236 332 351 199 76 141 247 110 575 659 462 1597 2150 2350 2714 2713 2933 2561 2725 2857 2902 3271 3134 3149 2991 2355 2580 2872 2698 2540 2676 2751 2150 2319 2662

GFSSGP_con_mucape_087.txt.gz
CAPE
0 0 4 61 65 47 0 73 206 68 126 86 169 192 314 446 275 355 444 668 889 1187 1479 1704 2497 1801 1561 1607 1400 1309 1176 1427 1307 1833 2148 2143 2195 2581 2587 2238 2278 2351 2841 2304 2267 2272 1885 1778 1899
0 0 0 41 78 0 75 85 163 321 152 52 40 160 454 573 566 576 536 647 923 1176 1359 1658 2440 2192 1764 1837 1680 1922 1784 1814 1681 1790 1920 2055 2043 2559 2274 2266 2138 2234 2780 2321 2298 2238 2095 1984 1777
10 0 5 64 91 0 88 143 396 293 110 8 13 14 312 423 539 404 441 384 303 391 849 1586 2302 2416 2173 2090 1974 1781 2009 1931 1812 1663 1708 1955 1934 2081 2228 2241 2225 2112 2259 2628 2215 1751 1674 1348 1158
0 13 52 63 0 57 120 134 266 87 37 0 0 4 226 370 277 264 267 87 201 416 1019 2138 2015 1901 2008 1924 1830 1900 1884 1719 1780 1941 1982 2058 1967 2190 2109 2191 2197 1973 1758 2063 2158 1931 1556 1692 1868
0 62 89 31 0 34 138 334 175 77 45 0 0 46 209 181 123 185 85 270 620 714 1033 1645 2358 2340 1881 1794 1759 1814 1790 1735 1705 2151 2018 2024 1915 2017 2135 2145 2123 2137 1962 2108 2052 1910 1766 2020 2108
6 100 177 65 0 102 124 182 66 41 12 0 0 19 114 187 153 98 143 173 656 763 977 1307 1849 1867 1944 1670 1545 1604 1602 1668 1789 1940 1759 1895 1973 2067 2130 1910 2049 2017 1617 2310 1956 1859 1785 1813 1991
128 213 281 0 25 184 393 425 400 46 7 0 0 0 55 167 247 424 428 346 310 820 935 1221 1384 1552 1758 1610 1507 1544 1584 1711 1700 1637 1665 1966 2002 2014 2019 1954 1962 2066 2199 2148 1890 1778 1851 1906 1897
80 280 134 85 143 162 408 414 847 150 13 3 0 0 22 70 230 464 414 330 379 596 821 1089 1278 1318 1235 1260 1468 1649 1617 1488 1422 1617 1420 2082 1967 1941 1847 2317 2707 2134 2127 2220 1941 1719 1596 1598 1572
276 164 181 174 123 371 398 435 492 768 185 58 6 0 9 75 122 92 176 238 366 351 692 849 916 888 1028 1147 1133 1319 1513 1338 1420 1382 1427 1725 1172 1256 1521 2117 2585 2006 1980 2053 2152 1922 1802 1721 1680
240 104 188 245 343 511 410 415 218 209 161 94 3 15 33 88 145 89 121 148 353 424 623 832 773 708 791 951 949 906 823 694 673 718 960 923 858 1021 1382 1791 2427 2097 1869 1903 2154 2335 2032 2209 1417
353 290 430 220 431 389 287 100 132 190 155 16 0 3 45 46 112 46 31 110 427 552 599 514 536 576 430 636 855 538 754 908 760 478 691 915 935 1338 1446 1692 1847 1627 1097 907 1208 1608 1124 1172 1521
532 305 442 420 310 176 170 108 120 549 456 58 4 2 56 50 39 41 46 295 299 223 533 465 701 597 637 557 586 304 557 761 708 1034 677 488 509 832 1054 1265 1285 644 1144 590 1070 1356 1789 1781 1768
90 256 455 337 198 137 46 124 261 170 298 149 15 4 136 59 58 55 58 258 399 438 535 695 634 539 714 767 532 376 694 375 326 331 433 784 456 889 774 723 1005 1045 485 691 135 725 1147 852 984
428 324 570 285 148 119 81 100 157 94 62 177 52 6 20 52 86 79 215 296 207 262 365 13 50 394 897 991 509 390 635 13 112 301 883 866 651 564 638 682 895 720 1156 829 439 845 1405 832 722
331 327 135 481 234 202 187 120 243 94 51 190 53 16 1 32 100 70 190 401 302 229 357 176 504 688 1150 449 609 481 440 447 386 725 541 835 632 356 571 450 620 1068 1391 899 986 1162 1579 998 755
206 217 228 338 421 392 320 191 524 214 73 304 51 5 0 29 52 29 60 271 129 194 173 4 525 556 484 506 411 299 530 609 478 931 923 1311 738 662 738 416 760 849 762 1050 665 972 686 710 888
72 157 239 74 654 518 234 343 355 344 489 111 67 13 6 26 50 40 26 82 161 172 8 0 211 146 751 751 313 87 351 563 851 543 1061 1002 1156 1296 1249 995 759 1345 917 940 1030 763 875 904 650
2 130 143 57 633 418 198 56 142 376 396 141 97 31 20 23 29 25 14 17 164 271 228 230 276 106 261 928 389 214 197 552 947 821 1249 1448 1362 1288 1012 1684 1145 936 1009 983 1066 814 517 699 349
36 99 123 100 117 505 203 270 608 268 190 34 34 44 25 14 18 17 9 48 290 135 197 203 575 733 500 926 804 570 157 444 1144 1221 1194 1005 1025 1591 1458 1336 438 782 945 790 1569 1326 1466 1608 1316
0 21 85 121 151 288 39 110 519 426 191 24 48 74 31 5 16 6 0 39 208 97 186 743 846 671 556 870 714 653 808 770 986 1163 1367 824 984 1363 1431 1273 1121 770 928 1516 1127 648 1293 923 661
0 6 1 113 198 117 3 135 441 509 286 145 193 121 150 31 14 10 1 23 117 173 340 662 649 729 582 608 888 1605 1024 1095 1269 1482 1171 1716 1607 1529 1123 1125 1090 637 766 850 1102 1618 695 972 1004
0 0 0 74 45 35 106 186 86 379 319 199 130 149 170 144 19 14 6 6 42 187 443 690 531 279 352 1012 585 939 749 762 706 942 1064 1215 1521 1741 1564 1358 1224 1348 768 688 707 1633 1299 536 703
0 1 91 106 108 182 32 291 120 228 299 279 144 130 69 86 36 10 44 8 89 142 403 918 568 298 220 904 1283 1117 839 457 554 1222 1207 1522 1559 1749 1441 1308 1238 881 851 426 1066 1534 1436 1669 2040
14 0 67 49 100 22 16 65 304 236 406 338 177 194 119 117 68 105 73 65 90 121 296 1015 668 613 417 1045 996 1020 906 441 440 965 990 965 1276 1313 1041 1702 1241 1171 925 723 1297 1577 1618 1808 1527
0 7 0 6 6 0 4 78 217 361 448 159 103 141 95 73 52 109 137 151 56 105 300 476 1117 733 692 1092 754 1219 1132 777 620 866 470 1031 901 1067 1301 1596 1518 1228 906 418 1012 1662 1588 2058 1374
0 8 0 3 16 0 33 200 215 279 279 239 35 177 56 64 28 73 78 181 145 106 314 499 1126 1119 929 1173 1015 1077 1360 1003 723 851 484 1071 370 403 795 1014 1233 1631 1143 1263 1542 1455 1622 1458 1608
0 0 0 4 21 21 388 185 156 119 190 245 269 176 14 2 2 56 112 160 339 123 323 570 917 1164 902 1410 1058 1508 1323 1245 1037 976 1030 579 515 1147 1328 1120 1393 1448 1518 1138 1596 1404 1640 1575 1382
0 0 17 4 1 32 443 302 358 198 184 506 498 191 84 62 239 35 73 96 227 70 401 771 1078 1185 1277 1481 1356 1754 1714 1660 1619 1905 1758 1272 820 714 809 821 1043 1428 1604 1495 1379 1188 1255 1370 1449
0 0 0 0 30 6 206 204 311 165 185 244 333 557 355 844 497 238 145 104 214 131 177 776 1199 1509 1665 1482 1568 1659 2109 1985 1996 1835 2032 1402 925 731 655 436 829 1132 1435 1523 1515 1387 1198 1554 1379
10 0 0 0 8 16 237 180 209 118 22 34 177 257 660 947 518 291 206 247 171 69 171 242 226 795 1325 1689 1828 1926 2043 2221 2281 2266 1994 1827 1071 930 1021 858 19 757 1122 1739 1516 1374 1526 1291 1186

GFSSGP_con_mucape_093.txt.gz
CAPE
78 0 0 1 1 0 7 42 36 50 1 0 4 15 6 22 12 1 0 329 844 1056 1412 1324 1977 1860 1516 1411 1417 1432 1999 1988 1933 2036 2224 2025 2079 2325 2313 2284 2167 2442 2494 1856 1825 1392 1607 1548 1509
6 0 0 29 1 13 4 72 112 171 85 0 84 63 173 257 285 74 348 770 945 1031 1350 1729 2054 1535 1443 1243 1151 1165 1409 2018 2324 2093 2131 2133 2156 2363 2339 2325 2483 2374 2511 2014 2093 1892 1638 1522 1496
0 0 0 69 22 0 20 85 128 88 79 5 342 345 456 476 291 375 598 947 1052 1178 1533 1304 1759 1519 1377 1645 1955 1796 1513 1620 2151 2014 2254 2224 2190 2248 2418 2428 2472 2487 2241 2239 2090 2007 1658 1557 1451
0 6 78 60 0 64 81 110 149 78 97 203 268 228 360 325 364 638 823 1003 1083 1248 1066 1522 1846 2050 1952 1780 1913 1961 1910 1611 1902 1997 2037 2303 2277 2236 2151 2399 2580 2424 1973 1954 2009 1817 1754 1322 1541
22 29 0 48 5 76 134 139 59 24 60 115 107 181 206 290 615 708 680 854 1020 1197 1540 1711 2327 2034 1984 1863 1993 1950 1964 2071 1986 2081 1939 2203 2284 2326 2211 2214 2191 2244 1907 1604 1941 1958 1706 1637 2362
54 52 6 51 0 119 152 236 254 102 131 75 74 69 141 308 425 350 443 676 842 1364 1456 1660 1983 1977 1965 1960 1943 1868 2037 2177 2118 2113 1988 2251 2317 2366 2384 2321 2153 2154 2082 1978 2060 1811 1781 1878 1868
64 17 57 27 94 146 140 242 211 95 54 9 0 16 121 193 116 116 160 342 1011 1373 1339 1461 1541 1562 1740 1753 1821 1800 1806 1821 2053 2075 2108 2228 2284 2302 2439 2136 2013 2097 1844 1897 2019 2146 1894 1959 2059
70 88 1 22 137 48 186 280 46 69 65 0 0 16 66 28 2 69 12 454 983 1125 1247 1360 1340 1387 1361 1284 1710 1798 1858 1667 1923 1968 2124 2173 2118 2237 2365 2700 2550 1898 1739 1705 1810 1873 1965 1905 1943
202 152 31 103 62 107 263 2 122 54 50 11 49 20 0 25 136 33 253 423 792 951 1098 1161 1286 1185 1233 1342 1272 1429 1566 1343 1389 1722 2229 1734 1381 1861 1837 2342 2302 1966 1761 1691 1680 1678 1710 1849 1966
103 112 35 101 55 119 154 20 11 60 36 69 16 0 0 20 24 63 131 219 499 726 970 1130 1013 931 995 1164 1248 1022 1007 1186 1142 1318 1488 1186 1277 1454 1864 1985 2116 2072 2042 2103 2054 1767 1804 1860 997
158 199 57 77 65 133 231 228 14 16 52 19 30 25 12 0 15 53 141 206 218 516 748 986 829 780 953 1015 903 748 532 672 801 963 831 887 1173 1575 1534 1439 1254 570 1010 910 966 1062 581 892 1006
171 128 136 134 66 327 317 276 12 38 53 82 83 136 58 40 19 82 138 97 192 417 558 685 674 649 734 796 738 529 363 476 523 775 771 867 974 1167 1243 1130 1051 913 1006 689 817 971 1087 1241 1476
292 259 451 294 353 362 182 344 158 300 28 49 47 141 93 69 57 129 104 151 288 417 503 571 618 434 450 473 389 329 508 676 608 438 609 803 684 746 970 949 632 624 560 579 600 832 846 815 400
356 254 385 241 196 214 263 135 99 86 29 28 43 93 109 106 89 124 144 207 317 422 518 524 362 408 338 469 213 303 459 614 679 609 509 568 597 589 765 689 740 798 805 719 702 966 1187 809 295
424 438 300 150 134 191 127 197 79 37 37 46 42 84 81 67 71 130 206 240 291 374 399 353 320 552 380 479 419 169 593 378 312 388 512 549 518 676 477 657 776 901 1165 974 934 926 956 517 613
323 392 170 287 250 127 81 93 166 50 23 39 39 28 25 17 58 101 234 254 240 291 293 265 370 514 485 566 477 227 362 185 500 421 576 513 597 401 318 602 667 1006 1008 956 613 686 715 664 602
314 266 126 305 236 167 59 50 141 85 24 37 40 27 21 18 74 112 198 214 220 324 257 326 442 503 705 572 259 356 176 330 579 522 627 521 362 373 532 445 654 642 845 744 884 698 741 746 661
39 162 153 141 282 164 88 31 101 93 48 98 33 51 53 65 111 189 236 230 299 272 348 243 480 448 655 639 593 412 237 317 458 639 591 552 763 938 1203 727 661 878 910 811 1173 860 689 927 829
0 160 52 375 212 115 79 47 134 129 136 133 18 7 82 46 178 233 245 264 222 191 111 458 252 239 223 273 391 359 362 497 529 636 785 932 977 1175 974 1196 942 642 639 693 1191 893 767 861 731
120 119 262 181 134 106 29 1 94 106 89 141 29 4 15 53 188 232 230 244 170 140 145 299 118 354 164 152 295 322 291 410 618 597 837 919 973 1132 1110 1120 407 633 898 1274 1110 1113 477 613 796
111 88 141 132 144 19 0 0 22 51 141 146 23 86 26 35 171 204 157 199 164 178 131 148 77 269 339 151 227 520 480 535 792 777 943 831 654 1063 1126 1049 583 852 813 782 797 1281 1117 683 989
42 131 68 200 109 16 0 0 0 0 111 139 44 84 25 15 94 156 153 184 216 107 118 19 14 96 310 434 436 497 531 509 458 628 820 861 907 1094 1099 971 905 710 582 555 500 1188 908 1030 965
85 141 41 142 99 22 0 0 18 82 140 108 102 106 47 15 19 105 160 142 172 58 86 81 72 84 194 475 491 544 546 511 504 569 731 673 894 1221 941 1050 966 763 702 394 427 1297 1236 1519 1354
73 90 3 81 62 27 38 14 44 80 205 184 133 104 38 20 7 92 145 149 69 91 165 191 152 114 158 316 461 596 612 570 520 627 677 736 618 777 1043 1157 1114 800 697 566 704 1292 1379 1352 1065
0 41 23 71 47 15 1 2 15 46 172 280 182 130 40 51 53 48 94 110 105 172 262 311 232 199 215 350 441 544 587 634 499 507 616 636 693 796 888 1181 1068 904 808 511 996 1099 1248 1175 1395
0 0 0 4 1 13 14 0 0 168 80 285 231 120 69 49 78 36 72 51 127 167 356 293 294 258 194 220 414 562 715 543 317 498 647 657 616 667 948 1029 1145 1088 1031 680 364 1026 1174 1197 1250
0 0 0 0 0 1 16 24 80 275 247 319 293 190 103 74 54 59 97 164 162 170 517 299 259 207 123 102 335 571 664 637 533 542 552 606 698 684 677 952 1170 1083 1069 1011 917 1164 1191 1451 1316
0 0 0 0 0 0 4 21 52 219 333 328 372 276 156 94 76 66 78 124 136 144 236 636 393 213 181 148 205 518 623 740 594 561 579 531 521 828 607 419 754 993 1154 1347 782 1092 1262 1057 1015
0 0 0 0 0 0 0 0 192 125 393 344 193 242 259 178 76 81 72 81 65 104 171 296 607 619 419 354 343 319 542 585 812 714 597 827 938 813 681 936 910 953 953 1132 1356 1052 1051 995 1076
0 0 0 0 0 0 0 10 115 110 182 264 258 249 129 85 72 130 101 45 25 80 123 305 402 424 448 510 617 628 602 670 760 826 868 1021 1284 945 786 864 708 662 735 897 1158 1317 1195 1075 1021

GFSSGP_con_mucape_096.txt.gz
CAPE
56 0 0 4 0 0 7 47 52 55 0 0 0 0 1 59 48 0 0 272 777 977 1254 1731 2108 1852 1741 1483 1643 2075 1795 2239 2286 2185 2141 2195 2099 2325 2283 2070 2039 1864 2155 1382 1298 1341 1488 1325 1473
4 0 0 44 0 0 12 63 82 42 0 0 8 36 221 205 201 0 117 598 875 1085 1235 1542 2041 1503 1335 1310 1228 1783 1905 1739 2064 2127 1958 1943 2146 2171 2048 1998 2192 2063 1946 1990 1844 1808 1777 1725 1537
0 0 20 35 0 5 47 165 118 100 0 87 327 373 386 348 11 133 455 764 916 1173 1455 1227 1399 1286 1144 1292 1452 1355 1691 1782 1987 1784 1885 2176 2134 2309 2311 2119 2365 2271 1925 2032 1770 1754 1645 1649 1721
0 25 81 27 0 18 99 140 101 84 0 258 292 311 266 227 191 507 763 784 921 1281 1006 1295 1417 1489 1773 1810 1872 1657 1498 1878 2036 2108 2234 2275 2336 2351 2430 2387 2218 2211 2201 2101 1904 1801 1565 1626 1591
32 13 5 18 0 94 142 153 134 55 102 198 171 167 156 465 504 673 726 757 1032 732 1039 1483 1750 1713 1724 1699 1677 1882 1643 1874 2006 1952 2097 2017 2308 2240 2225 2402 1992 1858 1934 2070 1907 1801 1687 1974 2076
86 34 6 5 18 117 190 247 255 162 106 99 68 48 183 532 505 543 610 704 772 1127 1419 1513 1631 1672 1549 1524 1797 1736 1854 1866 1922 2036 2264 2375 2308 2260 2286 2275 2325 1933 1973 1919 1629 1842 1756 1777 1648
75 26 45 67 89 53 179 286 233 60 17 10 8 37 414 284 273 373 509 763 1126 1207 1287 1528 1412 1266 1493 1726 1826 1873 1888 1721 1989 2148 2232 2277 2031 2070 2183 2276 2165 1980 2007 1989 1856 2042 1926 2027 2044
81 84 44 45 118 98 189 141 58 14 0 0 0 0 62 111 90 278 379 883 1105 1084 1213 1209 1216 1133 1084 1427 1739 1729 1850 1666 1752 2056 2032 2258 2093 2106 2030 2533 2325 1900 1909 2014 2021 2072 2037 2021 2196
206 136 26 33 53 62 166 49 48 5 0 7 18 1 43 72 51 30 327 745 930 983 1028 1071 1150 1077 1111 1199 1365 1431 1347 1468 1583 1690 1953 1580 1754 1866 1948 2423 2069 1783 1714 1774 1860 1821 1826 2108 2297
153 97 101 70 96 121 63 58 44 0 0 0 18 19 71 22 0 3 87 361 640 783 855 987 1046 925 1099 1138 1106 1033 1177 1015 1242 1387 1118 1194 1455 1788 2020 2225 2288 2158 2074 1746 1574 1529 1734 1523 1404
176 87 52 59 35 141 78 45 36 20 0 0 0 19 38 3 0 0 0 124 410 620 779 955 788 679 886 956 684 588 808 862 973 773 844 1056 1362 1279 1266 1176 777 869 1282 968 960 953 1071 1067 1276
116 161 181 127 66 138 144 191 51 51 2 0 1 5 30 2 0 0 0 65 144 428 657 815 627 605 687 704 514 359 340 567 736 800 796 806 937 1067 955 952 768 853 653 597 796 906 964 1098 1381
208 164 410 362 145 179 254 97 54 116 18 10 34 0 0 0 0 0 15 24 122 280 461 546 526 441 411 449 299 248 395 522 465 518 642 715 629 661 807 738 641 601 805 475 671 806 1041 941 210
257 233 532 497 210 244 200 57 44 101 63 40 66 6 0 10 5 45 12 9 140 226 331 436 466 225 231 203 182 281 439 593 646 417 542 566 438 586 713 633 683 713 861 857 769 1000 1017 657 347
394 232 248 330 321 231 178 75 57 74 89 60 87 65 8 29 20 64 53 47 174 246 340 395 346 272 153 189 180 266 486 375 593 592 403 444 510 563 499 636 783 1013 1160 947 741 831 759 399 518
404 167 124 176 165 128 60 296 189 92 74 90 68 93 41 66 34 102 83 141 247 275 291 339 316 405 343 286 276 185 359 192 286 288 433 560 539 635 404 585 592 790 836 622 830 694 750 614 586
289 143 94 226 205 137 59 147 120 57 62 87 61 75 81 51 61 120 161 140 231 263 223 242 272 426 426 380 357 167 244 212 493 359 503 472 357 311 366 421 560 938 704 819 1003 642 652 675 580
60 137 100 138 259 128 75 61 62 65 65 79 64 78 86 72 74 106 216 211 218 241 176 166 273 444 434 514 313 311 160 322 472 444 519 428 581 749 1027 665 647 753 777 760 1066 980 909 1086 1098
69 99 64 184 176 92 59 6 55 35 47 40 48 50 90 57 71 114 200 231 204 224 155 135 331 423 499 538 454 498 312 215 444 499 657 647 753 964 801 862 763 632 575 920 681 822 1001 818 664
70 70 259 149 170 115 34 28 54 82 34 38 52 69 51 75 91 135 215 218 221 207 224 280 335 271 451 488 320 323 241 327 523 444 603 707 872 959 985 839 537 552 972 1004 1082 923 738 704 813
32 23 191 187 126 73 5 4 17 33 39 95 91 69 3 70 132 175 195 204 234 194 184 207 295 159 166 210 310 261 351 407 588 558 717 746 732 817 897 780 455 704 774 663 700 1252 745 1023 911
72 83 165 116 76 6 0 0 1 2 71 82 55 20 23 21 162 182 162 204 244 129 91 253 187 189 104 117 230 294 269 365 363 562 644 698 734 898 1059 995 856 761 590 544 490 1202 1037 1071 1230
60 66 116 125 42 3 0 0 0 5 0 69 74 56 26 12 152 172 166 218 241 135 104 147 240 146 173 131 189 354 319 360 401 419 547 648 663 903 812 808 867 710 699 175 382 1143 1223 1418 1497
20 45 22 99 47 0 0 0 0 3 0 10 74 75 53 38 102 176 188 197 231 176 180 106 140 75 214 285 288 370 386 283 339 456 445 525 528 687 870 959 861 733 657 523 427 1161 1175 1121 1052
9 22 21 54 40 4 0 2 2 14 43 35 127 72 36 56 36 157 165 178 199 174 199 50 17 5 45 281 336 357 351 399 482 415 412 424 577 534 604 911 971 838 689 518 506 909 1001 1165 1197
0 0 2 4 6 14 1 0 0 101 102 168 173 108 62 62 41 119 150 144 171 173 159 165 51 9 8 163 221 281 281 385 402 397 356 435 485 523 522 726 987 934 872 733 502 802 1011 1063 1070
0 0 0 3 0 20 0 0 22 249 129 266 207 123 78 45 92 99 112 87 101 107 263 157 138 48 29 146 261 318 401 430 368 285 422 465 543 470 465 741 900 928 964 954 710 890 954 1210 1207
0 0 0 0 0 0 0 2 0 269 303 312 285 202 135 93 58 52 59 8 44 80 233 213 187 169 141 157 165 281 436 490 463 422 423 475 367 466 524 527 446 776 838 887 978 842 1034 1102 918
0 0 0 0 0 0 0 0 113 205 325 424 336 296 212 161 102 57 115 94 88 92 164 441 277 196 203 189 104 150 321 502 526 505 440 532 608 683 553 568 427 544 710 883 1112 1050 886 971 929
0 0 0 0 0 0 0 0 184 178 455 368 340 314 259 192 164 136 93 114 73 30 155 214 403 328 219 211 178 201 159 318 443 448 450 608 759 726 568 464 634 667 690 684 904 1024 1079 929 889

GFSSGP_con_mucape_099.txt.gz
CAPE
0 0 8 15 25 48 132 198 104 0 0 0 0 0 10 280 98 0 23 364 652 855 1438 1601 2145 1780 1973 2121 1925 1696 1940 2059 2174 2120 2196 2149 2282 2207 2085 1994 2043 2002 1933 1591 1576 1662 1624 1770 1787
0 0 2 79 118 106 145 131 14 0 0 0 0 0 185 530 89 6 357 716 694 1035 1284 1466 1823 1559 1376 1404 1882 1698 1698 1956 2200 1965 2098 2149 2148 1895 2043 2163 2109 2416 2371 1943 1944 1888 1719 1501 1236
0 0 62 22 75 150 163 228 8 4 0 0 81 385 485 264 1 255 496 768 1017 1299 1447 1623 1477 1445 1208 1124 1250 1835 1623 1969 1877 2048 2172 2176 2113 2070 2120 2183 2193 2032 1947 1770 1872 1764 1659 1890 1947
0 34 110 14 0 54 222 264 84 0 7 401 170 423 267 127 220 488 684 814 1064 1278 822 1373 1209 1214 1548 1519 1539 1677 1734 2034 1884 1963 2092 2184 2128 2188 2173 2092 2182 2088 2106 1889 1817 1714 1726 1767 1759
20 39 89 1 9 98 201 189 59 1 36 397 336 129 66 576 695 601 689 713 976 639 843 1315 1841 1813 1790 1647 1552 1602 1894 1963 2097 1951 1946 1993 2197 1894 1828 2044 2073 2100 2159 1738 1917 1861 2032 2124 2340
103 54 0 15 9 145 239 293 60 42 226 142 116 45 237 618 551 641 614 841 492 486 978 1624 1844 1669 1592 1459 1713 1977 1881 1923 2046 2030 1996 1908 2016 2266 2100 2109 1833 2119 1929 1772 1979 1958 1915 1781 1938
89 58 1 52 71 93 206 318 166 175 167 38 7 9 291 420 515 629 720 536 463 1285 1362 1239 1416 1625 1539 1653 1496 1740 1898 1967 2200 2285 2081 2123 2053 2195 2053 2235 2021 2151 1819 1829 1998 1875 2008 2024 1748
22 138 96 92 86 74 203 216 114 72 63 5 12 12 56 213 443 712 513 465 615 991 1253 1420 1443 1360 1424 1318 1663 1870 1581 1766 2006 2014 2017 2023 2102 1989 2166 2449 2369 2045 1984 1927 2043 1991 2024 2102 2147
135 297 141 156 3 107 156 60 70 15 0 22 0 12 63 189 455 458 425 687 749 1189 1212 1310 1101 1342 1541 1390 1543 1618 1449 1762 1921 2062 1864 2270 2155 1681 1558 2262 1960 1865 1950 1922 1944 1727 1865 2187 2091
178 249 165 107 103 122 153 63 0 0 5 33 67 100 122 200 351 55 200 503 630 950 1105 1062 1012 1033 1099 1298 1732 1855 1509 1779 1925 1820 1988 1864 2215 2132 2175 2270 2357 2409 2093 1957 1830 1883 2058 1296 1581
225 140 94 62 53 164 83 16 0 0 0 0 91 88 100 120 0 0 0 402 479 694 829 1026 1076 1289 1065 1400 1355 1265 1171 1562 1555 1638 1587 1952 1859 2050 1765 1508 1410 1584 1556 1313 1205 1142 1270 1623 1696
163 145 104 21 40 106 58 30 0 0 10 0 18 76 57 0 0 0 0 112 449 596 786 827 833 1239 1262 1407 796 913 846 1007 1076 1379 1566 1658 1500 1526 1685 1523 1677 1403 1378 1542 1507 1629 1858 1937 1954
118 177 131 54 58 189 73 60 0 94 0 0 29 34 0 0 0 0 0 0 218 489 668 702 810 1059 1000 997 798 845 1047 1006 1099 1154 1355 1214 1284 1590 1601 1721 1516 1828 1653 1453 1478 1868 2049 1514 629
182 183 388 270 182 180 77 22 7 71 0 21 41 45 73 85 38 0 0 28 186 375 569 566 641 839 882 862 985 1108 1135 1158 1056 1075 1184 1353 1154 1720 1485 1620 1619 1838 1897 1796 1665 1954 1885 1258 1164
305 227 231 182 242 94 44 3 86 98 14 85 76 80 103 76 25 0 0 146 323 419 456 459 482 598 756 825 836 941 1150 925 1056 1131 1334 1289 1401 1514 1707 1670 1711 2159 2209 1930 1955 1850 1681 1355 1100
352 201 203 255 248 153 67 36 90 133 64 90 126 138 133 176 94 110 176 244 366 349 533 538 159 463 516 805 926 891 896 874 1157 1034 1171 1354 1503 1497 1444 1303 1670 1619 1828 1898 1984 1667 1712 1501 1447
136 174 156 391 240 187 15 1 160 157 114 138 155 164 162 222 244 307 305 434 450 526 665 682 713 852 883 1118 851 848 931 925 1004 779 1263 1430 1402 1212 1317 1153 1687 2102 1709 1942 1945 1562 1838 1924 1795
60 73 150 213 233 84 0 0 210 164 147 146 118 191 210 189 254 307 406 486 559 628 703 773 806 968 1171 1115 1042 962 736 1092 1234 1391 1359 1429 1348 1458 2145 1626 1888 1748 1854 1795 2146 2245 2120 1966 1878
60 40 159 397 188 133 104 149 180 146 136 109 154 188 188 179 191 292 422 475 551 586 620 730 829 1090 1084 1081 975 1091 940 1090 1268 1347 1539 1455 1726 1929 2231 1847 1882 1580 2067 2267 2024 1766 1999 1779 1975
27 122 241 295 220 146 115 130 212 191 164 91 137 150 163 111 179 197 365 425 526 568 567 693 862 1138 1131 1258 1161 1109 1167 911 1262 1392 1635 1773 1890 1963 2089 2186 1564 1850 2106 2443 2589 2496 1670 1848 1993
43 45 238 273 105 52 26 0 26 195 139 142 137 172 123 71 158 269 348 415 522 544 597 640 920 1161 1073 1110 1059 1134 1236 1260 1380 1427 1309 1882 1801 1830 2107 1879 1669 1989 1888 1660 2147 2350 2170 1887 1965
49 64 295 179 50 10 16 0 31 92 172 111 63 122 139 91 147 256 313 408 458 526 515 698 975 1067 868 933 1155 1499 1154 1477 1140 1495 1960 2215 1818 1697 1706 2067 1941 1897 1585 1803 1952 2152 2225 2312 1997
70 66 171 163 65 24 2 26 11 81 73 131 145 120 165 101 89 204 318 365 422 481 431 576 855 947 719 809 1234 1458 1357 1216 1319 1514 1958 2328 2033 2156 1757 2046 2059 2119 1583 1548 1787 2451 2560 2320 1936
59 48 93 38 26 1 0 0 88 47 94 47 78 97 166 137 93 203 318 328 461 425 321 409 743 846 968 821 1024 1486 1634 1489 1303 1482 1464 1555 1521 1839 2054 1988 2076 2068 1995 1681 1638 2466 2570 2376 2014
53 58 9 1 1 0 0 14 4 97 57 3 146 169 125 149 110 225 277 202 423 381 345 349 572 808 728 960 1002 1287 1422 1587 1589 1928 1449 1436 2468 1999 1776 2202 2373 1928 1952 1731 1652 2400 2351 2388 2102
19 25 13 15 2 0 24 58 81 95 248 101 46 255 200 148 76 212 314 231 459 421 412 440 502 705 568 769 1120 1366 1681 1201 1518 1644 1304 1364 1542 1382 1804 1879 2040 1937 1899 1618 1532 1591 1963 2119 1929
0 0 0 24 1 23 89 46 37 309 343 320 136 350 250 202 85 164 346 456 502 216 384 543 632 577 451 460 1000 1166 1188 1270 1293 1373 1417 1316 1575 1464 1533 1723 1688 2019 1888 1910 1831 1227 1987 2292 2349
0 0 0 0 9 9 0 59 49 507 479 583 530 342 263 216 110 204 163 166 214 240 309 417 599 610 490 432 774 902 1171 1277 1354 1409 1507 1470 1403 1492 1583 1503 1563 1851 1971 1986 1986 1880 2122 2172 2043
0 0 0 0 0 0 0 0 209 435 491 655 700 592 442 268 307 415 292 143 115 204 157 494 609 482 535 410 668 934 958 1374 1479 1390 1350 1622 1556 1621 1628 1528 1236 1260 1422 1772 2359 2279 1779 2074 2101
0 0 0 0 0 0 0 0 260 380 528 517 584 428 478 399 330 529 465 298 117 56 187 519 980 508 737 634 712 706 1076 1276 1414 1489 1501 1531 1433 1687 1645 1539 1713 1781 1674 1865 2103 2056 1908 2057 1902

GFSSGP_con_mucape_102.txt.gz
CAPE
0 0 31 251 637 258 182 292 0 0 0 0 0 0 38 466 105 73 36 257 413 626 959 1398 1759 1771 2183 1967 1618 1922 2037 2256 2237 2183 2351 2234 2117 2111 2287 1773 1825 1921 1847 1832 1787 1797 1845 1678 1038
0 0 94 398 456 49 228 86 0 0 0 0 0 2 290 436 22 0 163 320 490 757 843 1183 1889 1553 1617 1958 1757 1857 1985 2176 2052 2211 2132 2170 1913 2078 2064 1698 1687 1901 1831 1632 1773 1765 1424 1675 1673
0 5 679 151 382 95 236 43 0 0 0 0 5 116 655 34 1 65 255 467 644 868 1144 1622 1491 1339 1144 1620 1933 1793 1931 1922 2100 2131 2211 1862 2061 2162 2232 2122 2099 1922 1913 1812 1808 1716 1860 1896 1842
6 350 492 70 179 293 274 13 0 0 0 143 306 500 62 0 149 218 452 659 964 1096 954 1075 1185 1186 1550 1264 1790 1880 2038 1737 1906 2146 2106 2085 2099 2177 2210 2173 2128 2032 1926 1856 1966 1891 1878 1870 2012
293 172 216 82 184 349 301 229 0 0 281 443 494 499 0 331 244 433 744 791 735 370 280 973 1700 1841 1844 1712 1676 1874 1897 2107 2208 2011 1885 2153 2040 2147 2137 1999 2104 2155 1960 1980 2009 1993 2236 2292 2400
132 163 57 136 150 400 474 75 0 10 591 521 377 25 282 432 457 683 541 389 119 203 929 1273 1713 1712 1648 1890 1769 1897 2001 2017 1890 2057 1951 1971 2234 2050 1951 2162 2242 1907 2022 2056 2004 2009 1937 1909 1499
98 33 22 135 278 489 484 34 20 150 332 377 183 30 416 347 619 596 547 139 63 373 948 1223 1513 1738 1691 1498 1949 1905 1966 1831 1933 1880 1985 2106 2087 1973 2010 2205 2157 1894 2075 2058 2010 2105 2126 1945 1769
78 387 32 197 374 291 412 368 377 359 386 169 57 77 355 428 549 645 361 59 624 695 754 988 941 1324 1178 1483 1830 1851 1892 1876 2132 1926 1973 1909 2093 2111 2020 2673 2420 1866 1985 2065 2007 1986 2210 2236 2312
92 547 447 318 294 513 432 317 264 217 187 94 113 11 295 501 533 424 34 138 358 649 831 708 950 1291 1380 1433 1744 1680 1834 2025 1956 1931 1829 1986 1458 1300 1664 2106 2036 2075 1933 1887 1704 1733 2046 2110 2277
360 577 370 388 147 505 306 313 182 216 237 140 39 110 244 431 446 12 20 155 411 594 595 629 791 869 1011 883 1501 1513 1390 1672 1633 1837 1251 969 1317 1712 1584 2040 2238 2202 1919 2020 1851 2100 1926 1435 1454
383 419 427 101 124 437 313 196 120 127 208 260 226 210 247 246 38 0 6 170 350 486 496 509 701 615 607 866 859 859 1253 1484 1853 1549 1084 1255 1338 1365 1110 1497 1669 1462 1608 1472 1515 1597 1512 1927 1762
317 435 132 82 220 329 281 112 26 4 47 125 117 95 59 24 0 0 29 200 303 427 354 283 395 645 614 674 388 495 1089 1112 1090 1279 1694 1751 1460 1461 1402 1468 1634 1576 1453 1780 1800 1700 2014 1745 1709
248 445 41 63 204 256 172 75 62 42 18 28 2 0 0 0 0 0 1 166 312 247 191 193 457 935 1144 819 360 522 802 1080 991 1111 1555 1473 1461 1789 1630 1804 1813 1767 1564 1550 1743 1924 1757 1387 1295
190 299 81 62 215 293 223 100 22 16 14 0 0 0 0 0 0 0 0 118 472 163 134 213 490 963 1064 1009 978 934 920 1091 859 1014 1466 1568 1462 1828 1632 1748 1670 1757 1643 1726 1880 2234 1398 1158 1075
263 472 321 183 487 81 139 130 138 0 0 0 2 2 0 0 0 0 21 80 282 139 141 404 632 991 1057 1153 1108 821 917 842 778 1017 1560 1680 1649 2082 1885 1787 1622 1898 2301 2387 2175 1758 1501 1071 1055
455 507 451 248 392 105 52 219 212 25 5 43 54 23 68 79 55 73 70 82 194 51 229 436 311 635 736 887 1126 920 804 787 855 1157 1462 1708 1964 2028 1809 1505 1549 1966 1905 1793 1561 1392 1114 1310 1226
534 523 243 382 231 99 13 126 79 162 41 93 175 155 163 232 184 232 184 212 213 244 356 377 412 369 799 1361 1069 1077 1390 1170 1172 1161 1400 1947 1793 1706 1616 1626 2066 2118 1710 1687 1327 1352 1360 1239 1210
298 189 233 259 131 0 0 0 67 209 121 121 209 220 174 216 319 454 347 325 284 432 466 527 498 843 1076 1250 1194 1046 1167 1342 1267 1259 1415 1750 1554 1741 1592 1760 2068 1928 1668 1647 1816 2479 1742 1139 1128
17 123 195 200 57 0 0 0 97 145 248 208 215 223 295 269 276 460 536 419 440 511 677 773 838 1308 1206 1016 834 982 859 1186 1265 1340 1732 1970 1820 1682 1748 1676 1969 1809 1808 2376 2120 1635 1699 1057 1391
177 293 436 221 173 187 72 98 124 95 124 161 172 224 215 221 286 388 564 562 445 603 719 1055 1097 1610 1513 1283 1248 988 832 886 990 1151 1660 1690 1807 1540 1711 2015 1667 1956 1863 2434 2658 2524 1315 1362 2133
13 106 321 344 205 147 4 8 145 102 107 122 137 191 227 269 214 362 529 635 642 559 764 1023 1295 1418 1677 1432 1759 1764 1625 1419 1454 1431 1214 1606 1709 1571 1602 1914 1863 2132 1777 1667 2129 2086 2669 1305 1997
3 71 141 399 230 103 117 0 0 225 264 56 12 141 266 298 359 287 421 671 715 740 694 880 1274 1303 1715 1983 1409 1540 1282 1544 1200 1481 1206 1194 1135 1378 1396 1875 1931 2174 1630 1994 1945 2024 2389 2662 1535
50 39 73 98 80 106 204 88 86 122 431 411 58 132 169 223 257 388 434 534 692 805 879 891 1375 1372 1115 1909 1522 1992 1027 916 1127 1287 1513 1218 1318 1462 1583 1644 2262 2289 1799 1933 1987 2167 2144 2010 1721
41 73 32 12 8 69 61 91 254 180 222 429 262 298 174 178 246 301 432 527 619 829 854 839 1488 1853 1508 1657 1688 1427 1104 1183 1145 1266 1231 969 1338 1065 1096 1223 1558 2072 1960 2205 1634 1836 1719 2750 2219
32 38 25 46 46 93 81 81 134 360 325 530 506 252 197 173 348 253 493 719 725 849 927 828 1302 1694 1673 1498 1379 1472 1082 1033 1270 1270 811 1408 1303 1147 1253 1463 1517 1523 1802 2018 1669 2390 1779 2027 2205
0 0 31 68 72 63 132 113 248 275 308 268 504 474 333 230 388 336 455 766 880 860 1010 831 1113 1465 1476 1318 1479 1620 1175 661 545 791 1371 884 1445 1128 1790 1366 1510 1641 1470 1939 2140 1971 1608 1686 1466
0 11 3 23 56 59 160 83 262 244 415 367 287 239 468 280 292 353 513 800 825 878 1076 999 1020 1321 1323 1109 1383 1278 929 934 1043 1013 1248 1239 1165 1682 1772 1786 1545 1707 1641 1933 2027 1508 2010 2211 2226
0 0 13 40 61 63 157 119 176 548 564 556 316 456 494 313 158 293 479 740 614 746 1023 889 1102 1303 1092 961 1065 1019 966 952 644 903 761 1164 1784 1843 2003 2047 1893 1519 1548 1465 1792 1484 1661 2143 1652
0 0 0 4 12 21 79 72 503 563 767 803 574 625 665 535 471 313 401 742 917 985 829 508 1101 1240 1130 935 815 871 928 742 1048 947 793 1097 956 1592 1799 2228 2115 1847 1679 1782 2204 2024 1577 1884 1538
2 0 0 0 0 2 44 194 638 857 978 996 1030 727 640 475 623 688 448 480 834 858 587 545 812 776 1063 927 1074 925 520 819 673 1037 853 1190 1079 1472 1404 1674 2286 1790 1291 1585 2038 1725 1211 1652 1328

GFSSGP_con_mucape_105.txt.gz
CAPE
4 1 189 545 1129 774 197 11 2 0 7 10 11 53 340 372 195 181 173 426 546 632 681 1553 1763 1950 1670 1582 1798 1987 2308 2255 2241 2245 2226 2013 2034 1828 1820 1671 1770 1838 1791 1841 1699 1521 1036 874 1439
50 8 451 812 1133 179 68 0 0 0 0 0 0 150 226 95 15 120 383 505 547 470 743 1128 2068 1982 1987 1764 1945 2003 2112 2045 2218 2220 2150 2085 2100 1935 2141 1651 1882 1768 1915 1855 1509 1599 1797 1693 1335
136 68 879 338 875 139 61 3 0 0 0 8 9 273 46 0 30 138 377 413 851 1085 1357 1549 1453 1287 1745 1877 1745 1937 1956 2005 2123 2069 1955 2200 2211 2102 1985 1814 1863 1801 1648 1646 1852 1878 1840 1776 1383
139 634 570 228 301 110 41 1 0 0 0 168 415 0 0 84 126 240 307 623 917 1006 942 1226 1026 1159 1061 1908 1913 1988 1794 1993 2178 1914 2150 2066 2103 2160 2240 2073 1958 2033 2013 2036 2011 1969 1997 2134 1597
307 134 271 133 124 49 39 1 0 0 252 451 75 0 44 123 158 325 504 586 801 567 159 824 1837 1893 1709 1638 1904 1893 2154 2182 2029 1947 2023 2163 2096 2286 2270 2138 2059 2072 2093 2055 2044 2214 2164 2058 1393
184 190 19 175 195 92 225 11 0 107 357 600 28 68 154 133 322 486 619 602 179 198 703 1280 1839 1815 1821 1627 1916 2063 2014 1824 1951 2068 1997 2152 2194 2422 2254 2274 2014 2168 2108 2043 2018 1982 1875 1404 1194
128 69 145 145 413 395 104 13 33 419 423 191 2 117 118 330 329 182 138 41 219 725 835 1031 1504 1674 1719 2032 1893 2026 2045 1833 2212 2095 2252 2084 2128 2051 2307 2040 2070 2240 2083 2092 2142 2139 2091 1980 1842
169 256 368 255 383 338 98 50 53 195 219 231 47 139 221 351 154 181 27 64 361 424 849 979 1012 1057 1525 1455 1928 2004 2095 2051 1975 2006 2059 2216 2274 2183 2428 2442 2054 2099 2086 2043 2020 2206 2251 2375 1957
119 412 578 237 319 449 254 349 339 321 345 243 290 84 320 187 140 85 21 493 463 496 663 743 708 1462 2086 1472 1803 1867 2047 2298 2127 1865 1985 2538 1823 1606 1993 2279 2056 1965 1933 1803 1672 1830 2232 2321 2333
656 591 488 444 383 615 512 397 390 269 243 230 161 196 162 232 70 27 80 172 255 486 505 614 752 814 1294 714 1887 1420 1478 1874 1934 1780 1894 2441 1647 1285 1118 1764 1940 1722 1754 1689 1719 1962 2084 2392 2470
673 615 395 507 479 249 302 338 131 137 109 162 340 302 240 98 36 33 80 168 205 286 324 420 975 1108 757 776 778 964 1610 1546 1556 1119 923 1172 1120 1340 1052 1727 1764 1732 2217 1733 1992 2057 1977 964 1513
390 652 342 390 370 232 258 245 82 74 125 212 234 108 59 41 10 25 84 167 236 150 205 227 243 1074 443 353 501 727 1155 1333 813 1152 1495 1856 1705 1634 3042 1329 1303 2573 1261 1549 2028 1274 1586 1378 1167
439 447 111 96 291 383 214 82 78 57 123 137 100 38 13 9 4 32 81 142 170 155 170 176 356 1952 1278 487 242 987 1006 1399 894 1589 1777 2371 2166 1638 1997 2336 1993 1773 2291 1145 1345 1236 1196 1340 1128
316 453 362 320 585 319 172 62 11 3 89 89 40 7 0 5 5 24 60 68 109 122 129 203 907 1169 1183 605 706 663 925 919 1228 1428 1435 1829 1788 2489 1543 2285 1413 1732 2137 1443 1677 1803 970 942 750
455 365 251 139 355 285 263 91 32 8 14 4 10 3 6 4 4 8 44 130 245 124 149 414 638 617 581 661 763 1212 748 920 1188 1325 1603 1641 1935 2037 1838 1323 1813 2053 1745 2217 1720 1382 1298 784 761
572 211 249 132 386 230 404 129 20 29 23 3 8 11 9 17 12 12 16 51 165 150 253 298 431 361 428 775 1197 1265 1358 1045 1416 1016 1416 1785 2137 1860 2337 1919 1311 1336 1816 1496 1012 1175 715 872 1033
215 351 147 290 156 112 110 217 136 29 29 31 36 38 53 61 65 49 41 70 116 215 345 305 654 410 736 937 1463 1377 1495 1622 1106 1109 1798 1841 1874 1919 3264 2589 1889 2718 1616 1219 2029 545 2018 863 985
26 108 251 204 66 44 34 75 261 55 65 54 60 76 66 81 86 131 102 70 164 304 372 357 299 633 1879 1668 1565 1296 1694 1547 964 1622 1894 1773 1750 1782 2224 2010 1738 2882 2065 1472 1535 2880 1271 1284 1110
182 87 236 127 8 22 21 33 73 225 256 113 107 66 81 72 120 169 144 94 198 352 382 362 553 1048 1138 708 881 1322 1975 2055 2354 1930 1704 1712 1738 1844 2077 2419 1924 2468 2975 2416 2008 2032 1742 912 869
54 363 175 104 2 0 0 0 11 71 306 267 129 74 129 126 195 264 335 210 151 341 352 427 978 1154 1554 927 2982 2467 1425 1280 1430 1567 1593 2023 1623 1837 1672 2589 2198 2203 1881 2159 2554 2608 2148 910 839
104 181 107 61 124 98 64 0 0 43 99 230 262 156 176 172 119 311 386 331 315 356 505 691 1017 1290 1524 1745 2216 1771 1722 1937 837 1232 1437 1552 1605 1641 1989 2015 2534 1871 2621 2215 2610 1947 2435 1155 1009
55 296 178 1 170 0 48 0 0 78 128 105 92 161 170 142 124 242 342 411 260 453 465 982 1214 1498 1494 1778 2087 1886 1512 910 1825 1646 1758 1459 1481 1481 1618 1811 1961 2309 2950 3148 2391 2178 3518 3284 975
32 30 184 147 163 20 81 26 21 218 169 79 41 80 223 117 121 82 266 266 246 490 529 733 1442 1846 1691 1826 1588 1646 1758 1120 597 1551 2253 1966 1836 1402 1438 1754 1980 2085 2120 1987 2521 2075 2898 2336 2545
22 78 147 200 134 86 153 173 45 65 280 132 35 11 50 185 217 200 210 356 276 461 425 671 1298 2077 1411 1736 1674 1888 1879 2063 1493 1704 1749 1524 1282 1483 1405 1516 1798 1872 2476 1928 1726 2087 2099 2850 3643
121 264 186 119 98 100 107 126 233 173 159 347 257 21 7 159 124 219 148 329 648 732 790 514 1262 1575 1414 1617 1248 1399 1340 1261 1385 1193 1339 1044 1161 840 1456 1622 1658 1595 1973 2244 1899 2137 2510 1917 2307
28 130 264 167 178 151 234 122 287 343 316 589 590 150 16 116 320 207 316 476 656 611 676 543 1230 1498 1520 1415 1474 1465 1327 970 707 1020 1994 1630 1179 1225 2077 1673 1498 1493 1883 1857 2183 1919 1397 2713 1726
16 79 112 196 12 74 148 307 303 450 349 402 632 626 238 298 64 173 265 605 639 696 766 1054 1252 1433 1372 1293 1536 1537 1296 1160 1412 432 1618 1777 1314 2120 1981 1380 1495 1533 1532 1784 2062 1784 2094 2298 2166
2 32 50 37 34 109 79 208 310 345 415 403 507 692 747 493 227 253 276 366 425 675 782 1084 1125 1213 1169 999 1030 1142 1088 1058 1063 1213 1216 502 1054 1233 2076 1596 1716 1811 1824 1914 2029 2296 2317 1920 1846
0 0 2 52 35 51 94 213 422 621 646 755 700 544 787 497 358 249 444 335 644 852 789 970 935 1615 1172 1055 950 833 661 586 781 599 708 974 948 1148 1403 1665 1708 1590 1898 1903 1978 2823 1968 1989 1772
2 0 0 13 27 22 52 443 683 632 595 721 645 579 879 665 475 242 289 579 1369 1304 1268 1254 1698 1262 1299 1194 1295 1124 955 689 523 649 647 1079 1234 1390 1430 1794 1654 1367 1691 1785 1978 2284 1278 1416 1507

GFSSGP_con_mucape_108.txt.gz
CAPE
135 8 107 376 640 938 67 54 17 18 42 18 211 266 153 81 157 164 162 534 752 541 1034 1430 2188 1542 1774 1782 1999 2109 2149 2205 2110 2117 2419 2372 2253 1734 1775 1846 1805 1885 1759 1651 1262 969 1118 1684 1527
53 124 340 961 992 75 30 14 21 13 0 108 343 121 31 37 64 233 248 352 414 426 777 1205 2350 2295 1634 2023 1912 1908 2023 2179 2124 2137 2043 1945 2458 2506 2386 1878 1919 2214 2295 1662 1892 1778 1379 1228 1495
7 240 940 656 525 120 9 5 2 0 0 248 108 79 14 68 113 288 426 379 641 786 970 1625 1979 2190 1811 1768 1905 1958 1918 2120 1970 1971 2204 2138 2308 1806 1761 1711 1595 1589 1822 1823 1937 1975 1457 1340 1474
88 477 776 116 156 31 0 5 0 0 118 50 0 1 0 72 89 282 574 773 1070 1267 1029 1420 1410 1404 2015 1706 1867 1770 2007 1941 1978 2415 2387 2549 2407 2066 1973 1926 1904 1981 1941 1936 2054 2118 1789 1385 1279
88 129 48 134 154 10 8 0 0 71 357 8 0 3 48 74 375 641 707 825 740 373 202 1088 2107 1521 1802 1844 1954 1977 2049 2011 2462 2686 2653 2562 2244 2202 2064 2049 1957 2040 2010 2118 1964 2104 1434 1217 1030
115 151 34 127 55 21 6 0 35 207 501 136 1 5 29 223 369 301 375 416 90 201 842 1336 1998 1880 1843 1972 2106 1854 1867 2313 2860 2465 2140 2186 2504 2282 2292 2071 2220 1982 2049 2044 1921 1732 1391 1140 1142
87 91 11 162 36 209 10 9 121 309 113 20 3 3 34 181 94 268 386 413 401 594 782 1233 1398 1814 1967 1973 2109 2253 2431 2267 2141 2708 2582 2950 2505 2315 2280 2479 2371 2045 2071 2090 2090 2031 1907 1825 1364
192 120 276 154 159 77 6 74 205 290 101 43 10 8 150 93 242 80 469 319 348 674 1067 972 1352 1282 1344 1544 2036 1903 2394 2160 2025 2569 2552 2772 2550 2382 1997 2561 2572 2082 2044 2045 2153 2263 2320 2164 1921
94 340 408 143 120 35 44 344 209 281 203 60 105 53 49 66 55 16 369 489 687 707 805 865 1128 1489 2154 1960 1954 2112 2055 2187 2197 1926 2527 2206 1799 1682 1759 2460 2148 2078 2005 1892 2207 2380 2462 2401 2205
528 308 368 489 126 47 67 258 318 165 141 139 47 25 22 64 30 22 87 307 222 660 559 675 1010 1050 1260 989 1967 2207 2003 1659 1693 1835 1453 2605 1954 1776 977 1959 2270 1971 1839 2129 2627 2805 2486 2447 2263
209 153 189 464 271 146 204 207 165 77 242 129 169 0 35 48 26 48 351 384 347 204 397 449 1325 1182 1087 1744 1712 1670 1800 1885 1460 2362 1010 2279 1248 1264 1301 1841 1624 1948 2447 1472 2020 2350 2077 2041 2105
186 371 101 307 251 298 77 48 74 58 108 126 139 0 15 31 14 57 104 57 220 364 370 291 193 1314 320 1332 1014 1526 1694 1454 1342 1746 3006 3100 1544 2329 1051 1284 1323 2732 2123 375 1117 2097 2127 1833 1049
239 430 234 244 446 207 74 31 96 92 220 130 144 18 0 28 24 65 67 113 38 260 395 654 1420 1944 1768 1072 840 1287 1350 1631 1451 1064 1586 2714 1210 1611 1457 0 868 2373 1781 2045 2466 2599 1962 2059 1663
261 394 307 230 298 246 88 56 32 77 75 21 40 25 17 12 26 72 67 71 98 201 642 844 962 1497 1594 2513 2421 1036 1425 1706 1591 995 607 984 2566 2110 1866 1536 1872 1039 2904 2701 1506 2086 2070 1928 1158
499 530 279 438 546 537 222 60 33 20 53 41 41 21 24 10 34 50 45 47 55 179 866 711 898 740 1480 1825 2007 694 1240 1511 2043 1846 843 995 2799 3187 1804 1490 2155 2877 2741 2692 3004 2908 1812 1806 1578
518 329 209 89 254 286 309 99 28 30 52 34 32 15 26 20 21 35 36 82 84 183 901 807 245 511 784 1483 1650 1594 833 1269 866 1670 2312 2781 2627 2856 2564 2353 1388 2427 3389 3152 2812 3037 2294 1151 2271
336 108 230 121 61 103 234 131 43 47 53 29 15 19 21 38 28 23 39 145 213 418 556 523 874 374 1094 2366 1715 1088 2365 1480 2141 2174 2403 2737 2556 2320 1685 2487 2734 3330 2425 1388 1645 1870 2080 1995 1470
135 14 0 136 80 74 130 100 34 55 47 34 15 24 34 49 48 33 36 91 332 522 593 142 819 1024 1942 1498 2960 2526 1476 1969 1933 2181 1623 2692 2462 2175 2916 2626 3213 2296 2126 1602 2353 2969 2336 3262 1091
42 10 48 1 41 62 84 69 156 175 84 74 53 39 57 58 69 40 93 53 148 486 603 565 1311 1904 1029 1547 471 2293 649 2040 1783 1644 2742 3113 2853 2312 2915 3277 2746 881 1084 3582 3521 3561 3255 3094 2662
164 157 122 0 114 65 0 91 67 84 169 119 144 77 64 64 79 83 56 76 44 547 809 1474 1189 1766 2076 1655 1305 1974 1884 1737 1971 2270 2792 2008 2492 2594 2799 2927 2117 1655 2779 3445 3727 3977 3816 2609 2119
32 94 63 29 105 54 0 0 0 52 74 100 163 201 98 141 62 112 193 44 126 509 904 1313 1703 1973 2321 1861 1590 2525 1230 2656 1690 1593 2388 2105 2253 2588 1313 2860 2051 2710 2965 3122 3808 3929 3532 3149 2256
217 179 99 30 134 0 22 0 0 0 41 70 96 136 113 80 156 166 155 97 153 533 608 1700 1956 1930 1773 1358 1844 828 2120 1471 1881 2512 2047 2682 2590 2368 2402 2515 2727 2965 961 1488 3767 3210 3635 3393 3311
129 260 157 204 111 5 0 0 119 3 0 1 7 58 76 57 90 138 65 264 222 222 599 1323 2106 2023 2339 1014 2631 2036 2200 529 652 787 1166 2639 2962 2418 2134 2979 2682 3097 2634 2569 3518 3187 3702 3483 3679
176 258 93 30 86 193 120 106 0 15 29 0 2 0 26 133 68 127 112 130 475 199 536 1396 2151 2141 2151 1960 1665 1948 952 431 968 434 692 2042 1908 2285 2917 2076 2873 3161 3045 2090 2647 3688 3367 3345 4128
58 189 207 233 294 140 113 127 96 70 58 20 0 4 35 88 81 100 185 304 254 185 494 1232 1889 1840 2187 2124 1775 2079 2329 1153 417 677 760 478 1089 1082 2963 3486 2776 2711 2693 2814 2827 3270 3208 3309 3139
1 79 120 0 110 51 24 98 210 93 88 65 45 27 10 15 18 210 150 220 304 437 191 1267 2018 1816 1824 2034 2409 2457 1847 2052 1357 845 662 90 164 406 1904 2817 2810 2937 2882 3080 2853 3093 2763 2972 3094
7 38 60 65 3 37 107 64 179 170 162 188 193 96 22 57 0 95 158 148 148 826 547 445 1970 2199 2009 1889 2180 2481 2523 1712 2618 1314 582 107 322 470 982 2140 2764 2758 2330 2942 2711 2885 2468 1806 967
12 11 23 11 113 126 32 13 154 471 478 773 454 240 153 28 43 262 174 91 116 481 533 253 1052 1835 1877 1768 1849 1775 1980 2112 2458 953 500 185 75 501 226 838 2536 2645 2199 2202 2931 2159 1748 2141 2372
0 0 0 7 13 15 21 39 268 310 597 564 973 436 249 99 66 451 393 382 64 81 176 590 1425 1787 1614 1627 1608 1895 1522 1729 1894 1957 1421 671 307 897 305 1524 2394 2266 2147 2091 2576 2507 2614 2030 2749
0 0 2 0 1 2 11 222 366 231 200 351 464 666 347 308 534 382 432 691 362 322 801 401 1255 1474 1321 1034 1791 1946 1604 1346 1451 1929 1563 2329 2368 2868 2261 2490 2630 2679 2523 2580 2703 2296 1986 1517 1932

GFSSGP_con_mucape_111.txt.gz
CAPE
137 62 140 392 472 591 48 51 81 102 136 68 37 34 43 70 55 35 149 346 390 790 1027 1285 2319 2073 2037 2066 2331 2206 2150 2024 1903 2497 2580 1813 1864 1989 2065 1836 1790 1692 1752 654 943 1636 1547 1516 1569
0 140 183 769 363 105 13 18 10 166 100 34 24 37 37 49 71 217 371 390 701 944 1236 1669 2165 2311 2036 2121 2042 2005 2114 2091 1955 2099 2662 2062 2134 2233 2248 1711 1484 1503 1935 1931 1569 1103 1288 1426 1516
72 204 418 404 172 88 1 7 0 78 107 14 21 38 89 80 110 224 419 316 610 853 1275 1689 2493 2352 2165 1991 1868 2096 2072 1999 2092 2134 2404 2213 1741 1605 1572 1611 1881 1980 1937 1876 1696 1197 1315 1370 1454
115 312 110 44 119 251 3 0 0 14 1 1 0 0 140 157 213 506 868 653 750 1064 1495 2116 2205 1759 1760 1858 1979 1994 1964 1968 2140 2171 2220 2009 2031 2006 2019 1982 1899 1843 1929 1913 2002 1252 1130 1015 954
97 96 5 15 111 8 0 0 58 37 12 1 0 89 286 286 265 201 375 810 774 719 804 1017 2123 2164 1942 1940 2068 2149 2017 2080 2141 2197 2160 2161 1980 1954 2037 1986 2167 2087 1908 1894 2005 1151 1088 906 889
28 23 27 50 81 8 0 56 62 18 9 2 0 156 223 395 506 572 581 207 90 618 1188 1055 1925 2026 2277 1879 1971 2088 2126 2186 2260 2333 2358 2278 2077 1936 2550 1946 1826 1810 1838 1748 1465 1212 1005 909 902
92 0 35 82 110 2 50 157 138 16 8 0 1 104 167 299 273 301 128 89 687 969 1223 1456 1302 1454 1940 2394 1854 2032 2254 2148 2047 2363 2293 2206 2092 2011 2177 1920 1981 2042 2059 1997 1786 1553 1351 1141 799
101 1 126 233 210 30 92 177 39 0 0 0 5 78 0 96 66 131 192 407 530 853 1046 1181 1280 1557 1627 1783 1970 1989 1980 2155 2303 2279 2280 2656 2239 1989 2116 2689 2571 2111 2161 2132 2089 1975 1921 1649 1282
141 87 133 130 146 54 202 243 515 95 19 14 20 1 6 73 135 88 72 354 600 832 770 948 1224 1161 1324 1623 1695 1873 1937 1928 2212 2135 2145 2591 1840 1625 1804 2122 2440 2080 2015 2115 2129 2178 2174 2211 2184
214 123 152 293 360 241 235 267 71 91 65 41 11 13 24 78 161 288 431 373 491 445 751 800 1062 1161 1253 1204 1700 1673 1693 1130 905 897 1019 1346 1494 1227 1434 1942 2164 1967 1858 1809 1944 1683 1904 2451 1947
348 78 1 6 279 245 275 301 144 136 47 43 0 0 14 26 61 116 171 273 278 446 527 828 1018 1052 752 1077 1395 1474 1309 1305 509 254 939 1202 1067 902 975 1233 1423 1615 1625 830 1047 30 547 1195 1745
216 131 39 54 157 202 345 399 129 138 23 17 11 0 8 3 27 54 33 156 224 197 372 739 693 407 945 1089 1321 1088 1248 1119 1049 898 995 1114 87 0 83 609 740 921 502 409 936 961 1075 1237 1345
268 29 2 68 101 153 336 219 148 146 42 29 0 13 2 0 17 77 74 60 12 118 230 337 424 416 249 675 1129 1022 1204 936 846 816 861 705 472 390 86 342 446 288 996 926 1008 996 1379 1289 1002
372 208 87 194 250 498 179 85 192 169 68 23 5 1 12 8 43 27 11 69 3 181 261 636 603 867 1306 806 1046 990 824 566 177 519 724 840 841 986 599 541 510 571 737 996 968 1017 1360 1199 684
291 406 342 377 540 311 446 93 94 74 55 5 0 0 13 16 29 29 3 2 153 302 345 307 306 424 972 483 366 527 740 899 707 0 398 987 1554 1278 1069 918 938 924 1422 1465 1662 1595 1702 686 704
539 273 156 218 503 98 305 126 55 46 13 8 0 4 6 13 27 34 10 12 131 80 16 117 106 260 254 808 715 471 630 1116 921 821 974 994 1409 1744 1294 1569 1299 1435 1607 1501 1370 1500 1550 748 828
147 114 46 45 133 48 122 9 58 74 28 21 0 14 6 22 35 29 14 1 86 54 71 105 100 76 209 495 976 740 597 344 934 1129 1488 1362 1248 1901 853 1314 1827 1863 1560 1181 1070 1196 957 760 969
91 62 7 0 67 87 125 122 138 62 35 33 6 12 13 14 5 29 27 9 3 190 103 174 87 0 594 693 1424 924 915 1071 1486 1297 1206 1478 1007 1633 1691 2048 1356 1194 1250 1775 2469 1976 1961 1874 1392
55 28 73 34 78 74 72 119 150 104 68 38 13 13 18 7 0 2 23 10 0 51 143 292 171 771 339 448 386 500 643 656 1176 979 1283 1222 1209 1299 1793 1755 1 769 955 1996 2253 2106 2012 2300 1506
159 46 2 49 2 39 1 0 63 82 82 108 114 15 35 25 5 4 11 7 0 0 0 377 477 543 74 574 525 858 766 1058 1210 1335 1453 1206 1617 1311 1561 1463 1294 1060 1794 2095 2141 2416 2595 2102 1028
130 83 22 21 1 4 58 0 0 68 81 68 92 124 62 34 13 10 10 7 0 48 226 385 565 254 840 792 996 737 350 1136 956 1125 1179 1289 1484 1277 1150 1637 1273 1208 1207 1440 2101 2505 2376 2534 2241
190 124 82 38 0 0 0 0 0 34 78 81 76 73 63 81 45 26 12 0 27 133 388 210 452 459 768 680 718 561 450 461 557 698 987 1033 1380 1387 1119 1403 1685 1223 1125 1228 1896 1934 2197 2451 2360
125 22 150 32 22 1 0 0 0 0 0 23 55 34 66 42 41 52 23 0 55 197 215 451 517 565 593 534 997 418 487 497 448 533 767 792 1568 1427 1304 1119 1210 1588 1418 1284 1730 2174 1852 2079 2379
298 307 130 82 35 0 2 11 0 0 0 0 0 2 50 42 34 37 46 48 44 79 267 543 589 559 644 348 807 633 627 432 236 371 306 489 674 941 1004 1519 1620 1268 1343 1335 1497 1854 1403 2060 1816
243 107 27 24 22 44 39 32 66 22 10 0 0 0 1 25 29 52 39 45 117 87 216 857 687 540 712 569 746 553 576 169 120 104 169 366 349 523 660 873 1212 1292 1159 1263 1586 1473 1221 1806 1549
226 179 126 0 8 73 94 18 70 111 49 5 0 2 6 68 58 36 48 48 101 133 397 693 791 780 692 568 698 550 696 539 389 236 259 298 211 503 491 861 1092 1014 1368 1254 1668 1194 1777 1208 1184
12 133 65 39 7 0 62 15 227 83 88 66 10 0 0 14 77 69 58 111 103 96 618 966 833 608 981 894 1018 716 631 485 384 310 276 199 0 127 583 715 884 1093 1391 1210 1305 1418 1123 1271 881
44 23 4 20 78 27 56 22 166 121 57 61 69 3 9 1 30 35 68 71 188 145 549 1187 1040 672 662 1123 965 835 836 700 574 364 131 36 0 0 172 500 787 1068 911 662 1259 1055 814 1260 1169
21 6 0 0 0 13 130 31 79 18 89 111 77 65 12 6 0 7 65 107 232 265 445 950 1172 1231 957 1181 822 999 1076 782 664 400 265 188 0 144 253 343 830 1110 817 1050 1198 1158 796 1103 1058
19 0 0 0 0 0 9 41 12 9 110 56 114 152 45 65 56 44 75 94 151 244 285 666 595 879 1106 986 826 890 836 840 851 611 426 446 231 434 132 171 937 944 954 1136 969 878 1488 947 838

GFSSGP_con_mucape_114.txt.gz
CAPE
159 135 136 254 237 333 37 66 80 108 52 43 67 70 28 53 5 1 19 81 103 584 960 1598 2394 2187 2247 2244 2207 2089 2007 1956 2050 1739 1823 1810 1952 1953 1899 1954 1930 1302 1135 1763 1757 1378 1684 1594 1400
64 181 240 395 145 9 56 74 63 59 81 67 81 74 75 124 176 147 128 314 787 903 993 1546 2374 2312 2180 2198 2321 2153 2007 2027 2083 1711 1927 2023 2018 1916 1798 1721 1178 1541 1594 1256 1306 1528 1606 1597 1507
185 287 357 115 101 54 32 119 17 0 43 74 71 87 84 185 207 248 289 684 812 1100 1496 1472 2279 2444 2000 2149 2163 2142 1904 1983 2082 2025 1838 1702 1797 1998 2027 1839 1931 1726 1397 1115 1208 1415 1479 1603 1366
167 215 31 20 77 260 27 73 57 32 48 104 130 142 126 141 249 342 527 709 961 1340 1575 2151 2087 2104 1929 2076 2040 2083 2010 2138 2041 2102 1865 1821 1650 1612 1651 1810 1864 1834 1797 1882 1149 1262 1262 1174 1276
90 56 25 89 116 33 27 24 21 3 84 171 115 146 193 435 321 308 488 872 1153 1454 1755 1954 2399 2081 1949 2083 2126 2040 2071 2225 2231 2185 2046 1973 2018 2139 2154 1983 1958 1968 2112 2044 1161 1095 910 966 1269
47 15 37 0 57 32 40 30 23 55 143 252 159 131 190 298 463 656 707 817 837 909 1074 1692 2192 2087 2102 2131 2121 2190 2203 2331 2317 2129 2064 1918 1945 2107 2024 1879 1914 1762 1767 1590 1164 1074 896 904 965
95 8 23 61 135 64 30 46 76 60 65 82 70 138 154 141 580 668 532 223 650 999 998 1391 1759 1730 2119 2084 2245 2243 2187 2391 2126 2241 2166 2229 2124 2067 1914 1938 1957 1879 1758 1603 1361 1135 948 867 786
123 5 30 134 146 136 218 97 35 40 44 74 76 133 71 205 508 244 100 733 1028 1170 1398 1287 1433 1770 1675 1775 2129 2187 2110 2255 2346 2312 2289 2134 2212 2131 2081 2545 2371 1980 1920 1818 1745 1748 1875 1883 1556
164 116 106 172 230 138 124 49 85 35 67 29 69 121 98 139 104 64 477 650 862 994 1091 1130 1510 1593 1639 1698 1797 2031 2303 2306 2506 2415 2420 2345 1562 1753 1708 1999 2119 2006 2030 2062 2085 2235 2180 1973 1986
162 108 95 112 128 185 73 190 42 9 21 28 4 69 86 63 81 248 397 522 758 811 910 1096 1163 1335 1568 1685 1659 1563 1606 1602 1683 1676 1786 1187 1179 1369 1467 1715 2056 2008 1844 1821 2029 2213 2143 2725 2071
168 53 12 36 63 107 122 57 49 16 26 44 3 46 70 52 48 250 360 517 646 726 844 959 1093 1078 1318 1572 1540 1492 970 864 605 714 1023 1156 1044 1237 860 772 791 848 1468 832 1451 1326 916 956 1299
94 24 3 22 34 92 111 157 89 83 48 20 23 53 74 103 228 238 275 366 463 691 786 893 995 962 758 1200 1260 1155 1070 698 446 796 922 703 579 354 195 410 345 323 633 753 607 453 700 823 953
98 29 0 2 31 50 79 463 177 102 40 13 1 40 59 83 175 176 154 250 409 441 593 932 830 887 765 1005 1032 1024 1183 803 922 824 764 253 34 0 0 238 139 371 624 948 858 779 850 1127 1459
131 8 2 14 58 377 334 191 64 72 33 11 0 0 9 10 45 27 176 201 230 404 484 524 386 507 782 1031 943 903 866 791 732 693 575 525 547 508 256 263 254 529 684 1038 1175 1188 988 1012 738
139 45 28 134 225 412 303 101 83 54 53 17 3 0 0 41 36 57 35 56 139 278 259 216 520 958 914 606 836 867 544 74 270 458 663 866 752 1088 577 692 870 919 1199 1369 1361 1806 1536 1343 671
78 176 207 169 145 119 195 95 67 55 85 51 6 0 4 48 71 26 11 31 93 79 100 177 330 510 519 764 718 693 653 569 173 405 700 944 1391 1188 1021 1237 1136 1086 1289 1563 1219 1274 1233 987 707
16 25 40 48 79 45 122 56 117 93 56 37 0 0 7 30 25 14 23 92 80 50 60 72 94 325 376 434 380 331 682 773 600 735 815 957 1327 1621 1611 1782 1204 1097 1196 1514 2216 1533 1209 1051 805
56 60 29 20 52 80 56 9 122 98 75 38 0 7 6 33 19 4 75 55 0 6 7 0 3 3 96 395 1047 407 585 570 733 899 1268 1307 1211 1797 1825 1846 1114 978 1435 2009 2182 1929 2236 1691 1156
66 45 48 43 79 73 13 11 46 91 80 43 10 21 23 29 14 16 8 0 0 3 5 38 65 33 352 460 749 548 588 1020 982 1213 953 1396 1008 1281 1507 1215 298 930 1742 2037 2185 2287 2462 1397 757
157 38 10 17 136 119 3 44 63 60 76 61 92 20 20 24 22 17 0 0 55 50 44 13 4 241 249 279 533 357 619 528 758 995 1100 1276 1312 1396 1633 1227 1073 995 1325 1581 2088 2005 2190 2062 1966
170 104 13 42 16 41 0 4 17 35 58 55 78 88 17 8 4 4 0 0 18 59 66 70 130 41 78 424 633 517 763 768 836 928 940 1068 1279 1145 1215 1343 1155 1193 1030 1319 1633 1831 2067 1810 1617
171 144 115 32 0 0 38 0 0 11 21 52 70 66 38 17 22 6 0 0 0 0 92 74 144 130 563 615 640 410 469 657 519 517 723 891 1172 977 1123 1372 1205 1177 1257 1136 1859 1682 1749 1887 1715
62 222 126 25 40 0 0 0 0 11 36 39 52 60 63 12 0 0 0 0 0 9 62 78 95 218 449 400 417 398 323 316 366 435 454 716 952 1200 992 921 1395 1352 1137 1223 1318 1462 1682 1753 1628
113 248 115 39 24 0 0 0 0 0 43 14 51 67 58 29 0 0 0 10 24 132 81 146 94 450 318 305 496 327 314 371 360 282 462 437 460 650 934 1150 1057 1012 1085 1143 1212 1397 1453 1576 1509
223 112 23 4 2 0 0 0 0 7 45 44 56 42 60 67 11 14 31 54 52 133 305 133 0 317 211 256 426 450 362 285 282 229 359 232 283 456 533 751 869 1134 1055 1159 1463 1300 885 1204 1451
238 72 28 0 0 0 82 0 0 46 38 43 11 45 63 114 69 9 29 75 74 102 347 270 155 145 227 176 358 300 395 320 140 168 64 143 278 284 354 570 850 968 1057 814 1299 950 1345 1047 863
373 227 81 48 18 0 89 31 56 31 42 24 2 37 42 28 46 41 37 85 73 101 317 308 297 197 238 197 314 287 466 358 325 168 171 149 211 179 386 605 646 856 805 1055 1112 1065 1148 1022 921
154 135 52 33 2 0 70 76 70 47 47 11 14 39 18 14 90 103 80 64 87 100 295 512 351 300 279 210 368 319 417 386 337 211 182 268 198 0 382 443 514 633 881 1041 962 1057 817 838 991
0 0 4 2 14 3 0 21 55 36 96 136 89 68 2 15 111 110 91 119 73 128 323 557 519 340 441 445 618 427 415 445 419 397 131 25 14 0 0 119 480 692 996 709 949 950 675 735 920
11 1 36 8 0 0 1 0 40 45 33 201 153 173 142 37 21 62 106 125 125 275 565 668 663 439 308 715 655 601 414 444 421 468 214 172 31 52 159 164 544 606 909 824 765 788 1320 753 614

GFSSGP_con_mucape_117.txt.gz
CAPE
327 93 215 259 158 60 37 26 72 7 58 70 57 40 28 116 3 0 1 2 56 187 785 1730 2079 1982 2118 2206 2126 2057 1955 1434 1863 1759 1615 1777 1841 1897 1672 1929 1907 1802 1656 1408 1562 1538 1549 1550 1538
107 158 340 308 14 6 31 54 97 49 66 65 99 32 91 110 189 37 30 103 177 561 1091 1663 2523 2315 2126 2220 2292 2099 2114 1569 1817 1748 1706 1866 1901 1738 1782 1195 821 1008 1620 1442 1780 1786 1663 1663 1567
142 365 273 66 48 12 31 28 79 82 73 74 106 96 151 209 79 44 194 358 856 976 1195 1641 2127 2234 2165 2314 2233 2134 1904 1853 1877 1863 1750 1731 1641 1296 1219 2157 1813 1436 1167 1390 1628 1700 1673 1495 1701
110 190 38 57 37 22 23 14 58 87 128 126 95 149 188 150 226 375 477 813 914 1181 1472 1742 2041 2005 2023 2258 2206 2112 2060 2154 2113 1870 1712 1717 1774 1958 1925 2000 1899 1963 1678 1271 1494 1649 1533 1490 1902
63 49 42 83 42 25 14 17 35 120 181 138 79 130 302 404 420 653 738 875 1154 1425 1533 1720 2221 1949 2174 2000 2169 2148 2075 2127 1943 1906 2009 1950 1934 1909 1823 1799 1918 2038 2149 1258 1208 1279 1240 1476 1720
25 23 44 37 12 36 37 26 97 184 210 175 131 171 300 336 499 574 878 1145 1247 1614 1841 1797 2099 1971 2126 2168 2168 2185 2176 2294 2255 2173 2116 2168 2161 2260 2253 2041 1854 1868 2021 1289 1185 1084 1094 1266 1253
103 21 0 7 16 33 31 98 169 191 179 183 132 209 292 324 555 780 905 1027 1181 1520 1810 1790 1864 2006 2220 2189 2201 2251 2142 2083 2221 2244 2077 2204 2189 1983 1942 1957 1933 1847 1731 1517 1326 1199 1212 1294 1111
31 41 96 61 49 35 42 93 104 85 119 162 162 187 192 308 597 677 726 619 884 948 1461 1755 1674 1858 1876 1886 2254 2110 2282 2277 2337 2257 2188 2130 2028 2000 2094 2387 2171 2005 1976 1922 1839 1780 1790 2058 1798
107 61 78 75 106 138 65 50 17 62 121 118 160 130 137 373 476 437 664 947 1115 1313 1197 1472 1627 1751 1539 1776 1976 2138 2255 2320 2286 2096 2119 2318 1866 1837 1793 2111 2128 2111 2223 2300 2288 2155 1928 1833 2000
131 6 106 118 133 186 45 45 49 29 48 127 73 151 266 403 125 467 692 890 1078 1245 1158 1246 1560 1476 1515 1723 1769 1737 2111 2143 1980 2066 1887 1246 1284 1510 1510 1991 2454 2458 2315 2107 2271 2173 2303 2075 1911
199 1 16 45 101 98 286 46 52 27 72 73 102 130 206 197 165 416 504 641 643 809 992 1245 1191 1280 1388 1452 1453 1342 1031 1083 1545 1572 1220 1034 950 1267 800 984 911 784 1331 1031 694 826 649 716 924
118 67 25 58 91 99 102 132 69 34 47 62 85 85 162 98 195 313 482 537 602 741 879 1007 1031 1099 1122 1283 1085 1181 784 498 617 809 1046 1093 700 424 338 414 424 209 481 573 651 659 734 793 948
164 52 14 33 77 109 73 159 101 45 69 43 64 66 91 114 218 274 363 462 624 736 837 933 919 899 764 1006 993 1044 1005 379 500 731 787 613 331 206 98 220 189 391 519 742 981 1009 1047 959 853
95 80 35 23 59 91 316 362 382 53 78 62 37 68 45 88 195 215 303 382 595 636 707 844 758 666 747 843 908 958 1087 847 784 704 588 356 299 54 179 373 479 576 768 1209 1319 1343 1078 1065 958
134 83 19 134 137 79 189 130 88 58 63 65 58 49 76 119 176 178 267 252 439 455 649 837 750 727 661 731 828 834 740 696 672 627 548 663 691 951 735 913 909 965 1045 1231 1187 1025 1200 1028 618
105 56 45 60 38 88 107 68 82 37 53 31 24 26 62 83 183 138 200 284 338 355 479 509 338 496 602 704 673 725 394 255 470 521 815 862 1074 1114 992 1090 1060 929 1241 1172 1765 1336 898 696 549
61 57 0 0 2 111 94 77 89 76 33 30 0 0 0 33 105 134 207 172 215 269 193 276 466 528 567 513 603 621 369 373 137 434 706 1236 1476 1147 1314 1226 1086 952 1527 1952 1906 2039 921 799 652
68 74 10 0 0 116 65 73 97 58 64 15 0 0 0 27 62 93 123 70 141 152 73 194 252 213 334 340 400 331 612 720 587 715 767 1073 1390 1498 1558 1369 791 903 1704 1806 2142 2054 1556 893 822
101 73 62 23 59 69 22 52 87 39 60 33 18 0 13 44 62 75 12 87 110 50 26 81 152 178 213 741 435 427 589 570 585 899 1124 1296 1149 1376 1496 481 495 1296 1486 1888 1967 2048 1826 1715 728
119 102 56 54 122 111 42 0 60 43 75 54 26 1 4 15 9 36 17 64 78 40 26 0 0 45 146 398 471 389 446 611 579 898 917 1158 1101 1459 1362 1116 888 1000 1188 1544 1708 1816 1575 1312 1012
132 120 44 64 14 59 60 9 2 39 42 67 20 4 6 16 3 1 3 14 0 0 9 0 0 69 172 239 468 324 506 624 699 896 918 973 1160 1200 1291 1073 1014 985 971 1423 1515 1569 1529 1198 873
203 132 59 36 3 2 27 0 5 1 13 38 22 0 0 6 17 40 26 2 0 0 0 19 0 83 112 262 468 353 378 509 472 575 745 791 977 888 1154 1086 1052 986 1037 1489 1637 1397 1468 1295 958
99 150 54 3 17 2 0 0 0 31 16 20 23 19 0 0 0 3 38 24 2 7 0 0 0 57 338 415 318 334 398 310 373 441 538 627 892 1083 1142 1078 1076 1161 963 1162 1295 1305 1248 1340 692
231 77 28 7 0 0 0 0 0 0 1 10 12 17 7 0 0 10 45 46 12 17 12 0 16 156 349 400 390 274 251 293 320 339 379 410 571 702 1128 870 1058 1020 928 1041 1148 1051 1333 1122 1335
202 74 0 0 0 0 0 0 0 0 0 0 0 5 21 0 8 8 5 17 33 7 8 35 31 121 250 306 297 288 280 249 293 301 284 384 339 365 546 750 920 925 929 970 1152 1136 782 1066 1177
164 75 23 0 0 0 59 0 0 0 28 19 0 13 30 20 1 11 39 59 76 64 8 88 26 122 189 223 328 280 259 232 233 222 185 336 271 250 356 491 639 806 1008 657 989 891 1156 877 807
340 122 29 0 24 0 60 61 31 19 26 48 43 21 44 53 6 26 56 81 97 95 95 82 28 68 207 125 239 263 306 322 352 237 38 31 86 227 294 397 587 754 807 908 932 1094 974 860 771
314 182 94 71 0 0 10 30 64 62 17 51 59 55 10 19 33 34 55 84 106 109 201 137 84 0 96 143 199 198 228 349 316 324 102 115 106 214 115 374 518 404 684 831 987 943 996 670 771
184 163 73 52 49 0 0 19 32 45 40 27 44 19 22 23 57 38 70 102 113 139 202 223 202 112 116 125 153 203 206 323 287 295 105 159 161 115 0 227 373 413 618 817 841 824 874 510 780
169 7 0 1 0 0 0 0 52 90 88 98 57 25 15 33 87 99 81 92 85 118 158 255 321 211 205 193 151 247 245 331 309 282 262 176 23 31 0 0 73 462 746 800 619 746 841 837 487

GFSSGP_con_mucape_120.txt.gz
CAPE
95 126 333 282 56 1 23 9 21 30 46 29 37 5 47 99 5 2 0 12 28 204 807 1506 1680 1959 1904 2033 2016 1867 1721 1990 1932 1865 1892 1872 1875 1921 2036 1865 1543 1538 1522 1609 1757 1701 1704 1754 1734
217 282 341 323 0 0 60 65 19 53 75 69 56 69 117 77 67 0 0 64 106 377 1245 1510 1821 2072 2025 2210 2016 1963 1656 1803 1689 1847 1861 1987 1980 1961 1489 934 1405 1617 1521 1745 1609 1404 1540 1504 1548
130 329 282 87 1 14 52 56 22 42 64 95 105 161 224 153 9 14 44 205 524 856 1246 1646 2047 2190 2121 2095 1898 1734 1903 1846 2011 1822 2024 1925 1902 1415 1938 2000 1549 1338 1618 1847 1807 1642 1698 1736 1816
62 262 20 0 4 46 40 36 26 82 103 130 129 161 149 21 182 212 256 685 757 1014 1353 1805 1949 2164 2142 1962 2146 1878 2000 1983 1983 2015 1961 1931 1757 1877 1994 1800 1908 1469 1392 1576 1715 1624 1738 1941 2023
49 39 26 31 2 21 32 38 50 103 127 75 97 157 213 355 363 484 656 731 890 1226 1401 1794 1938 1866 2055 2161 2197 2104 2076 2087 1878 1792 1753 1731 1782 1785 1831 1892 1976 2078 1372 1344 1379 1371 1571 1591 2014
31 20 19 8 0 10 26 28 130 146 114 103 90 174 261 480 567 660 827 954 1183 1169 1467 1666 1889 1987 1918 2115 2074 2216 2121 2094 2096 1988 1934 1774 1722 1847 2051 1856 1911 1966 1347 1254 1267 1202 1320 1382 2016
74 32 18 0 0 6 27 58 178 131 34 50 127 196 280 419 577 873 1030 1117 1182 1404 1600 1540 1780 1720 2138 2154 2233 2217 2234 2181 1988 1976 2037 2096 2010 1857 1896 1874 1802 1656 1438 1245 1229 1311 1459 1363 1339
17 46 52 51 3 0 21 45 222 129 115 62 105 108 169 338 769 792 918 974 1334 1636 1676 1548 1781 1812 1790 1538 2136 2126 2235 2172 2229 2182 2113 2102 1978 2152 2216 2273 2136 1850 1703 1514 1339 1364 1593 1831 1638
72 42 86 93 31 34 35 95 128 147 98 54 128 133 170 437 598 585 694 806 848 1003 1555 1538 1430 1400 1451 1592 1846 2020 2204 2346 2309 1995 2165 1810 1777 1740 1596 2237 2159 2182 2245 2138 2033 2048 2088 2158 2056
130 46 111 118 135 177 53 74 120 131 93 101 87 173 303 351 477 631 465 514 795 954 1061 1293 1421 1357 1462 1764 1833 1747 2058 2065 1809 1766 1238 1184 1240 1674 1669 2038 1961 1905 1960 1478 937 1795 1086 709 878
174 51 36 72 77 143 308 32 62 79 78 64 84 182 238 276 528 294 353 481 672 962 919 1090 1310 1294 1364 1364 1453 1462 1818 1800 1673 1469 944 916 1000 868 582 610 499 499 872 607 475 435 448 611 731
95 109 53 75 61 77 164 133 24 29 107 49 93 151 206 253 254 398 525 632 653 840 813 1053 1037 1105 1120 1086 1088 787 538 642 884 847 917 916 597 305 291 360 160 211 414 623 752 810 749 818 775
138 65 46 66 90 75 115 176 50 34 124 105 108 126 148 78 187 288 374 416 394 518 694 823 793 886 812 879 839 632 439 454 586 739 776 687 336 222 128 98 293 465 730 1024 1088 1066 954 796 810
127 70 37 36 71 102 81 307 114 41 99 102 76 73 48 31 158 205 311 358 400 530 647 713 678 612 520 722 782 744 906 475 457 508 675 486 134 61 370 553 666 802 888 947 946 993 1274 1060 901
102 99 68 34 113 77 86 193 305 46 75 74 50 44 65 31 154 196 206 279 307 473 536 614 513 483 500 616 773 886 920 732 740 578 426 543 646 832 704 833 816 815 1165 1210 1345 1030 901 858 543
190 79 67 65 3 87 106 43 102 82 43 47 44 43 40 35 146 150 170 202 304 379 451 510 472 508 516 606 610 636 584 681 607 558 606 539 977 978 935 908 975 1089 1323 1808 1629 1572 768 429 474
37 9 0 22 0 74 77 70 80 85 48 30 48 47 13 13 80 128 170 150 268 234 394 531 540 426 500 473 596 589 421 268 428 408 498 901 1211 992 1113 1072 848 1368 1629 1927 1966 1729 664 576 521
37 22 2 0 0 86 32 56 104 96 73 36 32 44 34 26 13 110 142 122 184 199 236 418 263 389 471 494 502 471 349 387 121 455 531 811 1265 1290 1434 1003 711 1447 1562 1773 1816 1556 926 721 684
119 95 38 24 0 66 38 64 52 59 35 26 20 26 21 39 35 88 97 135 128 151 183 132 260 371 375 414 409 291 514 519 490 611 818 998 1166 1288 755 434 815 1217 1532 1546 1777 1730 1567 1255 725
178 134 86 75 61 96 0 58 53 48 19 8 9 5 0 3 0 16 41 69 36 94 85 111 150 171 241 199 236 263 403 474 444 627 924 1063 877 1173 1030 716 826 957 1284 1323 1454 1489 1324 832 864
195 130 69 54 67 31 56 0 28 60 32 22 15 9 1 0 21 11 21 25 0 7 0 41 90 119 180 445 375 254 419 511 603 760 832 875 1008 1083 989 742 678 750 1043 1220 1295 1345 1315 880 642
179 106 117 48 52 0 3 0 0 38 24 2 0 0 0 0 7 48 38 11 0 2 0 0 13 43 8 224 362 276 344 385 491 581 659 717 884 816 1018 860 803 855 834 1292 1465 1283 1263 1090 772
170 172 98 28 1 0 0 0 0 0 20 4 0 0 0 0 0 3 17 28 0 0 0 0 0 0 51 225 327 214 265 327 390 450 517 585 721 850 1013 945 868 901 715 1015 1063 1138 1234 1036 731
238 139 52 11 0 0 0 0 0 0 2 4 10 0 0 0 0 1 24 36 27 0 10 0 0 0 48 146 241 239 248 237 248 294 316 402 579 756 908 864 865 915 767 906 881 845 1009 1044 1078
192 122 41 14 4 4 11 2 0 0 0 9 4 6 5 0 0 0 9 24 26 0 0 0 0 0 80 241 227 262 253 250 327 283 276 299 334 490 582 797 695 796 679 726 894 897 768 808 963
307 130 50 6 9 1 75 9 0 2 7 15 31 18 18 33 2 10 0 1 14 0 0 0 0 12 119 247 311 286 261 263 246 213 305 262 242 268 289 441 624 678 719 795 751 754 814 639 782
319 134 51 1 0 4 0 48 24 28 49 36 44 41 30 45 31 18 0 0 22 0 48 31 0 4 63 211 246 265 271 247 245 233 198 186 144 244 209 220 459 534 635 801 740 756 730 703 586
323 100 46 59 2 5 0 0 0 7 6 19 15 12 4 6 5 26 36 15 25 42 64 50 42 43 40 98 172 237 261 229 217 220 225 187 37 39 178 170 345 450 600 650 687 753 820 731 618
321 301 136 45 33 3 0 0 39 51 11 6 13 13 3 27 63 40 40 46 39 67 87 67 62 52 39 77 104 126 186 214 220 260 247 231 87 59 123 113 150 330 290 611 679 779 733 679 585
412 128 66 35 2 6 0 0 121 238 158 56 71 0 1 23 73 88 76 89 82 94 110 154 111 77 87 56 100 104 145 171 207 235 242 180 120 30 2 0 52 184 281 583 649 636 957 701 559

GFSSGP_con_mucape_123.txt.gz
CAPE
162 170 331 693 267 147 16 14 23 7 0 0 1 6 53 112 9 32 2 85 85 218 958 779 981 1124 1485 1756 1957 1864 1890 1585 1906 1903 1912 1900 1849 1797 1725 1561 1515 1799 1832 1795 1796 1711 1689 1874 1951
272 343 378 707 133 33 43 38 14 4 0 0 11 68 105 49 26 18 50 147 174 592 1047 1134 1740 1799 1753 1883 1939 1800 1822 1829 1956 1978 2058 1840 1857 1413 1484 1714 1706 1821 1527 1632 1452 1176 1224 1356 1692
227 343 538 363 121 58 74 87 20 18 2 58 144 175 124 18 0 14 82 220 382 1062 1332 1456 1793 1942 1888 1899 1834 1899 1837 1987 1956 2061 1917 1910 1477 2135 1868 1427 1466 1912 1777 1742 1411 1374 1692 1753 1593
99 537 157 157 81 39 107 61 59 84 67 131 104 96 28 2 21 105 213 402 558 1106 1670 1536 1869 2004 1997 1944 1682 2025 1939 1999 2041 2005 1874 1386 1994 1764 1852 1707 1361 1570 1665 1677 1590 1835 2002 2023 1909
33 101 274 137 63 58 81 45 74 134 126 130 95 44 47 592 329 242 419 529 907 1150 1336 1629 2021 2090 2084 1934 1972 1923 2007 1929 1858 1765 1879 1914 1940 1866 1936 1920 1826 1324 1467 1530 1456 1677 1872 1936 1436
42 43 67 41 46 39 62 73 230 236 182 71 0 23 269 845 323 382 508 694 1068 1090 1270 1574 1862 1848 2034 2034 2017 2142 1970 2041 1970 1943 1860 1832 1854 1914 1899 1916 1718 1253 1329 1437 1355 1451 1584 1980 1493
67 206 123 26 54 45 60 153 235 115 96 39 1 111 407 840 547 673 737 867 796 728 1120 1598 1286 1875 1922 2074 2184 2169 2012 1999 1966 1773 1768 1839 1829 1923 1949 1677 1425 1274 1181 1286 1400 1575 1538 1491 1675
58 279 132 58 66 50 89 216 167 90 149 70 22 134 300 741 879 838 801 796 1062 1087 1068 1460 1840 1764 1627 2069 2086 2209 2270 2162 2044 1900 1873 2144 2062 2072 2134 2294 2139 1474 1268 1131 1279 1556 1760 1731 1673
125 211 135 60 43 41 94 157 157 186 76 91 324 94 321 822 798 648 766 1081 1282 1209 1311 1668 1755 1972 1743 2052 2112 2143 2090 2177 1991 2156 2370 2331 1965 1727 1680 2257 2150 2169 2014 1796 1615 1604 2024 2029 1838
87 209 181 148 269 87 78 81 93 47 58 213 354 537 676 740 600 590 710 806 807 783 1269 1585 1628 1415 1921 2180 2394 2389 2456 2518 2503 2167 2194 2051 2043 2269 2214 1823 1368 1977 1650 1427 603 1157 752 732 969
150 115 143 158 189 218 91 66 76 60 41 200 167 535 544 463 531 876 741 391 196 364 1052 1332 1631 1744 1900 2350 2296 2261 2334 2091 2179 1949 1811 1906 1635 1098 1193 1295 914 1044 673 874 696 596 754 1032 1182
288 167 137 126 113 257 172 158 84 78 75 93 200 407 449 502 732 752 222 173 347 630 868 1233 1377 1727 1729 1738 1918 1723 1478 1487 1314 1635 1885 1641 1028 721 951 1106 802 851 1154 1716 1763 1561 1747 1812 1776
326 155 131 84 121 224 231 222 74 74 144 85 223 331 374 505 469 213 225 437 607 602 831 1109 1254 1648 1719 1783 1788 1152 998 872 1129 1346 1536 1308 796 571 525 672 739 1150 1421 1792 2125 2205 2197 1990 1699
138 132 73 104 164 183 259 307 92 155 130 164 244 234 259 321 348 474 570 541 567 511 779 927 1038 1403 1497 1458 1625 1485 1240 821 1223 1311 1645 1273 620 297 746 1164 1271 1661 2025 2213 2248 2213 2249 2003 1314
203 160 130 128 117 130 202 290 164 191 136 236 226 261 213 174 432 507 547 583 663 655 795 887 846 1010 1417 1668 1737 1827 1914 1595 1460 1426 1442 1370 1634 1629 1767 1608 1802 2049 2381 2744 2614 2086 2083 1372 999
148 79 196 33 95 90 204 173 349 209 113 164 200 196 179 175 320 476 489 486 654 483 854 965 611 799 1175 1472 1747 1533 1483 1533 1474 1315 1496 1285 1671 1951 1899 1865 2108 2242 2839 2930 2772 1984 1556 1237 1350
141 63 88 43 32 81 199 149 197 170 98 125 164 177 181 191 217 404 429 461 446 643 815 937 1036 1065 1220 1432 1350 1535 1265 1334 1128 890 1071 1590 2165 1911 2151 2079 1585 2241 2802 3152 2672 2206 1721 1370 1277
87 119 31 22 0 80 89 113 147 155 71 111 173 157 168 149 226 300 413 374 501 572 867 990 1059 1141 1391 1253 1279 1183 1043 877 618 515 1000 1584 2178 2123 2516 1664 1430 2646 2819 3024 2520 2462 2109 1766 1634
38 138 48 3 0 15 44 143 140 131 85 92 155 157 184 171 152 180 286 342 354 510 660 956 1014 1085 1114 1101 1090 1146 1072 1324 833 863 1544 1928 2154 2418 2183 1200 1853 2554 2772 3211 3154 2723 2708 1903 1631
154 176 114 92 27 0 60 85 140 99 71 82 119 147 156 147 113 126 226 243 292 522 655 765 775 1052 1112 1083 1180 1082 1323 1318 1379 1461 1930 2141 1886 2319 2146 1620 2080 2276 2429 3067 3103 3039 2213 1687 1778
218 177 146 132 133 82 53 0 76 88 110 38 0 17 88 94 78 126 195 223 280 397 579 651 680 898 1021 1079 1018 1180 1310 1414 1495 2061 2561 2012 2040 2180 2233 1820 1950 1985 2366 2326 2894 2789 2726 1612 1302
126 164 167 127 113 67 39 0 1 32 76 67 4 0 0 0 39 112 166 239 287 287 384 446 530 656 819 1129 992 1275 1049 1139 1565 2365 2220 2017 2082 2018 2123 2030 1975 2284 2105 2784 2667 2373 2498 2333 1526
190 268 230 140 73 59 41 0 0 2 58 106 61 38 0 0 0 16 105 210 265 218 249 282 414 481 654 933 1070 1504 1145 1046 1373 1395 1661 1862 2058 1954 1825 2158 2070 2229 1884 2456 2511 2451 2692 1868 1787
401 255 186 105 75 64 29 17 0 63 142 93 78 47 18 0 0 3 51 195 229 176 174 203 312 415 514 810 1248 1344 1338 1186 1177 1378 1271 1470 1590 1656 2100 1956 2327 2345 2031 2177 1997 2293 2452 2364 2248
350 298 211 196 150 75 9 19 10 1 20 78 63 80 78 4 0 3 132 178 224 190 208 228 260 334 373 621 1060 1229 1345 1404 1491 1498 1151 1361 1260 1343 1896 2087 2085 2542 2111 2054 2150 2374 2278 2178 1993
377 59 115 107 133 79 128 91 61 23 3 2 61 60 116 64 0 10 122 187 242 239 285 249 258 326 360 574 1006 1227 1338 1110 1139 1342 1149 1100 1135 1215 1514 1562 1718 1687 1907 2001 2240 1933 1793 1712 1795
415 168 85 94 35 28 41 120 62 29 28 5 1 18 49 85 39 24 93 184 256 277 331 312 316 377 369 529 940 1191 1201 1213 1030 1220 1141 878 1013 948 1002 1169 1384 1693 1720 1857 1906 1515 1928 1945 1970
560 330 272 150 73 5 0 55 134 155 152 51 64 43 69 77 35 33 46 149 192 248 310 327 351 355 330 437 771 924 1000 1154 1153 1149 1051 959 870 779 835 887 1079 1381 1657 1798 1986 2131 1911 2060 1794
518 496 130 59 47 41 6 3 192 217 180 99 52 109 157 102 135 107 44 132 230 199 238 265 372 364 316 378 538 818 875 965 982 984 1054 1156 900 610 514 780 855 1223 1374 1540 1827 2088 1915 1986 1827
338 308 315 197 8 33 0 1 228 239 196 189 112 95 86 136 171 113 80 138 234 257 261 246 363 404 364 412 507 549 699 804 784 940 942 1072 1038 808 760 380 447 542 997 1273 1564 1611 1311 1705 1649